<?xml version="1.0" encoding="UTF-8" ?>
<gpx version="1.1" xmlns:xsi="http://www.w3.org/2001/XMLSchema-instance"
    xmlns="http://www.topografix.com/GPX/1/1"
    xsi:schemaLocation="http://www.topografix.com/GPX/1/1 http://www.topografix.com/GPX/1/1/gpx.xsd"
    creator="Openrunner - https://www.openrunner.com" >	<trk>
	                   <name>Volta Tarragona - E1 - El Perelló-23860611</name>
						<trkseg>
					<trkpt lat="40.882870" lon="0.718550">
						<ele>129</ele>
						<time>2026-04-30T12:09:25Z</time>
					</trkpt>
					<trkpt lat="40.883600" lon="0.718660">
						<ele>127</ele>
						<time>2026-04-30T12:09:38Z</time>
					</trkpt>
					<trkpt lat="40.885870" lon="0.719020">
						<ele>124</ele>
						<time>2026-04-30T12:10:19Z</time>
					</trkpt>
					<trkpt lat="40.886340" lon="0.719130">
						<ele>123</ele>
						<time>2026-04-30T12:10:27Z</time>
					</trkpt>
					<trkpt lat="40.886750" lon="0.719270">
						<ele>123</ele>
						<time>2026-04-30T12:10:35Z</time>
					</trkpt>
					<trkpt lat="40.887120" lon="0.719470">
						<ele>122</ele>
						<time>2026-04-30T12:10:42Z</time>
					</trkpt>
					<trkpt lat="40.887450" lon="0.719680">
						<ele>121</ele>
						<time>2026-04-30T12:10:48Z</time>
					</trkpt>
					<trkpt lat="40.887820" lon="0.719990">
						<ele>121</ele>
						<time>2026-04-30T12:10:56Z</time>
					</trkpt>
					<trkpt lat="40.887950" lon="0.720120">
						<ele>121</ele>
						<time>2026-04-30T12:10:59Z</time>
					</trkpt>
					<trkpt lat="40.888140" lon="0.720290">
						<ele>122</ele>
						<time>2026-04-30T12:11:03Z</time>
					</trkpt>
					<trkpt lat="40.888590" lon="0.720890">
						<ele>121</ele>
						<time>2026-04-30T12:11:15Z</time>
					</trkpt>
					<trkpt lat="40.890770" lon="0.723890">
						<ele>113</ele>
						<time>2026-04-30T12:12:11Z</time>
					</trkpt>
					<trkpt lat="40.892090" lon="0.725710">
						<ele>108</ele>
						<time>2026-04-30T12:12:44Z</time>
					</trkpt>
					<trkpt lat="40.892460" lon="0.726190">
						<ele>109</ele>
						<time>2026-04-30T12:12:54Z</time>
					</trkpt>
					<trkpt lat="40.892970" lon="0.726800">
						<ele>108</ele>
						<time>2026-04-30T12:13:06Z</time>
					</trkpt>
					<trkpt lat="40.893480" lon="0.727340">
						<ele>105</ele>
						<time>2026-04-30T12:13:18Z</time>
					</trkpt>
					<trkpt lat="40.894180" lon="0.728010">
						<ele>103</ele>
						<time>2026-04-30T12:13:33Z</time>
					</trkpt>
					<trkpt lat="40.894830" lon="0.728640">
						<ele>104</ele>
						<time>2026-04-30T12:13:47Z</time>
					</trkpt>
					<trkpt lat="40.895160" lon="0.728940">
						<ele>104</ele>
						<time>2026-04-30T12:13:54Z</time>
					</trkpt>
					<trkpt lat="40.895340" lon="0.728500">
						<ele>106</ele>
						<time>2026-04-30T12:14:01Z</time>
					</trkpt>
					<trkpt lat="40.895370" lon="0.728470">
						<ele>106</ele>
						<time>2026-04-30T12:14:02Z</time>
					</trkpt>
					<trkpt lat="40.895420" lon="0.728500">
						<ele>106</ele>
						<time>2026-04-30T12:14:03Z</time>
					</trkpt>
					<trkpt lat="40.895590" lon="0.728650">
						<ele>105</ele>
						<time>2026-04-30T12:14:06Z</time>
					</trkpt>
					<trkpt lat="40.897480" lon="0.730520">
						<ele>101</ele>
						<time>2026-04-30T12:14:48Z</time>
					</trkpt>
					<trkpt lat="40.898490" lon="0.731530">
						<ele>101</ele>
						<time>2026-04-30T12:15:11Z</time>
					</trkpt>
					<trkpt lat="40.898850" lon="0.731770">
						<ele>102</ele>
						<time>2026-04-30T12:15:18Z</time>
					</trkpt>
					<trkpt lat="40.899250" lon="0.732010">
						<ele>102</ele>
						<time>2026-04-30T12:15:26Z</time>
					</trkpt>
					<trkpt lat="40.899700" lon="0.732270">
						<ele>103</ele>
						<time>2026-04-30T12:15:35Z</time>
					</trkpt>
					<trkpt lat="40.900000" lon="0.732460">
						<ele>103</ele>
						<time>2026-04-30T12:15:41Z</time>
					</trkpt>
					<trkpt lat="40.900850" lon="0.733490">
						<ele>102</ele>
						<time>2026-04-30T12:16:01Z</time>
					</trkpt>
					<trkpt lat="40.901390" lon="0.734340">
						<ele>102</ele>
						<time>2026-04-30T12:16:16Z</time>
					</trkpt>
					<trkpt lat="40.902210" lon="0.735640">
						<ele>101</ele>
						<time>2026-04-30T12:16:39Z</time>
					</trkpt>
					<trkpt lat="40.903250" lon="0.736920">
						<ele>98</ele>
						<time>2026-04-30T12:17:04Z</time>
					</trkpt>
					<trkpt lat="40.903770" lon="0.737780">
						<ele>95</ele>
						<time>2026-04-30T12:17:19Z</time>
					</trkpt>
					<trkpt lat="40.904370" lon="0.738860">
						<ele>92</ele>
						<time>2026-04-30T12:17:37Z</time>
					</trkpt>
					<trkpt lat="40.904830" lon="0.739560">
						<ele>91</ele>
						<time>2026-04-30T12:17:49Z</time>
					</trkpt>
					<trkpt lat="40.904890" lon="0.739650">
						<ele>91</ele>
						<time>2026-04-30T12:17:51Z</time>
					</trkpt>
					<trkpt lat="40.905150" lon="0.740050">
						<ele>90</ele>
						<time>2026-04-30T12:17:58Z</time>
					</trkpt>
					<trkpt lat="40.905280" lon="0.740230">
						<ele>90</ele>
						<time>2026-04-30T12:18:01Z</time>
					</trkpt>
					<trkpt lat="40.906040" lon="0.740500">
						<ele>91</ele>
						<time>2026-04-30T12:18:15Z</time>
					</trkpt>
					<trkpt lat="40.906250" lon="0.740580">
						<ele>92</ele>
						<time>2026-04-30T12:18:19Z</time>
					</trkpt>
					<trkpt lat="40.906500" lon="0.740720">
						<ele>93</ele>
						<time>2026-04-30T12:18:24Z</time>
					</trkpt>
					<trkpt lat="40.906650" lon="0.740880">
						<ele>94</ele>
						<time>2026-04-30T12:18:28Z</time>
					</trkpt>
					<trkpt lat="40.906720" lon="0.740980">
						<ele>94</ele>
						<time>2026-04-30T12:18:29Z</time>
					</trkpt>
					<trkpt lat="40.907550" lon="0.742400">
						<ele>98</ele>
						<time>2026-04-30T12:18:54Z</time>
					</trkpt>
					<trkpt lat="40.908020" lon="0.743200">
						<ele>98</ele>
						<time>2026-04-30T12:19:07Z</time>
					</trkpt>
					<trkpt lat="40.908380" lon="0.743780">
						<ele>98</ele>
						<time>2026-04-30T12:19:17Z</time>
					</trkpt>
					<trkpt lat="40.909460" lon="0.745590">
						<ele>98</ele>
						<time>2026-04-30T12:19:48Z</time>
					</trkpt>
					<trkpt lat="40.909640" lon="0.745800">
						<ele>99</ele>
						<time>2026-04-30T12:19:53Z</time>
					</trkpt>
					<trkpt lat="40.909860" lon="0.746000">
						<ele>99</ele>
						<time>2026-04-30T12:19:57Z</time>
					</trkpt>
					<trkpt lat="40.910010" lon="0.746130">
						<ele>99</ele>
						<time>2026-04-30T12:20:00Z</time>
					</trkpt>
					<trkpt lat="40.910720" lon="0.746750">
						<ele>99</ele>
						<time>2026-04-30T12:20:16Z</time>
					</trkpt>
					<trkpt lat="40.910900" lon="0.746890">
						<ele>99</ele>
						<time>2026-04-30T12:20:19Z</time>
					</trkpt>
					<trkpt lat="40.910980" lon="0.746940">
						<ele>98</ele>
						<time>2026-04-30T12:20:21Z</time>
					</trkpt>
					<trkpt lat="40.911080" lon="0.746990">
						<ele>98</ele>
						<time>2026-04-30T12:20:23Z</time>
					</trkpt>
					<trkpt lat="40.911200" lon="0.747070">
						<ele>98</ele>
						<time>2026-04-30T12:20:25Z</time>
					</trkpt>
					<trkpt lat="40.911230" lon="0.747100">
						<ele>98</ele>
						<time>2026-04-30T12:20:26Z</time>
					</trkpt>
					<trkpt lat="40.911250" lon="0.747140">
						<ele>98</ele>
						<time>2026-04-30T12:20:26Z</time>
					</trkpt>
					<trkpt lat="40.911270" lon="0.747240">
						<ele>97</ele>
						<time>2026-04-30T12:20:28Z</time>
					</trkpt>
					<trkpt lat="40.911270" lon="0.747500">
						<ele>97</ele>
						<time>2026-04-30T12:20:31Z</time>
					</trkpt>
					<trkpt lat="40.911230" lon="0.748010">
						<ele>96</ele>
						<time>2026-04-30T12:20:38Z</time>
					</trkpt>
					<trkpt lat="40.911190" lon="0.748230">
						<ele>96</ele>
						<time>2026-04-30T12:20:41Z</time>
					</trkpt>
					<trkpt lat="40.911120" lon="0.748550">
						<ele>95</ele>
						<time>2026-04-30T12:20:46Z</time>
					</trkpt>
					<trkpt lat="40.911110" lon="0.748680">
						<ele>95</ele>
						<time>2026-04-30T12:20:48Z</time>
					</trkpt>
					<trkpt lat="40.911090" lon="0.748950">
						<ele>94</ele>
						<time>2026-04-30T12:20:51Z</time>
					</trkpt>
					<trkpt lat="40.911090" lon="0.749120">
						<ele>93</ele>
						<time>2026-04-30T12:20:53Z</time>
					</trkpt>
					<trkpt lat="40.911100" lon="0.749260">
						<ele>93</ele>
						<time>2026-04-30T12:20:55Z</time>
					</trkpt>
					<trkpt lat="40.911120" lon="0.749370">
						<ele>94</ele>
						<time>2026-04-30T12:20:57Z</time>
					</trkpt>
					<trkpt lat="40.911160" lon="0.749490">
						<ele>94</ele>
						<time>2026-04-30T12:20:59Z</time>
					</trkpt>
					<trkpt lat="40.911180" lon="0.749510">
						<ele>94</ele>
						<time>2026-04-30T12:20:59Z</time>
					</trkpt>
					<trkpt lat="40.911250" lon="0.749560">
						<ele>94</ele>
						<time>2026-04-30T12:21:01Z</time>
					</trkpt>
					<trkpt lat="40.911310" lon="0.749580">
						<ele>94</ele>
						<time>2026-04-30T12:21:02Z</time>
					</trkpt>
					<trkpt lat="40.911440" lon="0.749590">
						<ele>94</ele>
						<time>2026-04-30T12:21:04Z</time>
					</trkpt>
					<trkpt lat="40.911880" lon="0.749590">
						<ele>96</ele>
						<time>2026-04-30T12:21:12Z</time>
					</trkpt>
					<trkpt lat="40.911980" lon="0.749600">
						<ele>96</ele>
						<time>2026-04-30T12:21:14Z</time>
					</trkpt>
					<trkpt lat="40.912060" lon="0.749650">
						<ele>96</ele>
						<time>2026-04-30T12:21:15Z</time>
					</trkpt>
					<trkpt lat="40.912170" lon="0.749730">
						<ele>97</ele>
						<time>2026-04-30T12:21:17Z</time>
					</trkpt>
					<trkpt lat="40.912360" lon="0.749940">
						<ele>98</ele>
						<time>2026-04-30T12:21:22Z</time>
					</trkpt>
					<trkpt lat="40.912460" lon="0.750060">
						<ele>98</ele>
						<time>2026-04-30T12:21:24Z</time>
					</trkpt>
					<trkpt lat="40.912490" lon="0.750120">
						<ele>99</ele>
						<time>2026-04-30T12:21:25Z</time>
					</trkpt>
					<trkpt lat="40.912540" lon="0.750260">
						<ele>99</ele>
						<time>2026-04-30T12:21:27Z</time>
					</trkpt>
					<trkpt lat="40.912590" lon="0.750390">
						<ele>100</ele>
						<time>2026-04-30T12:21:29Z</time>
					</trkpt>
					<trkpt lat="40.912660" lon="0.750620">
						<ele>101</ele>
						<time>2026-04-30T12:21:32Z</time>
					</trkpt>
					<trkpt lat="40.912800" lon="0.751120">
						<ele>102</ele>
						<time>2026-04-30T12:21:40Z</time>
					</trkpt>
					<trkpt lat="40.912830" lon="0.751220">
						<ele>102</ele>
						<time>2026-04-30T12:21:41Z</time>
					</trkpt>
					<trkpt lat="40.912850" lon="0.751370">
						<ele>101</ele>
						<time>2026-04-30T12:21:43Z</time>
					</trkpt>
					<trkpt lat="40.912850" lon="0.751470">
						<ele>101</ele>
						<time>2026-04-30T12:21:45Z</time>
					</trkpt>
					<trkpt lat="40.912840" lon="0.751690">
						<ele>100</ele>
						<time>2026-04-30T12:21:47Z</time>
					</trkpt>
					<trkpt lat="40.912680" lon="0.752650">
						<ele>94</ele>
						<time>2026-04-30T12:22:01Z</time>
					</trkpt>
					<trkpt lat="40.912660" lon="0.752780">
						<ele>93</ele>
						<time>2026-04-30T12:22:02Z</time>
					</trkpt>
					<trkpt lat="40.912660" lon="0.752920">
						<ele>92</ele>
						<time>2026-04-30T12:22:04Z</time>
					</trkpt>
					<trkpt lat="40.912660" lon="0.752980">
						<ele>92</ele>
						<time>2026-04-30T12:22:05Z</time>
					</trkpt>
					<trkpt lat="40.912690" lon="0.753090">
						<ele>91</ele>
						<time>2026-04-30T12:22:07Z</time>
					</trkpt>
					<trkpt lat="40.913130" lon="0.754020">
						<ele>88</ele>
						<time>2026-04-30T12:22:21Z</time>
					</trkpt>
					<trkpt lat="40.913250" lon="0.754240">
						<ele>88</ele>
						<time>2026-04-30T12:22:25Z</time>
					</trkpt>
					<trkpt lat="40.913480" lon="0.754620">
						<ele>88</ele>
						<time>2026-04-30T12:22:32Z</time>
					</trkpt>
					<trkpt lat="40.913540" lon="0.754760">
						<ele>88</ele>
						<time>2026-04-30T12:22:34Z</time>
					</trkpt>
					<trkpt lat="40.913610" lon="0.755030">
						<ele>89</ele>
						<time>2026-04-30T12:22:38Z</time>
					</trkpt>
					<trkpt lat="40.913660" lon="0.755090">
						<ele>90</ele>
						<time>2026-04-30T12:22:39Z</time>
					</trkpt>
					<trkpt lat="40.913700" lon="0.755110">
						<ele>90</ele>
						<time>2026-04-30T12:22:40Z</time>
					</trkpt>
					<trkpt lat="40.913780" lon="0.755110">
						<ele>90</ele>
						<time>2026-04-30T12:22:41Z</time>
					</trkpt>
					<trkpt lat="40.913830" lon="0.755090">
						<ele>91</ele>
						<time>2026-04-30T12:22:42Z</time>
					</trkpt>
					<trkpt lat="40.914090" lon="0.754940">
						<ele>91</ele>
						<time>2026-04-30T12:22:47Z</time>
					</trkpt>
					<trkpt lat="40.914250" lon="0.754850">
						<ele>92</ele>
						<time>2026-04-30T12:22:50Z</time>
					</trkpt>
					<trkpt lat="40.914310" lon="0.754830">
						<ele>92</ele>
						<time>2026-04-30T12:22:51Z</time>
					</trkpt>
					<trkpt lat="40.914390" lon="0.754840">
						<ele>93</ele>
						<time>2026-04-30T12:22:53Z</time>
					</trkpt>
					<trkpt lat="40.914470" lon="0.754890">
						<ele>93</ele>
						<time>2026-04-30T12:22:54Z</time>
					</trkpt>
					<trkpt lat="40.914590" lon="0.755130">
						<ele>94</ele>
						<time>2026-04-30T12:22:58Z</time>
					</trkpt>
					<trkpt lat="40.914700" lon="0.755380">
						<ele>95</ele>
						<time>2026-04-30T12:23:02Z</time>
					</trkpt>
					<trkpt lat="40.914960" lon="0.755960">
						<ele>98</ele>
						<time>2026-04-30T12:23:11Z</time>
					</trkpt>
					<trkpt lat="40.914990" lon="0.756010">
						<ele>98</ele>
						<time>2026-04-30T12:23:12Z</time>
					</trkpt>
					<trkpt lat="40.915080" lon="0.756110">
						<ele>99</ele>
						<time>2026-04-30T12:23:14Z</time>
					</trkpt>
					<trkpt lat="40.915160" lon="0.756170">
						<ele>99</ele>
						<time>2026-04-30T12:23:16Z</time>
					</trkpt>
					<trkpt lat="40.915240" lon="0.756220">
						<ele>99</ele>
						<time>2026-04-30T12:23:17Z</time>
					</trkpt>
					<trkpt lat="40.915450" lon="0.756320">
						<ele>100</ele>
						<time>2026-04-30T12:23:21Z</time>
					</trkpt>
					<trkpt lat="40.917120" lon="0.757120">
						<ele>107</ele>
						<time>2026-04-30T12:23:53Z</time>
					</trkpt>
					<trkpt lat="40.917200" lon="0.757170">
						<ele>107</ele>
						<time>2026-04-30T12:23:54Z</time>
					</trkpt>
					<trkpt lat="40.917290" lon="0.757250">
						<ele>108</ele>
						<time>2026-04-30T12:23:56Z</time>
					</trkpt>
					<trkpt lat="40.918350" lon="0.758210">
						<ele>113</ele>
						<time>2026-04-30T12:24:19Z</time>
					</trkpt>
					<trkpt lat="40.918570" lon="0.758400">
						<ele>113</ele>
						<time>2026-04-30T12:24:24Z</time>
					</trkpt>
					<trkpt lat="40.918690" lon="0.758510">
						<ele>113</ele>
						<time>2026-04-30T12:24:26Z</time>
					</trkpt>
					<trkpt lat="40.918830" lon="0.758640">
						<ele>114</ele>
						<time>2026-04-30T12:24:29Z</time>
					</trkpt>
					<trkpt lat="40.919780" lon="0.759490">
						<ele>115</ele>
						<time>2026-04-30T12:24:50Z</time>
					</trkpt>
					<trkpt lat="40.923060" lon="0.762330">
						<ele>126</ele>
						<time>2026-04-30T12:26:00Z</time>
					</trkpt>
					<trkpt lat="40.923110" lon="0.762370">
						<ele>127</ele>
						<time>2026-04-30T12:26:01Z</time>
					</trkpt>
					<trkpt lat="40.923280" lon="0.762490">
						<ele>127</ele>
						<time>2026-04-30T12:26:04Z</time>
					</trkpt>
					<trkpt lat="40.923490" lon="0.762580">
						<ele>126</ele>
						<time>2026-04-30T12:26:08Z</time>
					</trkpt>
					<trkpt lat="40.923590" lon="0.762610">
						<ele>126</ele>
						<time>2026-04-30T12:26:10Z</time>
					</trkpt>
					<trkpt lat="40.924470" lon="0.762740">
						<ele>122</ele>
						<time>2026-04-30T12:26:26Z</time>
					</trkpt>
					<trkpt lat="40.924550" lon="0.762760">
						<ele>121</ele>
						<time>2026-04-30T12:26:27Z</time>
					</trkpt>
					<trkpt lat="40.924660" lon="0.762810">
						<ele>120</ele>
						<time>2026-04-30T12:26:29Z</time>
					</trkpt>
					<trkpt lat="40.924770" lon="0.762880">
						<ele>119</ele>
						<time>2026-04-30T12:26:31Z</time>
					</trkpt>
					<trkpt lat="40.924810" lon="0.762940">
						<ele>118</ele>
						<time>2026-04-30T12:26:32Z</time>
					</trkpt>
					<trkpt lat="40.924840" lon="0.762980">
						<ele>117</ele>
						<time>2026-04-30T12:26:33Z</time>
					</trkpt>
					<trkpt lat="40.924860" lon="0.763070">
						<ele>116</ele>
						<time>2026-04-30T12:26:34Z</time>
					</trkpt>
					<trkpt lat="40.924870" lon="0.763140">
						<ele>116</ele>
						<time>2026-04-30T12:26:35Z</time>
					</trkpt>
					<trkpt lat="40.924880" lon="0.763250">
						<ele>115</ele>
						<time>2026-04-30T12:26:37Z</time>
					</trkpt>
					<trkpt lat="40.924870" lon="0.763310">
						<ele>114</ele>
						<time>2026-04-30T12:26:38Z</time>
					</trkpt>
					<trkpt lat="40.924840" lon="0.763440">
						<ele>113</ele>
						<time>2026-04-30T12:26:39Z</time>
					</trkpt>
					<trkpt lat="40.924810" lon="0.763510">
						<ele>112</ele>
						<time>2026-04-30T12:26:41Z</time>
					</trkpt>
					<trkpt lat="40.924740" lon="0.763610">
						<ele>111</ele>
						<time>2026-04-30T12:26:42Z</time>
					</trkpt>
					<trkpt lat="40.924650" lon="0.763670">
						<ele>110</ele>
						<time>2026-04-30T12:26:44Z</time>
					</trkpt>
					<trkpt lat="40.924540" lon="0.763700">
						<ele>110</ele>
						<time>2026-04-30T12:26:46Z</time>
					</trkpt>
					<trkpt lat="40.924480" lon="0.763710">
						<ele>110</ele>
						<time>2026-04-30T12:26:47Z</time>
					</trkpt>
					<trkpt lat="40.924090" lon="0.763710">
						<ele>110</ele>
						<time>2026-04-30T12:26:54Z</time>
					</trkpt>
					<trkpt lat="40.923940" lon="0.763730">
						<ele>110</ele>
						<time>2026-04-30T12:26:57Z</time>
					</trkpt>
					<trkpt lat="40.923830" lon="0.763770">
						<ele>110</ele>
						<time>2026-04-30T12:26:59Z</time>
					</trkpt>
					<trkpt lat="40.923760" lon="0.763820">
						<ele>110</ele>
						<time>2026-04-30T12:27:00Z</time>
					</trkpt>
					<trkpt lat="40.923690" lon="0.763870">
						<ele>110</ele>
						<time>2026-04-30T12:27:02Z</time>
					</trkpt>
					<trkpt lat="40.923600" lon="0.763990">
						<ele>108</ele>
						<time>2026-04-30T12:27:04Z</time>
					</trkpt>
					<trkpt lat="40.923540" lon="0.764090">
						<ele>107</ele>
						<time>2026-04-30T12:27:06Z</time>
					</trkpt>
					<trkpt lat="40.923370" lon="0.764430">
						<ele>106</ele>
						<time>2026-04-30T12:27:11Z</time>
					</trkpt>
					<trkpt lat="40.923160" lon="0.764890">
						<ele>104</ele>
						<time>2026-04-30T12:27:18Z</time>
					</trkpt>
					<trkpt lat="40.922830" lon="0.765620">
						<ele>105</ele>
						<time>2026-04-30T12:27:30Z</time>
					</trkpt>
					<trkpt lat="40.922760" lon="0.765830">
						<ele>106</ele>
						<time>2026-04-30T12:27:33Z</time>
					</trkpt>
					<trkpt lat="40.922750" lon="0.765980">
						<ele>106</ele>
						<time>2026-04-30T12:27:35Z</time>
					</trkpt>
					<trkpt lat="40.922770" lon="0.766250">
						<ele>106</ele>
						<time>2026-04-30T12:27:39Z</time>
					</trkpt>
					<trkpt lat="40.922790" lon="0.766420">
						<ele>106</ele>
						<time>2026-04-30T12:27:41Z</time>
					</trkpt>
					<trkpt lat="40.922870" lon="0.766790">
						<ele>107</ele>
						<time>2026-04-30T12:27:46Z</time>
					</trkpt>
					<trkpt lat="40.922950" lon="0.767100">
						<ele>108</ele>
						<time>2026-04-30T12:27:51Z</time>
					</trkpt>
					<trkpt lat="40.923090" lon="0.767490">
						<ele>110</ele>
						<time>2026-04-30T12:27:56Z</time>
					</trkpt>
					<trkpt lat="40.923150" lon="0.767650">
						<ele>111</ele>
						<time>2026-04-30T12:27:59Z</time>
					</trkpt>
					<trkpt lat="40.923190" lon="0.767700">
						<ele>112</ele>
						<time>2026-04-30T12:28:00Z</time>
					</trkpt>
					<trkpt lat="40.923250" lon="0.767750">
						<ele>113</ele>
						<time>2026-04-30T12:28:01Z</time>
					</trkpt>
					<trkpt lat="40.923280" lon="0.767770">
						<ele>113</ele>
						<time>2026-04-30T12:28:02Z</time>
					</trkpt>
					<trkpt lat="40.923360" lon="0.767770">
						<ele>114</ele>
						<time>2026-04-30T12:28:03Z</time>
					</trkpt>
					<trkpt lat="40.923440" lon="0.767760">
						<ele>114</ele>
						<time>2026-04-30T12:28:04Z</time>
					</trkpt>
					<trkpt lat="40.924270" lon="0.767600">
						<ele>120</ele>
						<time>2026-04-30T12:28:19Z</time>
					</trkpt>
					<trkpt lat="40.924450" lon="0.767590">
						<ele>121</ele>
						<time>2026-04-30T12:28:23Z</time>
					</trkpt>
					<trkpt lat="40.924550" lon="0.767620">
						<ele>122</ele>
						<time>2026-04-30T12:28:24Z</time>
					</trkpt>
					<trkpt lat="40.924610" lon="0.767650">
						<ele>122</ele>
						<time>2026-04-30T12:28:26Z</time>
					</trkpt>
					<trkpt lat="40.924670" lon="0.767710">
						<ele>123</ele>
						<time>2026-04-30T12:28:27Z</time>
					</trkpt>
					<trkpt lat="40.924750" lon="0.767790">
						<ele>124</ele>
						<time>2026-04-30T12:28:29Z</time>
					</trkpt>
					<trkpt lat="40.925690" lon="0.768950">
						<ele>129</ele>
						<time>2026-04-30T12:28:52Z</time>
					</trkpt>
					<trkpt lat="40.926440" lon="0.769880">
						<ele>129</ele>
						<time>2026-04-30T12:29:10Z</time>
					</trkpt>
					<trkpt lat="40.927010" lon="0.770600">
						<ele>128</ele>
						<time>2026-04-30T12:29:24Z</time>
					</trkpt>
					<trkpt lat="40.927090" lon="0.770720">
						<ele>128</ele>
						<time>2026-04-30T12:29:26Z</time>
					</trkpt>
					<trkpt lat="40.927160" lon="0.770880">
						<ele>128</ele>
						<time>2026-04-30T12:29:28Z</time>
					</trkpt>
					<trkpt lat="40.927220" lon="0.771050">
						<ele>127</ele>
						<time>2026-04-30T12:29:31Z</time>
					</trkpt>
					<trkpt lat="40.927290" lon="0.771350">
						<ele>126</ele>
						<time>2026-04-30T12:29:35Z</time>
					</trkpt>
					<trkpt lat="40.927940" lon="0.774640">
						<ele>130</ele>
						<time>2026-04-30T12:30:21Z</time>
					</trkpt>
					<trkpt lat="40.927980" lon="0.774830">
						<ele>130</ele>
						<time>2026-04-30T12:30:24Z</time>
					</trkpt>
					<trkpt lat="40.928220" lon="0.776050">
						<ele>133</ele>
						<time>2026-04-30T12:30:41Z</time>
					</trkpt>
					<trkpt lat="40.928270" lon="0.776320">
						<ele>133</ele>
						<time>2026-04-30T12:30:44Z</time>
					</trkpt>
					<trkpt lat="40.928390" lon="0.776940">
						<ele>134</ele>
						<time>2026-04-30T12:30:53Z</time>
					</trkpt>
					<trkpt lat="40.928410" lon="0.777080">
						<ele>134</ele>
						<time>2026-04-30T12:30:55Z</time>
					</trkpt>
					<trkpt lat="40.928440" lon="0.777170">
						<ele>135</ele>
						<time>2026-04-30T12:30:56Z</time>
					</trkpt>
					<trkpt lat="40.928530" lon="0.777370">
						<ele>136</ele>
						<time>2026-04-30T12:30:59Z</time>
					</trkpt>
					<trkpt lat="40.928600" lon="0.777470">
						<ele>137</ele>
						<time>2026-04-30T12:31:01Z</time>
					</trkpt>
					<trkpt lat="40.928660" lon="0.777550">
						<ele>137</ele>
						<time>2026-04-30T12:31:03Z</time>
					</trkpt>
					<trkpt lat="40.928740" lon="0.777610">
						<ele>138</ele>
						<time>2026-04-30T12:31:04Z</time>
					</trkpt>
					<trkpt lat="40.929000" lon="0.777770">
						<ele>140</ele>
						<time>2026-04-30T12:31:09Z</time>
					</trkpt>
					<trkpt lat="40.929180" lon="0.777870">
						<ele>141</ele>
						<time>2026-04-30T12:31:13Z</time>
					</trkpt>
					<trkpt lat="40.929360" lon="0.777950">
						<ele>141</ele>
						<time>2026-04-30T12:31:16Z</time>
					</trkpt>
					<trkpt lat="40.929640" lon="0.778020">
						<ele>141</ele>
						<time>2026-04-30T12:31:21Z</time>
					</trkpt>
					<trkpt lat="40.929750" lon="0.778030">
						<ele>142</ele>
						<time>2026-04-30T12:31:23Z</time>
					</trkpt>
					<trkpt lat="40.929830" lon="0.778010">
						<ele>142</ele>
						<time>2026-04-30T12:31:25Z</time>
					</trkpt>
					<trkpt lat="40.929980" lon="0.777930">
						<ele>143</ele>
						<time>2026-04-30T12:31:28Z</time>
					</trkpt>
					<trkpt lat="40.930040" lon="0.777910">
						<ele>143</ele>
						<time>2026-04-30T12:31:29Z</time>
					</trkpt>
					<trkpt lat="40.930100" lon="0.777900">
						<ele>144</ele>
						<time>2026-04-30T12:31:30Z</time>
					</trkpt>
					<trkpt lat="40.930180" lon="0.777940">
						<ele>144</ele>
						<time>2026-04-30T12:31:31Z</time>
					</trkpt>
					<trkpt lat="40.930180" lon="0.777940">
						<ele>144</ele>
						<time>2026-04-30T12:31:31Z</time>
					</trkpt>
					<trkpt lat="40.930240" lon="0.778030">
						<ele>144</ele>
						<time>2026-04-30T12:31:33Z</time>
					</trkpt>
					<trkpt lat="40.930260" lon="0.778100">
						<ele>144</ele>
						<time>2026-04-30T12:31:34Z</time>
					</trkpt>
					<trkpt lat="40.930270" lon="0.778160">
						<ele>144</ele>
						<time>2026-04-30T12:31:35Z</time>
					</trkpt>
					<trkpt lat="40.930260" lon="0.778240">
						<ele>144</ele>
						<time>2026-04-30T12:31:36Z</time>
					</trkpt>
					<trkpt lat="40.930240" lon="0.778340">
						<ele>143</ele>
						<time>2026-04-30T12:31:37Z</time>
					</trkpt>
					<trkpt lat="40.930220" lon="0.778420">
						<ele>143</ele>
						<time>2026-04-30T12:31:38Z</time>
					</trkpt>
					<trkpt lat="40.930150" lon="0.778570">
						<ele>143</ele>
						<time>2026-04-30T12:31:41Z</time>
					</trkpt>
					<trkpt lat="40.929880" lon="0.779030">
						<ele>141</ele>
						<time>2026-04-30T12:31:48Z</time>
					</trkpt>
					<trkpt lat="40.929530" lon="0.779690">
						<ele>137</ele>
						<time>2026-04-30T12:31:59Z</time>
					</trkpt>
					<trkpt lat="40.929490" lon="0.779770">
						<ele>137</ele>
						<time>2026-04-30T12:32:01Z</time>
					</trkpt>
					<trkpt lat="40.929470" lon="0.779850">
						<ele>136</ele>
						<time>2026-04-30T12:32:02Z</time>
					</trkpt>
					<trkpt lat="40.929470" lon="0.779960">
						<ele>136</ele>
						<time>2026-04-30T12:32:03Z</time>
					</trkpt>
					<trkpt lat="40.929590" lon="0.780300">
						<ele>135</ele>
						<time>2026-04-30T12:32:08Z</time>
					</trkpt>
					<trkpt lat="40.929620" lon="0.780430">
						<ele>135</ele>
						<time>2026-04-30T12:32:10Z</time>
					</trkpt>
					<trkpt lat="40.929610" lon="0.780610">
						<ele>134</ele>
						<time>2026-04-30T12:32:13Z</time>
					</trkpt>
					<trkpt lat="40.929510" lon="0.781030">
						<ele>132</ele>
						<time>2026-04-30T12:32:18Z</time>
					</trkpt>
					<trkpt lat="40.929500" lon="0.781090">
						<ele>131</ele>
						<time>2026-04-30T12:32:19Z</time>
					</trkpt>
					<trkpt lat="40.929510" lon="0.781150">
						<ele>131</ele>
						<time>2026-04-30T12:32:20Z</time>
					</trkpt>
					<trkpt lat="40.929550" lon="0.781260">
						<ele>130</ele>
						<time>2026-04-30T12:32:22Z</time>
					</trkpt>
					<trkpt lat="40.929590" lon="0.781320">
						<ele>130</ele>
						<time>2026-04-30T12:32:23Z</time>
					</trkpt>
					<trkpt lat="40.929650" lon="0.781360">
						<ele>130</ele>
						<time>2026-04-30T12:32:24Z</time>
					</trkpt>
					<trkpt lat="40.929730" lon="0.781420">
						<ele>130</ele>
						<time>2026-04-30T12:32:26Z</time>
					</trkpt>
					<trkpt lat="40.930140" lon="0.781630">
						<ele>129</ele>
						<time>2026-04-30T12:32:33Z</time>
					</trkpt>
					<trkpt lat="40.930310" lon="0.781730">
						<ele>130</ele>
						<time>2026-04-30T12:32:37Z</time>
					</trkpt>
					<trkpt lat="40.930410" lon="0.781810">
						<ele>130</ele>
						<time>2026-04-30T12:32:39Z</time>
					</trkpt>
					<trkpt lat="40.930490" lon="0.781900">
						<ele>131</ele>
						<time>2026-04-30T12:32:41Z</time>
					</trkpt>
					<trkpt lat="40.930540" lon="0.781990">
						<ele>131</ele>
						<time>2026-04-30T12:32:42Z</time>
					</trkpt>
					<trkpt lat="40.930600" lon="0.782090">
						<ele>131</ele>
						<time>2026-04-30T12:32:44Z</time>
					</trkpt>
					<trkpt lat="40.931050" lon="0.783040">
						<ele>133</ele>
						<time>2026-04-30T12:32:59Z</time>
					</trkpt>
					<trkpt lat="40.931140" lon="0.783230">
						<ele>134</ele>
						<time>2026-04-30T12:33:02Z</time>
					</trkpt>
					<trkpt lat="40.931180" lon="0.783330">
						<ele>134</ele>
						<time>2026-04-30T12:33:04Z</time>
					</trkpt>
					<trkpt lat="40.931210" lon="0.783440">
						<ele>135</ele>
						<time>2026-04-30T12:33:05Z</time>
					</trkpt>
					<trkpt lat="40.931300" lon="0.783840">
						<ele>136</ele>
						<time>2026-04-30T12:33:11Z</time>
					</trkpt>
					<trkpt lat="40.931510" lon="0.785040">
						<ele>138</ele>
						<time>2026-04-30T12:33:27Z</time>
					</trkpt>
					<trkpt lat="40.931590" lon="0.785580">
						<ele>138</ele>
						<time>2026-04-30T12:33:35Z</time>
					</trkpt>
					<trkpt lat="40.931630" lon="0.785880">
						<ele>138</ele>
						<time>2026-04-30T12:33:39Z</time>
					</trkpt>
					<trkpt lat="40.931670" lon="0.786780">
						<ele>137</ele>
						<time>2026-04-30T12:33:51Z</time>
					</trkpt>
					<trkpt lat="40.931700" lon="0.787040">
						<ele>136</ele>
						<time>2026-04-30T12:33:54Z</time>
					</trkpt>
					<trkpt lat="40.931730" lon="0.787300">
						<ele>136</ele>
						<time>2026-04-30T12:33:58Z</time>
					</trkpt>
					<trkpt lat="40.931810" lon="0.787710">
						<ele>134</ele>
						<time>2026-04-30T12:34:04Z</time>
					</trkpt>
					<trkpt lat="40.932280" lon="0.790260">
						<ele>128</ele>
						<time>2026-04-30T12:34:39Z</time>
					</trkpt>
					<trkpt lat="40.932610" lon="0.792070">
						<ele>126</ele>
						<time>2026-04-30T12:35:04Z</time>
					</trkpt>
					<trkpt lat="40.932680" lon="0.792440">
						<ele>125</ele>
						<time>2026-04-30T12:35:09Z</time>
					</trkpt>
					<trkpt lat="40.932780" lon="0.792730">
						<ele>124</ele>
						<time>2026-04-30T12:35:13Z</time>
					</trkpt>
					<trkpt lat="40.933030" lon="0.793320">
						<ele>122</ele>
						<time>2026-04-30T12:35:22Z</time>
					</trkpt>
					<trkpt lat="40.933140" lon="0.793660">
						<ele>120</ele>
						<time>2026-04-30T12:35:27Z</time>
					</trkpt>
					<trkpt lat="40.933400" lon="0.794730">
						<ele>117</ele>
						<time>2026-04-30T12:35:43Z</time>
					</trkpt>
					<trkpt lat="40.933580" lon="0.795430">
						<ele>115</ele>
						<time>2026-04-30T12:35:52Z</time>
					</trkpt>
					<trkpt lat="40.933620" lon="0.795610">
						<ele>115</ele>
						<time>2026-04-30T12:35:55Z</time>
					</trkpt>
					<trkpt lat="40.933670" lon="0.795710">
						<ele>114</ele>
						<time>2026-04-30T12:35:57Z</time>
					</trkpt>
					<trkpt lat="40.933720" lon="0.795770">
						<ele>114</ele>
						<time>2026-04-30T12:35:58Z</time>
					</trkpt>
					<trkpt lat="40.933770" lon="0.795800">
						<ele>114</ele>
						<time>2026-04-30T12:35:59Z</time>
					</trkpt>
					<trkpt lat="40.933830" lon="0.795810">
						<ele>113</ele>
						<time>2026-04-30T12:36:00Z</time>
					</trkpt>
					<trkpt lat="40.933890" lon="0.795810">
						<ele>113</ele>
						<time>2026-04-30T12:36:01Z</time>
					</trkpt>
					<trkpt lat="40.934170" lon="0.795700">
						<ele>113</ele>
						<time>2026-04-30T12:36:06Z</time>
					</trkpt>
					<trkpt lat="40.934260" lon="0.795680">
						<ele>113</ele>
						<time>2026-04-30T12:36:08Z</time>
					</trkpt>
					<trkpt lat="40.934330" lon="0.795670">
						<ele>114</ele>
						<time>2026-04-30T12:36:09Z</time>
					</trkpt>
					<trkpt lat="40.934410" lon="0.795690">
						<ele>114</ele>
						<time>2026-04-30T12:36:10Z</time>
					</trkpt>
					<trkpt lat="40.934470" lon="0.795730">
						<ele>114</ele>
						<time>2026-04-30T12:36:12Z</time>
					</trkpt>
					<trkpt lat="40.934520" lon="0.795780">
						<ele>114</ele>
						<time>2026-04-30T12:36:13Z</time>
					</trkpt>
					<trkpt lat="40.934580" lon="0.795910">
						<ele>114</ele>
						<time>2026-04-30T12:36:15Z</time>
					</trkpt>
					<trkpt lat="40.934610" lon="0.795990">
						<ele>114</ele>
						<time>2026-04-30T12:36:16Z</time>
					</trkpt>
					<trkpt lat="40.934630" lon="0.796120">
						<ele>114</ele>
						<time>2026-04-30T12:36:18Z</time>
					</trkpt>
					<trkpt lat="40.934660" lon="0.796410">
						<ele>113</ele>
						<time>2026-04-30T12:36:22Z</time>
					</trkpt>
					<trkpt lat="40.934710" lon="0.796580">
						<ele>113</ele>
						<time>2026-04-30T12:36:24Z</time>
					</trkpt>
					<trkpt lat="40.934760" lon="0.796690">
						<ele>114</ele>
						<time>2026-04-30T12:36:26Z</time>
					</trkpt>
					<trkpt lat="40.934870" lon="0.796830">
						<ele>114</ele>
						<time>2026-04-30T12:36:29Z</time>
					</trkpt>
					<trkpt lat="40.935060" lon="0.797010">
						<ele>115</ele>
						<time>2026-04-30T12:36:33Z</time>
					</trkpt>
					<trkpt lat="40.935180" lon="0.797110">
						<ele>115</ele>
						<time>2026-04-30T12:36:35Z</time>
					</trkpt>
					<trkpt lat="40.936030" lon="0.797560">
						<ele>115</ele>
						<time>2026-04-30T12:36:52Z</time>
					</trkpt>
					<trkpt lat="40.936970" lon="0.798120">
						<ele>122</ele>
						<time>2026-04-30T12:37:10Z</time>
					</trkpt>
					<trkpt lat="40.937490" lon="0.798450">
						<ele>126</ele>
						<time>2026-04-30T12:37:20Z</time>
					</trkpt>
					<trkpt lat="40.937650" lon="0.798570">
						<ele>127</ele>
						<time>2026-04-30T12:37:23Z</time>
					</trkpt>
					<trkpt lat="40.937800" lon="0.798710">
						<ele>129</ele>
						<time>2026-04-30T12:37:27Z</time>
					</trkpt>
					<trkpt lat="40.938090" lon="0.799050">
						<ele>132</ele>
						<time>2026-04-30T12:37:34Z</time>
					</trkpt>
					<trkpt lat="40.938560" lon="0.799650">
						<ele>136</ele>
						<time>2026-04-30T12:37:45Z</time>
					</trkpt>
					<trkpt lat="40.938660" lon="0.799810">
						<ele>136</ele>
						<time>2026-04-30T12:37:48Z</time>
					</trkpt>
					<trkpt lat="40.938770" lon="0.800030">
						<ele>137</ele>
						<time>2026-04-30T12:37:52Z</time>
					</trkpt>
					<trkpt lat="40.938960" lon="0.800460">
						<ele>138</ele>
						<time>2026-04-30T12:37:58Z</time>
					</trkpt>
					<trkpt lat="40.939140" lon="0.800840">
						<ele>138</ele>
						<time>2026-04-30T12:38:04Z</time>
					</trkpt>
					<trkpt lat="40.939270" lon="0.801100">
						<ele>137</ele>
						<time>2026-04-30T12:38:09Z</time>
					</trkpt>
					<trkpt lat="40.939790" lon="0.802240">
						<ele>137</ele>
						<time>2026-04-30T12:38:26Z</time>
					</trkpt>
					<trkpt lat="40.939860" lon="0.802620">
						<ele>136</ele>
						<time>2026-04-30T12:38:32Z</time>
					</trkpt>
					<trkpt lat="40.939900" lon="0.802840">
						<ele>136</ele>
						<time>2026-04-30T12:38:35Z</time>
					</trkpt>
					<trkpt lat="40.940010" lon="0.803910">
						<ele>132</ele>
						<time>2026-04-30T12:38:49Z</time>
					</trkpt>
					<trkpt lat="40.940050" lon="0.804560">
						<ele>129</ele>
						<time>2026-04-30T12:38:58Z</time>
					</trkpt>
					<trkpt lat="40.940110" lon="0.805610">
						<ele>121</ele>
						<time>2026-04-30T12:39:12Z</time>
					</trkpt>
					<trkpt lat="40.940170" lon="0.805790">
						<ele>120</ele>
						<time>2026-04-30T12:39:15Z</time>
					</trkpt>
					<trkpt lat="40.940300" lon="0.805750">
						<ele>120</ele>
						<time>2026-04-30T12:39:17Z</time>
					</trkpt>
					<trkpt lat="40.940590" lon="0.805530">
						<ele>122</ele>
						<time>2026-04-30T12:39:23Z</time>
					</trkpt>
					<trkpt lat="40.940710" lon="0.805560">
						<ele>122</ele>
						<time>2026-04-30T12:39:25Z</time>
					</trkpt>
					<trkpt lat="40.940860" lon="0.805810">
						<ele>120</ele>
						<time>2026-04-30T12:39:30Z</time>
					</trkpt>
					<trkpt lat="40.940910" lon="0.806170">
						<ele>121</ele>
						<time>2026-04-30T12:39:34Z</time>
					</trkpt>
					<trkpt lat="40.941010" lon="0.806430">
						<ele>122</ele>
						<time>2026-04-30T12:39:38Z</time>
					</trkpt>
					<trkpt lat="40.941080" lon="0.806510">
						<ele>122</ele>
						<time>2026-04-30T12:39:40Z</time>
					</trkpt>
					<trkpt lat="40.941320" lon="0.806780">
						<ele>124</ele>
						<time>2026-04-30T12:39:46Z</time>
					</trkpt>
					<trkpt lat="40.942320" lon="0.807960">
						<ele>123</ele>
						<time>2026-04-30T12:40:09Z</time>
					</trkpt>
					<trkpt lat="40.942450" lon="0.808150">
						<ele>124</ele>
						<time>2026-04-30T12:40:13Z</time>
					</trkpt>
					<trkpt lat="40.942540" lon="0.808370">
						<ele>125</ele>
						<time>2026-04-30T12:40:16Z</time>
					</trkpt>
					<trkpt lat="40.942610" lon="0.808680">
						<ele>126</ele>
						<time>2026-04-30T12:40:21Z</time>
					</trkpt>
					<trkpt lat="40.942650" lon="0.809060">
						<ele>127</ele>
						<time>2026-04-30T12:40:26Z</time>
					</trkpt>
					<trkpt lat="40.942740" lon="0.810210">
						<ele>123</ele>
						<time>2026-04-30T12:40:41Z</time>
					</trkpt>
					<trkpt lat="40.942730" lon="0.811050">
						<ele>122</ele>
						<time>2026-04-30T12:40:53Z</time>
					</trkpt>
					<trkpt lat="40.942710" lon="0.812090">
						<ele>123</ele>
						<time>2026-04-30T12:41:07Z</time>
					</trkpt>
					<trkpt lat="40.942690" lon="0.814720">
						<ele>119</ele>
						<time>2026-04-30T12:41:42Z</time>
					</trkpt>
					<trkpt lat="40.942710" lon="0.816120">
						<ele>117</ele>
						<time>2026-04-30T12:42:01Z</time>
					</trkpt>
					<trkpt lat="40.942720" lon="0.817630">
						<ele>112</ele>
						<time>2026-04-30T12:42:21Z</time>
					</trkpt>
					<trkpt lat="40.942720" lon="0.819990">
						<ele>104</ele>
						<time>2026-04-30T12:42:53Z</time>
					</trkpt>
					<trkpt lat="40.942730" lon="0.820600">
						<ele>101</ele>
						<time>2026-04-30T12:43:01Z</time>
					</trkpt>
					<trkpt lat="40.942750" lon="0.820860">
						<ele>99</ele>
						<time>2026-04-30T12:43:05Z</time>
					</trkpt>
					<trkpt lat="40.942770" lon="0.820990">
						<ele>99</ele>
						<time>2026-04-30T12:43:06Z</time>
					</trkpt>
					<trkpt lat="40.942890" lon="0.821710">
						<ele>95</ele>
						<time>2026-04-30T12:43:16Z</time>
					</trkpt>
					<trkpt lat="40.942890" lon="0.821830">
						<ele>94</ele>
						<time>2026-04-30T12:43:18Z</time>
					</trkpt>
					<trkpt lat="40.942860" lon="0.821930">
						<ele>93</ele>
						<time>2026-04-30T12:43:19Z</time>
					</trkpt>
					<trkpt lat="40.942810" lon="0.822020">
						<ele>93</ele>
						<time>2026-04-30T12:43:21Z</time>
					</trkpt>
					<trkpt lat="40.942750" lon="0.822090">
						<ele>92</ele>
						<time>2026-04-30T12:43:22Z</time>
					</trkpt>
					<trkpt lat="40.942360" lon="0.822480">
						<ele>91</ele>
						<time>2026-04-30T12:43:31Z</time>
					</trkpt>
					<trkpt lat="40.942270" lon="0.822590">
						<ele>90</ele>
						<time>2026-04-30T12:43:33Z</time>
					</trkpt>
					<trkpt lat="40.942110" lon="0.822850">
						<ele>88</ele>
						<time>2026-04-30T12:43:38Z</time>
					</trkpt>
					<trkpt lat="40.942000" lon="0.823070">
						<ele>88</ele>
						<time>2026-04-30T12:43:41Z</time>
					</trkpt>
					<trkpt lat="40.941920" lon="0.823260">
						<ele>87</ele>
						<time>2026-04-30T12:43:44Z</time>
					</trkpt>
					<trkpt lat="40.941900" lon="0.823350">
						<ele>87</ele>
						<time>2026-04-30T12:43:45Z</time>
					</trkpt>
					<trkpt lat="40.941880" lon="0.823710">
						<ele>84</ele>
						<time>2026-04-30T12:43:50Z</time>
					</trkpt>
					<trkpt lat="40.941860" lon="0.823810">
						<ele>83</ele>
						<time>2026-04-30T12:43:52Z</time>
					</trkpt>
					<trkpt lat="40.941820" lon="0.823920">
						<ele>83</ele>
						<time>2026-04-30T12:43:53Z</time>
					</trkpt>
					<trkpt lat="40.941380" lon="0.825060">
						<ele>77</ele>
						<time>2026-04-30T12:44:10Z</time>
					</trkpt>
					<trkpt lat="40.941180" lon="0.825640">
						<ele>76</ele>
						<time>2026-04-30T12:44:19Z</time>
					</trkpt>
					<trkpt lat="40.940870" lon="0.826350">
						<ele>72</ele>
						<time>2026-04-30T12:44:30Z</time>
					</trkpt>
					<trkpt lat="40.940810" lon="0.826510">
						<ele>71</ele>
						<time>2026-04-30T12:44:32Z</time>
					</trkpt>
					<trkpt lat="40.940740" lon="0.826840">
						<ele>71</ele>
						<time>2026-04-30T12:44:37Z</time>
					</trkpt>
					<trkpt lat="40.940710" lon="0.827030">
						<ele>71</ele>
						<time>2026-04-30T12:44:40Z</time>
					</trkpt>
					<trkpt lat="40.940690" lon="0.827230">
						<ele>71</ele>
						<time>2026-04-30T12:44:42Z</time>
					</trkpt>
					<trkpt lat="40.940700" lon="0.827410">
						<ele>70</ele>
						<time>2026-04-30T12:44:45Z</time>
					</trkpt>
					<trkpt lat="40.940720" lon="0.827540">
						<ele>70</ele>
						<time>2026-04-30T12:44:47Z</time>
					</trkpt>
					<trkpt lat="40.940800" lon="0.827830">
						<ele>69</ele>
						<time>2026-04-30T12:44:51Z</time>
					</trkpt>
					<trkpt lat="40.940910" lon="0.828200">
						<ele>70</ele>
						<time>2026-04-30T12:44:56Z</time>
					</trkpt>
					<trkpt lat="40.941120" lon="0.828780">
						<ele>74</ele>
						<time>2026-04-30T12:45:05Z</time>
					</trkpt>
					<trkpt lat="40.941240" lon="0.829050">
						<ele>78</ele>
						<time>2026-04-30T12:45:09Z</time>
					</trkpt>
					<trkpt lat="40.941280" lon="0.829260">
						<ele>79</ele>
						<time>2026-04-30T12:45:12Z</time>
					</trkpt>
					<trkpt lat="40.941250" lon="0.829470">
						<ele>80</ele>
						<time>2026-04-30T12:45:15Z</time>
					</trkpt>
					<trkpt lat="40.941090" lon="0.830170">
						<ele>80</ele>
						<time>2026-04-30T12:45:24Z</time>
					</trkpt>
					<trkpt lat="40.941060" lon="0.830450">
						<ele>80</ele>
						<time>2026-04-30T12:45:28Z</time>
					</trkpt>
					<trkpt lat="40.941070" lon="0.830660">
						<ele>81</ele>
						<time>2026-04-30T12:45:31Z</time>
					</trkpt>
					<trkpt lat="40.941110" lon="0.831020">
						<ele>81</ele>
						<time>2026-04-30T12:45:36Z</time>
					</trkpt>
					<trkpt lat="40.941590" lon="0.834850">
						<ele>72</ele>
						<time>2026-04-30T12:46:28Z</time>
					</trkpt>
					<trkpt lat="40.941630" lon="0.835240">
						<ele>71</ele>
						<time>2026-04-30T12:46:33Z</time>
					</trkpt>
					<trkpt lat="40.941850" lon="0.837320">
						<ele>68</ele>
						<time>2026-04-30T12:47:02Z</time>
					</trkpt>
					<trkpt lat="40.941960" lon="0.838370">
						<ele>68</ele>
						<time>2026-04-30T12:47:16Z</time>
					</trkpt>
					<trkpt lat="40.942180" lon="0.840190">
						<ele>67</ele>
						<time>2026-04-30T12:47:41Z</time>
					</trkpt>
					<trkpt lat="40.942250" lon="0.840760">
						<ele>65</ele>
						<time>2026-04-30T12:47:48Z</time>
					</trkpt>
					<trkpt lat="40.942310" lon="0.841250">
						<ele>64</ele>
						<time>2026-04-30T12:47:55Z</time>
					</trkpt>
					<trkpt lat="40.942360" lon="0.841710">
						<ele>63</ele>
						<time>2026-04-30T12:48:01Z</time>
					</trkpt>
					<trkpt lat="40.942650" lon="0.844130">
						<ele>60</ele>
						<time>2026-04-30T12:48:34Z</time>
					</trkpt>
					<trkpt lat="40.942680" lon="0.844320">
						<ele>60</ele>
						<time>2026-04-30T12:48:37Z</time>
					</trkpt>
					<trkpt lat="40.942790" lon="0.844990">
						<ele>58</ele>
						<time>2026-04-30T12:48:46Z</time>
					</trkpt>
					<trkpt lat="40.942920" lon="0.845800">
						<ele>56</ele>
						<time>2026-04-30T12:48:57Z</time>
					</trkpt>
					<trkpt lat="40.942980" lon="0.846260">
						<ele>54</ele>
						<time>2026-04-30T12:49:04Z</time>
					</trkpt>
					<trkpt lat="40.942990" lon="0.846540">
						<ele>53</ele>
						<time>2026-04-30T12:49:07Z</time>
					</trkpt>
					<trkpt lat="40.942960" lon="0.846780">
						<ele>51</ele>
						<time>2026-04-30T12:49:11Z</time>
					</trkpt>
					<trkpt lat="40.942860" lon="0.847130">
						<ele>48</ele>
						<time>2026-04-30T12:49:16Z</time>
					</trkpt>
					<trkpt lat="40.942800" lon="0.847280">
						<ele>47</ele>
						<time>2026-04-30T12:49:18Z</time>
					</trkpt>
					<trkpt lat="40.942770" lon="0.847360">
						<ele>46</ele>
						<time>2026-04-30T12:49:19Z</time>
					</trkpt>
					<trkpt lat="40.942730" lon="0.847410">
						<ele>46</ele>
						<time>2026-04-30T12:49:20Z</time>
					</trkpt>
					<trkpt lat="40.942620" lon="0.847510">
						<ele>45</ele>
						<time>2026-04-30T12:49:22Z</time>
					</trkpt>
					<trkpt lat="40.942580" lon="0.847510">
						<ele>44</ele>
						<time>2026-04-30T12:49:23Z</time>
					</trkpt>
					<trkpt lat="40.942520" lon="0.847540">
						<ele>44</ele>
						<time>2026-04-30T12:49:24Z</time>
					</trkpt>
					<trkpt lat="40.942470" lon="0.847590">
						<ele>43</ele>
						<time>2026-04-30T12:49:25Z</time>
					</trkpt>
					<trkpt lat="40.942450" lon="0.847640">
						<ele>43</ele>
						<time>2026-04-30T12:49:26Z</time>
					</trkpt>
					<trkpt lat="40.942440" lon="0.847720">
						<ele>42</ele>
						<time>2026-04-30T12:49:27Z</time>
					</trkpt>
					<trkpt lat="40.942440" lon="0.847790">
						<ele>42</ele>
						<time>2026-04-30T12:49:28Z</time>
					</trkpt>
					<trkpt lat="40.942460" lon="0.847840">
						<ele>41</ele>
						<time>2026-04-30T12:49:29Z</time>
					</trkpt>
					<trkpt lat="40.942480" lon="0.847880">
						<ele>41</ele>
						<time>2026-04-30T12:49:30Z</time>
					</trkpt>
					<trkpt lat="40.942530" lon="0.847930">
						<ele>41</ele>
						<time>2026-04-30T12:49:31Z</time>
					</trkpt>
					<trkpt lat="40.942600" lon="0.847950">
						<ele>41</ele>
						<time>2026-04-30T12:49:32Z</time>
					</trkpt>
					<trkpt lat="40.942630" lon="0.847950">
						<ele>41</ele>
						<time>2026-04-30T12:49:33Z</time>
					</trkpt>
					<trkpt lat="40.942720" lon="0.847970">
						<ele>42</ele>
						<time>2026-04-30T12:49:34Z</time>
					</trkpt>
					<trkpt lat="40.942800" lon="0.848000">
						<ele>42</ele>
						<time>2026-04-30T12:49:36Z</time>
					</trkpt>
					<trkpt lat="40.942910" lon="0.848070">
						<ele>42</ele>
						<time>2026-04-30T12:49:38Z</time>
					</trkpt>
					<trkpt lat="40.943100" lon="0.848280">
						<ele>41</ele>
						<time>2026-04-30T12:49:42Z</time>
					</trkpt>
					<trkpt lat="40.943460" lon="0.848610">
						<ele>41</ele>
						<time>2026-04-30T12:49:50Z</time>
					</trkpt>
					<trkpt lat="40.943800" lon="0.849070">
						<ele>41</ele>
						<time>2026-04-30T12:49:59Z</time>
					</trkpt>
					<trkpt lat="40.944070" lon="0.849500">
						<ele>42</ele>
						<time>2026-04-30T12:50:06Z</time>
					</trkpt>
					<trkpt lat="40.944390" lon="0.850070">
						<ele>44</ele>
						<time>2026-04-30T12:50:16Z</time>
					</trkpt>
					<trkpt lat="40.944630" lon="0.850570">
						<ele>44</ele>
						<time>2026-04-30T12:50:24Z</time>
					</trkpt>
					<trkpt lat="40.944910" lon="0.851040">
						<ele>44</ele>
						<time>2026-04-30T12:50:32Z</time>
					</trkpt>
					<trkpt lat="40.945230" lon="0.851520">
						<ele>44</ele>
						<time>2026-04-30T12:50:40Z</time>
					</trkpt>
					<trkpt lat="40.945520" lon="0.851870">
						<ele>45</ele>
						<time>2026-04-30T12:50:47Z</time>
					</trkpt>
					<trkpt lat="40.945830" lon="0.852190">
						<ele>45</ele>
						<time>2026-04-30T12:50:54Z</time>
					</trkpt>
					<trkpt lat="40.946480" lon="0.852740">
						<ele>46</ele>
						<time>2026-04-30T12:51:08Z</time>
					</trkpt>
					<trkpt lat="40.946890" lon="0.853100">
						<ele>47</ele>
						<time>2026-04-30T12:51:17Z</time>
					</trkpt>
					<trkpt lat="40.947180" lon="0.853380">
						<ele>47</ele>
						<time>2026-04-30T12:51:23Z</time>
					</trkpt>
					<trkpt lat="40.947570" lon="0.853840">
						<ele>48</ele>
						<time>2026-04-30T12:51:32Z</time>
					</trkpt>
					<trkpt lat="40.947840" lon="0.854220">
						<ele>49</ele>
						<time>2026-04-30T12:51:39Z</time>
					</trkpt>
					<trkpt lat="40.948310" lon="0.855020">
						<ele>47</ele>
						<time>2026-04-30T12:51:53Z</time>
					</trkpt>
					<trkpt lat="40.948500" lon="0.855330">
						<ele>46</ele>
						<time>2026-04-30T12:51:58Z</time>
					</trkpt>
					<trkpt lat="40.948530" lon="0.855430">
						<ele>46</ele>
						<time>2026-04-30T12:52:00Z</time>
					</trkpt>
					<trkpt lat="40.948860" lon="0.856010">
						<ele>45</ele>
						<time>2026-04-30T12:52:10Z</time>
					</trkpt>
					<trkpt lat="40.949080" lon="0.856320">
						<ele>45</ele>
						<time>2026-04-30T12:52:15Z</time>
					</trkpt>
					<trkpt lat="40.949410" lon="0.856700">
						<ele>46</ele>
						<time>2026-04-30T12:52:23Z</time>
					</trkpt>
					<trkpt lat="40.949730" lon="0.856980">
						<ele>48</ele>
						<time>2026-04-30T12:52:30Z</time>
					</trkpt>
					<trkpt lat="40.950240" lon="0.857350">
						<ele>51</ele>
						<time>2026-04-30T12:52:40Z</time>
					</trkpt>
					<trkpt lat="40.950350" lon="0.857470">
						<ele>52</ele>
						<time>2026-04-30T12:52:43Z</time>
					</trkpt>
					<trkpt lat="40.950450" lon="0.857640">
						<ele>52</ele>
						<time>2026-04-30T12:52:46Z</time>
					</trkpt>
					<trkpt lat="40.950580" lon="0.857890">
						<ele>52</ele>
						<time>2026-04-30T12:52:50Z</time>
					</trkpt>
					<trkpt lat="40.950670" lon="0.858170">
						<ele>52</ele>
						<time>2026-04-30T12:52:54Z</time>
					</trkpt>
					<trkpt lat="40.950780" lon="0.858700">
						<ele>49</ele>
						<time>2026-04-30T12:53:01Z</time>
					</trkpt>
					<trkpt lat="40.950850" lon="0.858970">
						<ele>47</ele>
						<time>2026-04-30T12:53:05Z</time>
					</trkpt>
					<trkpt lat="40.950920" lon="0.859220">
						<ele>45</ele>
						<time>2026-04-30T12:53:09Z</time>
					</trkpt>
					<trkpt lat="40.950970" lon="0.859340">
						<ele>44</ele>
						<time>2026-04-30T12:53:11Z</time>
					</trkpt>
					<trkpt lat="40.951020" lon="0.859460">
						<ele>43</ele>
						<time>2026-04-30T12:53:12Z</time>
					</trkpt>
					<trkpt lat="40.951070" lon="0.859550">
						<ele>42</ele>
						<time>2026-04-30T12:53:14Z</time>
					</trkpt>
					<trkpt lat="40.951130" lon="0.859650">
						<ele>42</ele>
						<time>2026-04-30T12:53:16Z</time>
					</trkpt>
					<trkpt lat="40.951300" lon="0.859860">
						<ele>41</ele>
						<time>2026-04-30T12:53:20Z</time>
					</trkpt>
					<trkpt lat="40.951390" lon="0.859940">
						<ele>41</ele>
						<time>2026-04-30T12:53:22Z</time>
					</trkpt>
					<trkpt lat="40.951550" lon="0.859990">
						<ele>42</ele>
						<time>2026-04-30T12:53:25Z</time>
					</trkpt>
					<trkpt lat="40.951910" lon="0.860230">
						<ele>44</ele>
						<time>2026-04-30T12:53:32Z</time>
					</trkpt>
					<trkpt lat="40.952250" lon="0.860460">
						<ele>46</ele>
						<time>2026-04-30T12:53:39Z</time>
					</trkpt>
					<trkpt lat="40.952350" lon="0.860550">
						<ele>46</ele>
						<time>2026-04-30T12:53:41Z</time>
					</trkpt>
					<trkpt lat="40.952410" lon="0.860620">
						<ele>46</ele>
						<time>2026-04-30T12:53:42Z</time>
					</trkpt>
					<trkpt lat="40.952530" lon="0.860790">
						<ele>46</ele>
						<time>2026-04-30T12:53:45Z</time>
					</trkpt>
					<trkpt lat="40.952610" lon="0.860920">
						<ele>45</ele>
						<time>2026-04-30T12:53:48Z</time>
					</trkpt>
					<trkpt lat="40.952660" lon="0.861030">
						<ele>45</ele>
						<time>2026-04-30T12:53:49Z</time>
					</trkpt>
					<trkpt lat="40.952700" lon="0.861160">
						<ele>44</ele>
						<time>2026-04-30T12:53:51Z</time>
					</trkpt>
					<trkpt lat="40.952750" lon="0.861320">
						<ele>43</ele>
						<time>2026-04-30T12:53:54Z</time>
					</trkpt>
					<trkpt lat="40.952800" lon="0.861620">
						<ele>41</ele>
						<time>2026-04-30T12:53:58Z</time>
					</trkpt>
					<trkpt lat="40.953010" lon="0.863050">
						<ele>38</ele>
						<time>2026-04-30T12:54:17Z</time>
					</trkpt>
					<trkpt lat="40.953230" lon="0.864490">
						<ele>33</ele>
						<time>2026-04-30T12:54:37Z</time>
					</trkpt>
					<trkpt lat="40.953410" lon="0.865280">
						<ele>32</ele>
						<time>2026-04-30T12:54:48Z</time>
					</trkpt>
					<trkpt lat="40.953440" lon="0.865500">
						<ele>32</ele>
						<time>2026-04-30T12:54:51Z</time>
					</trkpt>
					<trkpt lat="40.953510" lon="0.865820">
						<ele>31</ele>
						<time>2026-04-30T12:54:56Z</time>
					</trkpt>
					<trkpt lat="40.953670" lon="0.866370">
						<ele>32</ele>
						<time>2026-04-30T12:55:03Z</time>
					</trkpt>
					<trkpt lat="40.954000" lon="0.867190">
						<ele>32</ele>
						<time>2026-04-30T12:55:16Z</time>
					</trkpt>
					<trkpt lat="40.954170" lon="0.867520">
						<ele>32</ele>
						<time>2026-04-30T12:55:21Z</time>
					</trkpt>
					<trkpt lat="40.954250" lon="0.867650">
						<ele>32</ele>
						<time>2026-04-30T12:55:24Z</time>
					</trkpt>
					<trkpt lat="40.954440" lon="0.868010">
						<ele>33</ele>
						<time>2026-04-30T12:55:29Z</time>
					</trkpt>
					<trkpt lat="40.954580" lon="0.868280">
						<ele>34</ele>
						<time>2026-04-30T12:55:34Z</time>
					</trkpt>
					<trkpt lat="40.954840" lon="0.868660">
						<ele>34</ele>
						<time>2026-04-30T12:55:41Z</time>
					</trkpt>
					<trkpt lat="40.954870" lon="0.868710">
						<ele>34</ele>
						<time>2026-04-30T12:55:42Z</time>
					</trkpt>
					<trkpt lat="40.955290" lon="0.869140">
						<ele>34</ele>
						<time>2026-04-30T12:55:51Z</time>
					</trkpt>
					<trkpt lat="40.955620" lon="0.869460">
						<ele>34</ele>
						<time>2026-04-30T12:55:58Z</time>
					</trkpt>
					<trkpt lat="40.955960" lon="0.869730">
						<ele>33</ele>
						<time>2026-04-30T12:56:05Z</time>
					</trkpt>
					<trkpt lat="40.956150" lon="0.869870">
						<ele>32</ele>
						<time>2026-04-30T12:56:09Z</time>
					</trkpt>
					<trkpt lat="40.956370" lon="0.870000">
						<ele>32</ele>
						<time>2026-04-30T12:56:14Z</time>
					</trkpt>
					<trkpt lat="40.956570" lon="0.870100">
						<ele>32</ele>
						<time>2026-04-30T12:56:17Z</time>
					</trkpt>
					<trkpt lat="40.956750" lon="0.870180">
						<ele>32</ele>
						<time>2026-04-30T12:56:21Z</time>
					</trkpt>
					<trkpt lat="40.957030" lon="0.870280">
						<ele>35</ele>
						<time>2026-04-30T12:56:26Z</time>
					</trkpt>
					<trkpt lat="40.957300" lon="0.870350">
						<ele>37</ele>
						<time>2026-04-30T12:56:31Z</time>
					</trkpt>
					<trkpt lat="40.957680" lon="0.870430">
						<ele>38</ele>
						<time>2026-04-30T12:56:38Z</time>
					</trkpt>
					<trkpt lat="40.958420" lon="0.870500">
						<ele>37</ele>
						<time>2026-04-30T12:56:51Z</time>
					</trkpt>
					<trkpt lat="40.958770" lon="0.870550">
						<ele>37</ele>
						<time>2026-04-30T12:56:57Z</time>
					</trkpt>
					<trkpt lat="40.958980" lon="0.870600">
						<ele>36</ele>
						<time>2026-04-30T12:57:01Z</time>
					</trkpt>
					<trkpt lat="40.959180" lon="0.870660">
						<ele>36</ele>
						<time>2026-04-30T12:57:05Z</time>
					</trkpt>
					<trkpt lat="40.959500" lon="0.870810">
						<ele>35</ele>
						<time>2026-04-30T12:57:11Z</time>
					</trkpt>
					<trkpt lat="40.959820" lon="0.871010">
						<ele>34</ele>
						<time>2026-04-30T12:57:17Z</time>
					</trkpt>
					<trkpt lat="40.960250" lon="0.871360">
						<ele>36</ele>
						<time>2026-04-30T12:57:26Z</time>
					</trkpt>
					<trkpt lat="40.960610" lon="0.871770">
						<ele>38</ele>
						<time>2026-04-30T12:57:34Z</time>
					</trkpt>
					<trkpt lat="40.960850" lon="0.872130">
						<ele>38</ele>
						<time>2026-04-30T12:57:41Z</time>
					</trkpt>
					<trkpt lat="40.961520" lon="0.873330">
						<ele>36</ele>
						<time>2026-04-30T12:58:01Z</time>
					</trkpt>
					<trkpt lat="40.961780" lon="0.873720">
						<ele>35</ele>
						<time>2026-04-30T12:58:08Z</time>
					</trkpt>
					<trkpt lat="40.962000" lon="0.874030">
						<ele>33</ele>
						<time>2026-04-30T12:58:13Z</time>
					</trkpt>
					<trkpt lat="40.962390" lon="0.874340">
						<ele>33</ele>
						<time>2026-04-30T12:58:22Z</time>
					</trkpt>
					<trkpt lat="40.962670" lon="0.874510">
						<ele>33</ele>
						<time>2026-04-30T12:58:27Z</time>
					</trkpt>
					<trkpt lat="40.964410" lon="0.875500">
						<ele>37</ele>
						<time>2026-04-30T12:59:01Z</time>
					</trkpt>
					<trkpt lat="40.964730" lon="0.875630">
						<ele>39</ele>
						<time>2026-04-30T12:59:07Z</time>
					</trkpt>
					<trkpt lat="40.965050" lon="0.875670">
						<ele>42</ele>
						<time>2026-04-30T12:59:12Z</time>
					</trkpt>
					<trkpt lat="40.965500" lon="0.875670">
						<ele>46</ele>
						<time>2026-04-30T12:59:20Z</time>
					</trkpt>
					<trkpt lat="40.965770" lon="0.875720">
						<ele>47</ele>
						<time>2026-04-30T12:59:25Z</time>
					</trkpt>
					<trkpt lat="40.966020" lon="0.875860">
						<ele>48</ele>
						<time>2026-04-30T12:59:30Z</time>
					</trkpt>
					<trkpt lat="40.967290" lon="0.876800">
						<ele>56</ele>
						<time>2026-04-30T12:59:56Z</time>
					</trkpt>
					<trkpt lat="40.967520" lon="0.877030">
						<ele>57</ele>
						<time>2026-04-30T13:00:01Z</time>
					</trkpt>
					<trkpt lat="40.967680" lon="0.877300">
						<ele>57</ele>
						<time>2026-04-30T13:00:06Z</time>
					</trkpt>
					<trkpt lat="40.967780" lon="0.877580">
						<ele>57</ele>
						<time>2026-04-30T13:00:10Z</time>
					</trkpt>
					<trkpt lat="40.967830" lon="0.877900">
						<ele>60</ele>
						<time>2026-04-30T13:00:14Z</time>
					</trkpt>
					<trkpt lat="40.967840" lon="0.878340">
						<ele>63</ele>
						<time>2026-04-30T13:00:20Z</time>
					</trkpt>
					<trkpt lat="40.967840" lon="0.878850">
						<ele>62</ele>
						<time>2026-04-30T13:00:27Z</time>
					</trkpt>
					<trkpt lat="40.967890" lon="0.879160">
						<ele>64</ele>
						<time>2026-04-30T13:00:31Z</time>
					</trkpt>
					<trkpt lat="40.968000" lon="0.879430">
						<ele>65</ele>
						<time>2026-04-30T13:00:35Z</time>
					</trkpt>
					<trkpt lat="40.968200" lon="0.879660">
						<ele>67</ele>
						<time>2026-04-30T13:00:40Z</time>
					</trkpt>
					<trkpt lat="40.968530" lon="0.879870">
						<ele>70</ele>
						<time>2026-04-30T13:00:47Z</time>
					</trkpt>
					<trkpt lat="40.970200" lon="0.880600">
						<ele>82</ele>
						<time>2026-04-30T13:01:18Z</time>
					</trkpt>
					<trkpt lat="40.971950" lon="0.881260">
						<ele>89</ele>
						<time>2026-04-30T13:01:50Z</time>
					</trkpt>
					<trkpt lat="40.973300" lon="0.881780">
						<ele>91</ele>
						<time>2026-04-30T13:02:15Z</time>
					</trkpt>
					<trkpt lat="40.973690" lon="0.882010">
						<ele>89</ele>
						<time>2026-04-30T13:02:23Z</time>
					</trkpt>
					<trkpt lat="40.973960" lon="0.882220">
						<ele>86</ele>
						<time>2026-04-30T13:02:29Z</time>
					</trkpt>
					<trkpt lat="40.974420" lon="0.882660">
						<ele>83</ele>
						<time>2026-04-30T13:02:39Z</time>
					</trkpt>
					<trkpt lat="40.975680" lon="0.883870">
						<ele>77</ele>
						<time>2026-04-30T13:03:06Z</time>
					</trkpt>
					<trkpt lat="40.975850" lon="0.884110">
						<ele>76</ele>
						<time>2026-04-30T13:03:11Z</time>
					</trkpt>
					<trkpt lat="40.975990" lon="0.884430">
						<ele>76</ele>
						<time>2026-04-30T13:03:16Z</time>
					</trkpt>
					<trkpt lat="40.976370" lon="0.885470">
						<ele>74</ele>
						<time>2026-04-30T13:03:31Z</time>
					</trkpt>
					<trkpt lat="40.976460" lon="0.885740">
						<ele>72</ele>
						<time>2026-04-30T13:03:35Z</time>
					</trkpt>
					<trkpt lat="40.976700" lon="0.886520">
						<ele>63</ele>
						<time>2026-04-30T13:03:47Z</time>
					</trkpt>
					<trkpt lat="40.976740" lon="0.886820">
						<ele>62</ele>
						<time>2026-04-30T13:03:51Z</time>
					</trkpt>
					<trkpt lat="40.976740" lon="0.887800">
						<ele>59</ele>
						<time>2026-04-30T13:04:04Z</time>
					</trkpt>
					<trkpt lat="40.976790" lon="0.888520">
						<ele>58</ele>
						<time>2026-04-30T13:04:13Z</time>
					</trkpt>
					<trkpt lat="40.976870" lon="0.889130">
						<ele>59</ele>
						<time>2026-04-30T13:04:22Z</time>
					</trkpt>
					<trkpt lat="40.976980" lon="0.889610">
						<ele>57</ele>
						<time>2026-04-30T13:04:29Z</time>
					</trkpt>
					<trkpt lat="40.977080" lon="0.889940">
						<ele>56</ele>
						<time>2026-04-30T13:04:33Z</time>
					</trkpt>
					<trkpt lat="40.977320" lon="0.890500">
						<ele>50</ele>
						<time>2026-04-30T13:04:42Z</time>
					</trkpt>
					<trkpt lat="40.977580" lon="0.890960">
						<ele>46</ele>
						<time>2026-04-30T13:04:50Z</time>
					</trkpt>
					<trkpt lat="40.978470" lon="0.892320">
						<ele>43</ele>
						<time>2026-04-30T13:05:14Z</time>
					</trkpt>
					<trkpt lat="40.978630" lon="0.892640">
						<ele>42</ele>
						<time>2026-04-30T13:05:19Z</time>
					</trkpt>
					<trkpt lat="40.978790" lon="0.893140">
						<ele>42</ele>
						<time>2026-04-30T13:05:26Z</time>
					</trkpt>
					<trkpt lat="40.978820" lon="0.893260">
						<ele>42</ele>
						<time>2026-04-30T13:05:28Z</time>
					</trkpt>
					<trkpt lat="40.979020" lon="0.894080">
						<ele>41</ele>
						<time>2026-04-30T13:05:40Z</time>
					</trkpt>
					<trkpt lat="40.979330" lon="0.895370">
						<ele>35</ele>
						<time>2026-04-30T13:05:58Z</time>
					</trkpt>
					<trkpt lat="40.979710" lon="0.896940">
						<ele>32</ele>
						<time>2026-04-30T13:06:20Z</time>
					</trkpt>
					<trkpt lat="40.979730" lon="0.897050">
						<ele>31</ele>
						<time>2026-04-30T13:06:21Z</time>
					</trkpt>
					<trkpt lat="40.979930" lon="0.897860">
						<ele>30</ele>
						<time>2026-04-30T13:06:33Z</time>
					</trkpt>
					<trkpt lat="40.980000" lon="0.898180">
						<ele>30</ele>
						<time>2026-04-30T13:06:37Z</time>
					</trkpt>
					<trkpt lat="40.980190" lon="0.898770">
						<ele>30</ele>
						<time>2026-04-30T13:06:46Z</time>
					</trkpt>
					<trkpt lat="40.980380" lon="0.899250">
						<ele>29</ele>
						<time>2026-04-30T13:06:53Z</time>
					</trkpt>
					<trkpt lat="40.980690" lon="0.899840">
						<ele>28</ele>
						<time>2026-04-30T13:07:03Z</time>
					</trkpt>
					<trkpt lat="40.980940" lon="0.900230">
						<ele>28</ele>
						<time>2026-04-30T13:07:10Z</time>
					</trkpt>
					<trkpt lat="40.981220" lon="0.900580">
						<ele>29</ele>
						<time>2026-04-30T13:07:17Z</time>
					</trkpt>
					<trkpt lat="40.982360" lon="0.901820">
						<ele>29</ele>
						<time>2026-04-30T13:07:43Z</time>
					</trkpt>
					<trkpt lat="40.982410" lon="0.901880">
						<ele>29</ele>
						<time>2026-04-30T13:07:44Z</time>
					</trkpt>
					<trkpt lat="40.982520" lon="0.901990">
						<ele>29</ele>
						<time>2026-04-30T13:07:47Z</time>
					</trkpt>
					<trkpt lat="40.983290" lon="0.902810">
						<ele>30</ele>
						<time>2026-04-30T13:08:04Z</time>
					</trkpt>
					<trkpt lat="40.983370" lon="0.902890">
						<ele>30</ele>
						<time>2026-04-30T13:08:06Z</time>
					</trkpt>
					<trkpt lat="40.983430" lon="0.902960">
						<ele>30</ele>
						<time>2026-04-30T13:08:07Z</time>
					</trkpt>
					<trkpt lat="40.984720" lon="0.904320">
						<ele>28</ele>
						<time>2026-04-30T13:08:37Z</time>
					</trkpt>
					<trkpt lat="40.985230" lon="0.904870">
						<ele>26</ele>
						<time>2026-04-30T13:08:48Z</time>
					</trkpt>
					<trkpt lat="40.985910" lon="0.905590">
						<ele>27</ele>
						<time>2026-04-30T13:09:04Z</time>
					</trkpt>
					<trkpt lat="40.986490" lon="0.906280">
						<ele>25</ele>
						<time>2026-04-30T13:09:18Z</time>
					</trkpt>
					<trkpt lat="40.987400" lon="0.907360">
						<ele>21</ele>
						<time>2026-04-30T13:09:39Z</time>
					</trkpt>
					<trkpt lat="40.989110" lon="0.909360">
						<ele>14</ele>
						<time>2026-04-30T13:10:20Z</time>
					</trkpt>
					<trkpt lat="40.989140" lon="0.909400">
						<ele>14</ele>
						<time>2026-04-30T13:10:21Z</time>
					</trkpt>
					<trkpt lat="40.989210" lon="0.909480">
						<ele>14</ele>
						<time>2026-04-30T13:10:22Z</time>
					</trkpt>
					<trkpt lat="40.989820" lon="0.910190">
						<ele>16</ele>
						<time>2026-04-30T13:10:37Z</time>
					</trkpt>
					<trkpt lat="40.989880" lon="0.910260">
						<ele>16</ele>
						<time>2026-04-30T13:10:38Z</time>
					</trkpt>
					<trkpt lat="40.990550" lon="0.911060">
						<ele>17</ele>
						<time>2026-04-30T13:10:54Z</time>
					</trkpt>
					<trkpt lat="40.991060" lon="0.911660">
						<ele>18</ele>
						<time>2026-04-30T13:11:06Z</time>
					</trkpt>
					<trkpt lat="40.992290" lon="0.912910">
						<ele>20</ele>
						<time>2026-04-30T13:11:34Z</time>
					</trkpt>
					<trkpt lat="40.993050" lon="0.913790">
						<ele>20</ele>
						<time>2026-04-30T13:11:52Z</time>
					</trkpt>
					<trkpt lat="40.993510" lon="0.914400">
						<ele>19</ele>
						<time>2026-04-30T13:12:04Z</time>
					</trkpt>
					<trkpt lat="40.994120" lon="0.915320">
						<ele>18</ele>
						<time>2026-04-30T13:12:20Z</time>
					</trkpt>
					<trkpt lat="40.995480" lon="0.917370">
						<ele>16</ele>
						<time>2026-04-30T13:12:57Z</time>
					</trkpt>
					<trkpt lat="40.995650" lon="0.917730">
						<ele>16</ele>
						<time>2026-04-30T13:13:02Z</time>
					</trkpt>
					<trkpt lat="40.995720" lon="0.917850">
						<ele>16</ele>
						<time>2026-04-30T13:13:04Z</time>
					</trkpt>
					<trkpt lat="40.995760" lon="0.918100">
						<ele>16</ele>
						<time>2026-04-30T13:13:08Z</time>
					</trkpt>
					<trkpt lat="40.995750" lon="0.918270">
						<ele>15</ele>
						<time>2026-04-30T13:13:10Z</time>
					</trkpt>
					<trkpt lat="40.995690" lon="0.918610">
						<ele>15</ele>
						<time>2026-04-30T13:13:15Z</time>
					</trkpt>
					<trkpt lat="40.995680" lon="0.918800">
						<ele>15</ele>
						<time>2026-04-30T13:13:17Z</time>
					</trkpt>
					<trkpt lat="40.995720" lon="0.919020">
						<ele>15</ele>
						<time>2026-04-30T13:13:20Z</time>
					</trkpt>
					<trkpt lat="40.995810" lon="0.919290">
						<ele>15</ele>
						<time>2026-04-30T13:13:24Z</time>
					</trkpt>
					<trkpt lat="40.995950" lon="0.919410">
						<ele>16</ele>
						<time>2026-04-30T13:13:27Z</time>
					</trkpt>
					<trkpt lat="40.996000" lon="0.919430">
						<ele>16</ele>
						<time>2026-04-30T13:13:28Z</time>
					</trkpt>
					<trkpt lat="40.996110" lon="0.919480">
						<ele>17</ele>
						<time>2026-04-30T13:13:30Z</time>
					</trkpt>
					<trkpt lat="40.996410" lon="0.919280">
						<ele>18</ele>
						<time>2026-04-30T13:13:36Z</time>
					</trkpt>
					<trkpt lat="40.996770" lon="0.919010">
						<ele>19</ele>
						<time>2026-04-30T13:13:44Z</time>
					</trkpt>
					<trkpt lat="40.997230" lon="0.918730">
						<ele>21</ele>
						<time>2026-04-30T13:13:53Z</time>
					</trkpt>
					<trkpt lat="40.997480" lon="0.918580">
						<ele>22</ele>
						<time>2026-04-30T13:13:58Z</time>
					</trkpt>
					<trkpt lat="40.997660" lon="0.918510">
						<ele>23</ele>
						<time>2026-04-30T13:14:01Z</time>
					</trkpt>
					<trkpt lat="40.997950" lon="0.918410">
						<ele>24</ele>
						<time>2026-04-30T13:14:06Z</time>
					</trkpt>
					<trkpt lat="40.998110" lon="0.918360">
						<ele>25</ele>
						<time>2026-04-30T13:14:09Z</time>
					</trkpt>
					<trkpt lat="40.998280" lon="0.918300">
						<ele>26</ele>
						<time>2026-04-30T13:14:12Z</time>
					</trkpt>
					<trkpt lat="40.998580" lon="0.918190">
						<ele>26</ele>
						<time>2026-04-30T13:14:18Z</time>
					</trkpt>
					<trkpt lat="40.998790" lon="0.918100">
						<ele>27</ele>
						<time>2026-04-30T13:14:22Z</time>
					</trkpt>
					<trkpt lat="40.999460" lon="0.917750">
						<ele>28</ele>
						<time>2026-04-30T13:14:35Z</time>
					</trkpt>
					<trkpt lat="40.999470" lon="0.917740">
						<ele>28</ele>
						<time>2026-04-30T13:14:35Z</time>
					</trkpt>
					<trkpt lat="40.999520" lon="0.917720">
						<ele>28</ele>
						<time>2026-04-30T13:14:36Z</time>
					</trkpt>
					<trkpt lat="40.999550" lon="0.917710">
						<ele>28</ele>
						<time>2026-04-30T13:14:36Z</time>
					</trkpt>
					<trkpt lat="40.999670" lon="0.917730">
						<ele>28</ele>
						<time>2026-04-30T13:14:38Z</time>
					</trkpt>
					<trkpt lat="40.999730" lon="0.917790">
						<ele>29</ele>
						<time>2026-04-30T13:14:40Z</time>
					</trkpt>
					<trkpt lat="40.999810" lon="0.917820">
						<ele>29</ele>
						<time>2026-04-30T13:14:41Z</time>
					</trkpt>
					<trkpt lat="40.999830" lon="0.917820">
						<ele>29</ele>
						<time>2026-04-30T13:14:42Z</time>
					</trkpt>
					<trkpt lat="40.999880" lon="0.917840">
						<ele>29</ele>
						<time>2026-04-30T13:14:43Z</time>
					</trkpt>
					<trkpt lat="40.999950" lon="0.917910">
						<ele>29</ele>
						<time>2026-04-30T13:14:44Z</time>
					</trkpt>
					<trkpt lat="41.000030" lon="0.918060">
						<ele>30</ele>
						<time>2026-04-30T13:14:47Z</time>
					</trkpt>
					<trkpt lat="41.000090" lon="0.918160">
						<ele>30</ele>
						<time>2026-04-30T13:14:48Z</time>
					</trkpt>
					<trkpt lat="41.000390" lon="0.918810">
						<ele>30</ele>
						<time>2026-04-30T13:14:59Z</time>
					</trkpt>
					<trkpt lat="41.000720" lon="0.919520">
						<ele>30</ele>
						<time>2026-04-30T13:15:10Z</time>
					</trkpt>
					<trkpt lat="41.001020" lon="0.920190">
						<ele>31</ele>
						<time>2026-04-30T13:15:20Z</time>
					</trkpt>
					<trkpt lat="41.001440" lon="0.921090">
						<ele>32</ele>
						<time>2026-04-30T13:15:34Z</time>
					</trkpt>
					<trkpt lat="41.001600" lon="0.921440">
						<ele>30</ele>
						<time>2026-04-30T13:15:40Z</time>
					</trkpt>
					<trkpt lat="41.001790" lon="0.921860">
						<ele>26</ele>
						<time>2026-04-30T13:15:46Z</time>
					</trkpt>
					<trkpt lat="41.002160" lon="0.922660">
						<ele>21</ele>
						<time>2026-04-30T13:15:59Z</time>
					</trkpt>
					<trkpt lat="41.002260" lon="0.922920">
						<ele>19</ele>
						<time>2026-04-30T13:16:03Z</time>
					</trkpt>
					<trkpt lat="41.002300" lon="0.923010">
						<ele>19</ele>
						<time>2026-04-30T13:16:04Z</time>
					</trkpt>
					<trkpt lat="41.002420" lon="0.922950">
						<ele>19</ele>
						<time>2026-04-30T13:16:07Z</time>
					</trkpt>
					<trkpt lat="41.002480" lon="0.922900">
						<ele>19</ele>
						<time>2026-04-30T13:16:08Z</time>
					</trkpt>
					<trkpt lat="41.002750" lon="0.922620">
						<ele>20</ele>
						<time>2026-04-30T13:16:14Z</time>
					</trkpt>
					<trkpt lat="41.002900" lon="0.922380">
						<ele>20</ele>
						<time>2026-04-30T13:16:18Z</time>
					</trkpt>
					<trkpt lat="41.002950" lon="0.922300">
						<ele>20</ele>
						<time>2026-04-30T13:16:20Z</time>
					</trkpt>
					<trkpt lat="41.003040" lon="0.922080">
						<ele>20</ele>
						<time>2026-04-30T13:16:23Z</time>
					</trkpt>
					<trkpt lat="41.003350" lon="0.921210">
						<ele>22</ele>
						<time>2026-04-30T13:16:36Z</time>
					</trkpt>
					<trkpt lat="41.003480" lon="0.920820">
						<ele>25</ele>
						<time>2026-04-30T13:16:42Z</time>
					</trkpt>
					<trkpt lat="41.003750" lon="0.920070">
						<ele>26</ele>
						<time>2026-04-30T13:16:53Z</time>
					</trkpt>
					<trkpt lat="41.004150" lon="0.918950">
						<ele>29</ele>
						<time>2026-04-30T13:17:09Z</time>
					</trkpt>
					<trkpt lat="41.004180" lon="0.918860">
						<ele>30</ele>
						<time>2026-04-30T13:17:11Z</time>
					</trkpt>
					<trkpt lat="41.004190" lon="0.918810">
						<ele>31</ele>
						<time>2026-04-30T13:17:11Z</time>
					</trkpt>
					<trkpt lat="41.004190" lon="0.918750">
						<ele>31</ele>
						<time>2026-04-30T13:17:12Z</time>
					</trkpt>
					<trkpt lat="41.004120" lon="0.918450">
						<ele>35</ele>
						<time>2026-04-30T13:17:16Z</time>
					</trkpt>
					<trkpt lat="41.004140" lon="0.918430">
						<ele>35</ele>
						<time>2026-04-30T13:17:17Z</time>
					</trkpt>
					<trkpt lat="41.004160" lon="0.918390">
						<ele>35</ele>
						<time>2026-04-30T13:17:18Z</time>
					</trkpt>
					<trkpt lat="41.004170" lon="0.918310">
						<ele>36</ele>
						<time>2026-04-30T13:17:19Z</time>
					</trkpt>
					<trkpt lat="41.004290" lon="0.918100">
						<ele>35</ele>
						<time>2026-04-30T13:17:22Z</time>
					</trkpt>
					<trkpt lat="41.004320" lon="0.918030">
						<ele>35</ele>
						<time>2026-04-30T13:17:23Z</time>
					</trkpt>
					<trkpt lat="41.004410" lon="0.917850">
						<ele>35</ele>
						<time>2026-04-30T13:17:26Z</time>
					</trkpt>
					<trkpt lat="41.004700" lon="0.917280">
						<ele>35</ele>
						<time>2026-04-30T13:17:35Z</time>
					</trkpt>
					<trkpt lat="41.004910" lon="0.916870">
						<ele>38</ele>
						<time>2026-04-30T13:17:42Z</time>
					</trkpt>
					<trkpt lat="41.005040" lon="0.916640">
						<ele>40</ele>
						<time>2026-04-30T13:17:46Z</time>
					</trkpt>
					<trkpt lat="41.005170" lon="0.916470">
						<ele>39</ele>
						<time>2026-04-30T13:17:49Z</time>
					</trkpt>
					<trkpt lat="41.005270" lon="0.916370">
						<ele>39</ele>
						<time>2026-04-30T13:17:51Z</time>
					</trkpt>
					<trkpt lat="41.005450" lon="0.916240">
						<ele>39</ele>
						<time>2026-04-30T13:17:55Z</time>
					</trkpt>
					<trkpt lat="41.005650" lon="0.916090">
						<ele>39</ele>
						<time>2026-04-30T13:17:59Z</time>
					</trkpt>
					<trkpt lat="41.006000" lon="0.915750">
						<ele>42</ele>
						<time>2026-04-30T13:18:07Z</time>
					</trkpt>
					<trkpt lat="41.006150" lon="0.915630">
						<ele>42</ele>
						<time>2026-04-30T13:18:10Z</time>
					</trkpt>
					<trkpt lat="41.006350" lon="0.915530">
						<ele>43</ele>
						<time>2026-04-30T13:18:14Z</time>
					</trkpt>
					<trkpt lat="41.006630" lon="0.915410">
						<ele>43</ele>
						<time>2026-04-30T13:18:19Z</time>
					</trkpt>
					<trkpt lat="41.006860" lon="0.915370">
						<ele>43</ele>
						<time>2026-04-30T13:18:23Z</time>
					</trkpt>
					<trkpt lat="41.007560" lon="0.915250">
						<ele>45</ele>
						<time>2026-04-30T13:18:36Z</time>
					</trkpt>
					<trkpt lat="41.007690" lon="0.915220">
						<ele>45</ele>
						<time>2026-04-30T13:18:38Z</time>
					</trkpt>
					<trkpt lat="41.008270" lon="0.914430">
						<ele>51</ele>
						<time>2026-04-30T13:18:53Z</time>
					</trkpt>
					<trkpt lat="41.008340" lon="0.914310">
						<ele>52</ele>
						<time>2026-04-30T13:18:55Z</time>
					</trkpt>
					<trkpt lat="41.008350" lon="0.914260">
						<ele>52</ele>
						<time>2026-04-30T13:18:56Z</time>
					</trkpt>
					<trkpt lat="41.008380" lon="0.914160">
						<ele>53</ele>
						<time>2026-04-30T13:18:57Z</time>
					</trkpt>
					<trkpt lat="41.008510" lon="0.913820">
						<ele>54</ele>
						<time>2026-04-30T13:19:02Z</time>
					</trkpt>
					<trkpt lat="41.008590" lon="0.913680">
						<ele>55</ele>
						<time>2026-04-30T13:19:04Z</time>
					</trkpt>
					<trkpt lat="41.008640" lon="0.913580">
						<ele>56</ele>
						<time>2026-04-30T13:19:06Z</time>
					</trkpt>
					<trkpt lat="41.009010" lon="0.913080">
						<ele>59</ele>
						<time>2026-04-30T13:19:15Z</time>
					</trkpt>
					<trkpt lat="41.008420" lon="0.912330">
						<ele>61</ele>
						<time>2026-04-30T13:19:30Z</time>
					</trkpt>
					<trkpt lat="41.007960" lon="0.911740">
						<ele>61</ele>
						<time>2026-04-30T13:19:41Z</time>
					</trkpt>
					<trkpt lat="41.007860" lon="0.911470">
						<ele>61</ele>
						<time>2026-04-30T13:19:45Z</time>
					</trkpt>
					<trkpt lat="41.007800" lon="0.911310">
						<ele>61</ele>
						<time>2026-04-30T13:19:48Z</time>
					</trkpt>
					<trkpt lat="41.007800" lon="0.911230">
						<ele>61</ele>
						<time>2026-04-30T13:19:49Z</time>
					</trkpt>
					<trkpt lat="41.007800" lon="0.911190">
						<ele>61</ele>
						<time>2026-04-30T13:19:49Z</time>
					</trkpt>
					<trkpt lat="41.007790" lon="0.911150">
						<ele>61</ele>
						<time>2026-04-30T13:19:50Z</time>
					</trkpt>
					<trkpt lat="41.007810" lon="0.911040">
						<ele>61</ele>
						<time>2026-04-30T13:19:52Z</time>
					</trkpt>
					<trkpt lat="41.007920" lon="0.910810">
						<ele>62</ele>
						<time>2026-04-30T13:19:55Z</time>
					</trkpt>
					<trkpt lat="41.008320" lon="0.910240">
						<ele>64</ele>
						<time>2026-04-30T13:20:06Z</time>
					</trkpt>
					<trkpt lat="41.008460" lon="0.910050">
						<ele>64</ele>
						<time>2026-04-30T13:20:09Z</time>
					</trkpt>
					<trkpt lat="41.008710" lon="0.909710">
						<ele>66</ele>
						<time>2026-04-30T13:20:16Z</time>
					</trkpt>
					<trkpt lat="41.008840" lon="0.909520">
						<ele>67</ele>
						<time>2026-04-30T13:20:19Z</time>
					</trkpt>
					<trkpt lat="41.008970" lon="0.909310">
						<ele>68</ele>
						<time>2026-04-30T13:20:23Z</time>
					</trkpt>
					<trkpt lat="41.009080" lon="0.909070">
						<ele>70</ele>
						<time>2026-04-30T13:20:26Z</time>
					</trkpt>
					<trkpt lat="41.009170" lon="0.908830">
						<ele>72</ele>
						<time>2026-04-30T13:20:30Z</time>
					</trkpt>
					<trkpt lat="41.009260" lon="0.908570">
						<ele>74</ele>
						<time>2026-04-30T13:20:34Z</time>
					</trkpt>
					<trkpt lat="41.009310" lon="0.908340">
						<ele>75</ele>
						<time>2026-04-30T13:20:37Z</time>
					</trkpt>
					<trkpt lat="41.009340" lon="0.908110">
						<ele>75</ele>
						<time>2026-04-30T13:20:40Z</time>
					</trkpt>
					<trkpt lat="41.009460" lon="0.907270">
						<ele>78</ele>
						<time>2026-04-30T13:20:52Z</time>
					</trkpt>
					<trkpt lat="41.009520" lon="0.907000">
						<ele>80</ele>
						<time>2026-04-30T13:20:56Z</time>
					</trkpt>
					<trkpt lat="41.009570" lon="0.906830">
						<ele>81</ele>
						<time>2026-04-30T13:20:58Z</time>
					</trkpt>
					<trkpt lat="41.009630" lon="0.906670">
						<ele>82</ele>
						<time>2026-04-30T13:21:00Z</time>
					</trkpt>
					<trkpt lat="41.009690" lon="0.906550">
						<ele>83</ele>
						<time>2026-04-30T13:21:02Z</time>
					</trkpt>
					<trkpt lat="41.009800" lon="0.906360">
						<ele>85</ele>
						<time>2026-04-30T13:21:06Z</time>
					</trkpt>
					<trkpt lat="41.009930" lon="0.906200">
						<ele>86</ele>
						<time>2026-04-30T13:21:09Z</time>
					</trkpt>
					<trkpt lat="41.010110" lon="0.906040">
						<ele>86</ele>
						<time>2026-04-30T13:21:13Z</time>
					</trkpt>
					<trkpt lat="41.010320" lon="0.905910">
						<ele>86</ele>
						<time>2026-04-30T13:21:17Z</time>
					</trkpt>
					<trkpt lat="41.010660" lon="0.905790">
						<ele>86</ele>
						<time>2026-04-30T13:21:23Z</time>
					</trkpt>
					<trkpt lat="41.010670" lon="0.905790">
						<ele>86</ele>
						<time>2026-04-30T13:21:23Z</time>
					</trkpt>
					<trkpt lat="41.010720" lon="0.905770">
						<ele>86</ele>
						<time>2026-04-30T13:21:24Z</time>
					</trkpt>
					<trkpt lat="41.010970" lon="0.905700">
						<ele>85</ele>
						<time>2026-04-30T13:21:29Z</time>
					</trkpt>
					<trkpt lat="41.011170" lon="0.905640">
						<ele>85</ele>
						<time>2026-04-30T13:21:32Z</time>
					</trkpt>
					<trkpt lat="41.011370" lon="0.905560">
						<ele>85</ele>
						<time>2026-04-30T13:21:36Z</time>
					</trkpt>
					<trkpt lat="41.011540" lon="0.905480">
						<ele>85</ele>
						<time>2026-04-30T13:21:39Z</time>
					</trkpt>
					<trkpt lat="41.011740" lon="0.905350">
						<ele>85</ele>
						<time>2026-04-30T13:21:43Z</time>
					</trkpt>
					<trkpt lat="41.011810" lon="0.905300">
						<ele>85</ele>
						<time>2026-04-30T13:21:45Z</time>
					</trkpt>
					<trkpt lat="41.012010" lon="0.905120">
						<ele>87</ele>
						<time>2026-04-30T13:21:49Z</time>
					</trkpt>
					<trkpt lat="41.012200" lon="0.904890">
						<ele>88</ele>
						<time>2026-04-30T13:21:53Z</time>
					</trkpt>
					<trkpt lat="41.012930" lon="0.903910">
						<ele>94</ele>
						<time>2026-04-30T13:22:12Z</time>
					</trkpt>
					<trkpt lat="41.013370" lon="0.903300">
						<ele>95</ele>
						<time>2026-04-30T13:22:23Z</time>
					</trkpt>
					<trkpt lat="41.014330" lon="0.902000">
						<ele>104</ele>
						<time>2026-04-30T13:22:48Z</time>
					</trkpt>
					<trkpt lat="41.014470" lon="0.901840">
						<ele>106</ele>
						<time>2026-04-30T13:22:51Z</time>
					</trkpt>
					<trkpt lat="41.014550" lon="0.901750">
						<ele>107</ele>
						<time>2026-04-30T13:22:53Z</time>
					</trkpt>
					<trkpt lat="41.014740" lon="0.901590">
						<ele>109</ele>
						<time>2026-04-30T13:22:57Z</time>
					</trkpt>
					<trkpt lat="41.014920" lon="0.901480">
						<ele>110</ele>
						<time>2026-04-30T13:23:00Z</time>
					</trkpt>
					<trkpt lat="41.015090" lon="0.901410">
						<ele>111</ele>
						<time>2026-04-30T13:23:03Z</time>
					</trkpt>
					<trkpt lat="41.015400" lon="0.901330">
						<ele>112</ele>
						<time>2026-04-30T13:23:09Z</time>
					</trkpt>
					<trkpt lat="41.016510" lon="0.901110">
						<ele>116</ele>
						<time>2026-04-30T13:23:29Z</time>
					</trkpt>
					<trkpt lat="41.016780" lon="0.901050">
						<ele>117</ele>
						<time>2026-04-30T13:23:34Z</time>
					</trkpt>
					<trkpt lat="41.016890" lon="0.901010">
						<ele>117</ele>
						<time>2026-04-30T13:23:36Z</time>
					</trkpt>
					<trkpt lat="41.017000" lon="0.900960">
						<ele>118</ele>
						<time>2026-04-30T13:23:38Z</time>
					</trkpt>
					<trkpt lat="41.017120" lon="0.900880">
						<ele>118</ele>
						<time>2026-04-30T13:23:40Z</time>
					</trkpt>
					<trkpt lat="41.017260" lon="0.900740">
						<ele>119</ele>
						<time>2026-04-30T13:23:44Z</time>
					</trkpt>
					<trkpt lat="41.017300" lon="0.900690">
						<ele>119</ele>
						<time>2026-04-30T13:23:45Z</time>
					</trkpt>
					<trkpt lat="41.017390" lon="0.900580">
						<ele>119</ele>
						<time>2026-04-30T13:23:47Z</time>
					</trkpt>
					<trkpt lat="41.017450" lon="0.900470">
						<ele>119</ele>
						<time>2026-04-30T13:23:49Z</time>
					</trkpt>
					<trkpt lat="41.017510" lon="0.900350">
						<ele>120</ele>
						<time>2026-04-30T13:23:50Z</time>
					</trkpt>
					<trkpt lat="41.017560" lon="0.900210">
						<ele>121</ele>
						<time>2026-04-30T13:23:53Z</time>
					</trkpt>
					<trkpt lat="41.017600" lon="0.900050">
						<ele>122</ele>
						<time>2026-04-30T13:23:55Z</time>
					</trkpt>
					<trkpt lat="41.017630" lon="0.899910">
						<ele>123</ele>
						<time>2026-04-30T13:23:57Z</time>
					</trkpt>
					<trkpt lat="41.017750" lon="0.898950">
						<ele>128</ele>
						<time>2026-04-30T13:24:10Z</time>
					</trkpt>
					<trkpt lat="41.017780" lon="0.898780">
						<ele>129</ele>
						<time>2026-04-30T13:24:12Z</time>
					</trkpt>
					<trkpt lat="41.017810" lon="0.898630">
						<ele>130</ele>
						<time>2026-04-30T13:24:14Z</time>
					</trkpt>
					<trkpt lat="41.017880" lon="0.898020">
						<ele>134</ele>
						<time>2026-04-30T13:24:23Z</time>
					</trkpt>
					<trkpt lat="41.017930" lon="0.897740">
						<ele>135</ele>
						<time>2026-04-30T13:24:26Z</time>
					</trkpt>
					<trkpt lat="41.017960" lon="0.897610">
						<ele>136</ele>
						<time>2026-04-30T13:24:28Z</time>
					</trkpt>
					<trkpt lat="41.018090" lon="0.897390">
						<ele>136</ele>
						<time>2026-04-30T13:24:32Z</time>
					</trkpt>
					<trkpt lat="41.018270" lon="0.897350">
						<ele>136</ele>
						<time>2026-04-30T13:24:35Z</time>
					</trkpt>
					<trkpt lat="41.018350" lon="0.897310">
						<ele>136</ele>
						<time>2026-04-30T13:24:37Z</time>
					</trkpt>
					<trkpt lat="41.018450" lon="0.897310">
						<ele>136</ele>
						<time>2026-04-30T13:24:39Z</time>
					</trkpt>
					<trkpt lat="41.018700" lon="0.897330">
						<ele>135</ele>
						<time>2026-04-30T13:24:43Z</time>
					</trkpt>
					<trkpt lat="41.018980" lon="0.897390">
						<ele>134</ele>
						<time>2026-04-30T13:24:48Z</time>
					</trkpt>
					<trkpt lat="41.019060" lon="0.897430">
						<ele>134</ele>
						<time>2026-04-30T13:24:50Z</time>
					</trkpt>
					<trkpt lat="41.019230" lon="0.897500">
						<ele>133</ele>
						<time>2026-04-30T13:24:53Z</time>
					</trkpt>
					<trkpt lat="41.019480" lon="0.897650">
						<ele>132</ele>
						<time>2026-04-30T13:24:58Z</time>
					</trkpt>
					<trkpt lat="41.019730" lon="0.897840">
						<ele>131</ele>
						<time>2026-04-30T13:25:03Z</time>
					</trkpt>
					<trkpt lat="41.019940" lon="0.898060">
						<ele>130</ele>
						<time>2026-04-30T13:25:07Z</time>
					</trkpt>
					<trkpt lat="41.020170" lon="0.898350">
						<ele>128</ele>
						<time>2026-04-30T13:25:13Z</time>
					</trkpt>
					<trkpt lat="41.020600" lon="0.898940">
						<ele>125</ele>
						<time>2026-04-30T13:25:24Z</time>
					</trkpt>
					<trkpt lat="41.020780" lon="0.899200">
						<ele>123</ele>
						<time>2026-04-30T13:25:29Z</time>
					</trkpt>
					<trkpt lat="41.021690" lon="0.900480">
						<ele>116</ele>
						<time>2026-04-30T13:25:53Z</time>
					</trkpt>
					<trkpt lat="41.021930" lon="0.900810">
						<ele>114</ele>
						<time>2026-04-30T13:25:59Z</time>
					</trkpt>
					<trkpt lat="41.022210" lon="0.901240">
						<ele>112</ele>
						<time>2026-04-30T13:26:06Z</time>
					</trkpt>
					<trkpt lat="41.022480" lon="0.901620">
						<ele>108</ele>
						<time>2026-04-30T13:26:13Z</time>
					</trkpt>
					<trkpt lat="41.023210" lon="0.902640">
						<ele>103</ele>
						<time>2026-04-30T13:26:32Z</time>
					</trkpt>
					<trkpt lat="41.023580" lon="0.903160">
						<ele>98</ele>
						<time>2026-04-30T13:26:42Z</time>
					</trkpt>
					<trkpt lat="41.023880" lon="0.903680">
						<ele>93</ele>
						<time>2026-04-30T13:26:51Z</time>
					</trkpt>
					<trkpt lat="41.024040" lon="0.904000">
						<ele>91</ele>
						<time>2026-04-30T13:26:56Z</time>
					</trkpt>
					<trkpt lat="41.024420" lon="0.904860">
						<ele>83</ele>
						<time>2026-04-30T13:27:09Z</time>
					</trkpt>
					<trkpt lat="41.024650" lon="0.905300">
						<ele>78</ele>
						<time>2026-04-30T13:27:16Z</time>
					</trkpt>
					<trkpt lat="41.024850" lon="0.905600">
						<ele>74</ele>
						<time>2026-04-30T13:27:22Z</time>
					</trkpt>
					<trkpt lat="41.025140" lon="0.905980">
						<ele>71</ele>
						<time>2026-04-30T13:27:29Z</time>
					</trkpt>
					<trkpt lat="41.025500" lon="0.906350">
						<ele>73</ele>
						<time>2026-04-30T13:27:37Z</time>
					</trkpt>
					<trkpt lat="41.025950" lon="0.906690">
						<ele>80</ele>
						<time>2026-04-30T13:27:46Z</time>
					</trkpt>
					<trkpt lat="41.026260" lon="0.906880">
						<ele>86</ele>
						<time>2026-04-30T13:27:52Z</time>
					</trkpt>
					<trkpt lat="41.030030" lon="0.909000">
						<ele>101</ele>
						<time>2026-04-30T13:29:05Z</time>
					</trkpt>
					<trkpt lat="41.030290" lon="0.909140">
						<ele>101</ele>
						<time>2026-04-30T13:29:10Z</time>
					</trkpt>
					<trkpt lat="41.030650" lon="0.909350">
						<ele>101</ele>
						<time>2026-04-30T13:29:17Z</time>
					</trkpt>
					<trkpt lat="41.030950" lon="0.909510">
						<ele>101</ele>
						<time>2026-04-30T13:29:23Z</time>
					</trkpt>
					<trkpt lat="41.031200" lon="0.909660">
						<ele>101</ele>
						<time>2026-04-30T13:29:28Z</time>
					</trkpt>
					<trkpt lat="41.031410" lon="0.909800">
						<ele>101</ele>
						<time>2026-04-30T13:29:32Z</time>
					</trkpt>
					<trkpt lat="41.031760" lon="0.910070">
						<ele>101</ele>
						<time>2026-04-30T13:29:39Z</time>
					</trkpt>
					<trkpt lat="41.036240" lon="0.913950">
						<ele>99</ele>
						<time>2026-04-30T13:31:14Z</time>
					</trkpt>
					<trkpt lat="41.036590" lon="0.914220">
						<ele>100</ele>
						<time>2026-04-30T13:31:22Z</time>
					</trkpt>
					<trkpt lat="41.036840" lon="0.914380">
						<ele>101</ele>
						<time>2026-04-30T13:31:27Z</time>
					</trkpt>
					<trkpt lat="41.037120" lon="0.914490">
						<ele>103</ele>
						<time>2026-04-30T13:31:32Z</time>
					</trkpt>
					<trkpt lat="41.037380" lon="0.914550">
						<ele>104</ele>
						<time>2026-04-30T13:31:36Z</time>
					</trkpt>
					<trkpt lat="41.037650" lon="0.914580">
						<ele>106</ele>
						<time>2026-04-30T13:31:41Z</time>
					</trkpt>
					<trkpt lat="41.037760" lon="0.914570">
						<ele>107</ele>
						<time>2026-04-30T13:31:43Z</time>
					</trkpt>
					<trkpt lat="41.037980" lon="0.914550">
						<ele>110</ele>
						<time>2026-04-30T13:31:47Z</time>
					</trkpt>
					<trkpt lat="41.038050" lon="0.914530">
						<ele>111</ele>
						<time>2026-04-30T13:31:48Z</time>
					</trkpt>
					<trkpt lat="41.038270" lon="0.914470">
						<ele>113</ele>
						<time>2026-04-30T13:31:52Z</time>
					</trkpt>
					<trkpt lat="41.038660" lon="0.914280">
						<ele>116</ele>
						<time>2026-04-30T13:32:00Z</time>
					</trkpt>
					<trkpt lat="41.038900" lon="0.914090">
						<ele>118</ele>
						<time>2026-04-30T13:32:05Z</time>
					</trkpt>
					<trkpt lat="41.039200" lon="0.913780">
						<ele>121</ele>
						<time>2026-04-30T13:32:12Z</time>
					</trkpt>
					<trkpt lat="41.039300" lon="0.913650">
						<ele>122</ele>
						<time>2026-04-30T13:32:14Z</time>
					</trkpt>
					<trkpt lat="41.039420" lon="0.913470">
						<ele>123</ele>
						<time>2026-04-30T13:32:17Z</time>
					</trkpt>
					<trkpt lat="41.039870" lon="0.912640">
						<ele>130</ele>
						<time>2026-04-30T13:32:31Z</time>
					</trkpt>
					<trkpt lat="41.040140" lon="0.912230">
						<ele>133</ele>
						<time>2026-04-30T13:32:38Z</time>
					</trkpt>
					<trkpt lat="41.040380" lon="0.911910">
						<ele>135</ele>
						<time>2026-04-30T13:32:44Z</time>
					</trkpt>
					<trkpt lat="41.040590" lon="0.911690">
						<ele>136</ele>
						<time>2026-04-30T13:32:49Z</time>
					</trkpt>
					<trkpt lat="41.040850" lon="0.911490">
						<ele>136</ele>
						<time>2026-04-30T13:32:54Z</time>
					</trkpt>
					<trkpt lat="41.041120" lon="0.911350">
						<ele>137</ele>
						<time>2026-04-30T13:33:00Z</time>
					</trkpt>
					<trkpt lat="41.041270" lon="0.911290">
						<ele>137</ele>
						<time>2026-04-30T13:33:02Z</time>
					</trkpt>
					<trkpt lat="41.041450" lon="0.911230">
						<ele>138</ele>
						<time>2026-04-30T13:33:06Z</time>
					</trkpt>
					<trkpt lat="41.041820" lon="0.911130">
						<ele>140</ele>
						<time>2026-04-30T13:33:12Z</time>
					</trkpt>
					<trkpt lat="41.041890" lon="0.911110">
						<ele>140</ele>
						<time>2026-04-30T13:33:14Z</time>
					</trkpt>
					<trkpt lat="41.042020" lon="0.911070">
						<ele>141</ele>
						<time>2026-04-30T13:33:16Z</time>
					</trkpt>
					<trkpt lat="41.042130" lon="0.911050">
						<ele>141</ele>
						<time>2026-04-30T13:33:18Z</time>
					</trkpt>
					<trkpt lat="41.042290" lon="0.911020">
						<ele>142</ele>
						<time>2026-04-30T13:33:21Z</time>
					</trkpt>
					<trkpt lat="41.042610" lon="0.910990">
						<ele>144</ele>
						<time>2026-04-30T13:33:27Z</time>
					</trkpt>
					<trkpt lat="41.042940" lon="0.911030">
						<ele>147</ele>
						<time>2026-04-30T13:33:33Z</time>
					</trkpt>
					<trkpt lat="41.043300" lon="0.911100">
						<ele>150</ele>
						<time>2026-04-30T13:33:39Z</time>
					</trkpt>
					<trkpt lat="41.043700" lon="0.911320">
						<ele>152</ele>
						<time>2026-04-30T13:33:47Z</time>
					</trkpt>
					<trkpt lat="41.044070" lon="0.911660">
						<ele>153</ele>
						<time>2026-04-30T13:33:55Z</time>
					</trkpt>
					<trkpt lat="41.044350" lon="0.912040">
						<ele>152</ele>
						<time>2026-04-30T13:34:02Z</time>
					</trkpt>
					<trkpt lat="41.044620" lon="0.912580">
						<ele>151</ele>
						<time>2026-04-30T13:34:11Z</time>
					</trkpt>
					<trkpt lat="41.044810" lon="0.913150">
						<ele>150</ele>
						<time>2026-04-30T13:34:19Z</time>
					</trkpt>
					<trkpt lat="41.045180" lon="0.914220">
						<ele>144</ele>
						<time>2026-04-30T13:34:35Z</time>
					</trkpt>
					<trkpt lat="41.045330" lon="0.914760">
						<ele>142</ele>
						<time>2026-04-30T13:34:42Z</time>
					</trkpt>
					<trkpt lat="41.045410" lon="0.915280">
						<ele>138</ele>
						<time>2026-04-30T13:34:50Z</time>
					</trkpt>
					<trkpt lat="41.045720" lon="0.917800">
						<ele>126</ele>
						<time>2026-04-30T13:35:24Z</time>
					</trkpt>
					<trkpt lat="41.045890" lon="0.919100">
						<ele>128</ele>
						<time>2026-04-30T13:35:41Z</time>
					</trkpt>
					<trkpt lat="41.046030" lon="0.919680">
						<ele>125</ele>
						<time>2026-04-30T13:35:50Z</time>
					</trkpt>
					<trkpt lat="41.046300" lon="0.920370">
						<ele>122</ele>
						<time>2026-04-30T13:36:00Z</time>
					</trkpt>
					<trkpt lat="41.046680" lon="0.920990">
						<ele>120</ele>
						<time>2026-04-30T13:36:11Z</time>
					</trkpt>
					<trkpt lat="41.047370" lon="0.921860">
						<ele>119</ele>
						<time>2026-04-30T13:36:28Z</time>
					</trkpt>
					<trkpt lat="41.047500" lon="0.922020">
						<ele>118</ele>
						<time>2026-04-30T13:36:31Z</time>
					</trkpt>
					<trkpt lat="41.047530" lon="0.922050">
						<ele>118</ele>
						<time>2026-04-30T13:36:32Z</time>
					</trkpt>
					<trkpt lat="41.047640" lon="0.922190">
						<ele>117</ele>
						<time>2026-04-30T13:36:34Z</time>
					</trkpt>
					<trkpt lat="41.049380" lon="0.924310">
						<ele>111</ele>
						<time>2026-04-30T13:37:16Z</time>
					</trkpt>
					<trkpt lat="41.051340" lon="0.926690">
						<ele>110</ele>
						<time>2026-04-30T13:38:04Z</time>
					</trkpt>
					<trkpt lat="41.052210" lon="0.927740">
						<ele>111</ele>
						<time>2026-04-30T13:38:25Z</time>
					</trkpt>
					<trkpt lat="41.052890" lon="0.928570">
						<ele>112</ele>
						<time>2026-04-30T13:38:41Z</time>
					</trkpt>
					<trkpt lat="41.053650" lon="0.929490">
						<ele>109</ele>
						<time>2026-04-30T13:38:59Z</time>
					</trkpt>
					<trkpt lat="41.053940" lon="0.929850">
						<ele>107</ele>
						<time>2026-04-30T13:39:06Z</time>
					</trkpt>
					<trkpt lat="41.054160" lon="0.930120">
						<ele>106</ele>
						<time>2026-04-30T13:39:12Z</time>
					</trkpt>
					<trkpt lat="41.054220" lon="0.930190">
						<ele>106</ele>
						<time>2026-04-30T13:39:13Z</time>
					</trkpt>
					<trkpt lat="41.055340" lon="0.931560">
						<ele>111</ele>
						<time>2026-04-30T13:39:40Z</time>
					</trkpt>
					<trkpt lat="41.057280" lon="0.933920">
						<ele>109</ele>
						<time>2026-04-30T13:40:27Z</time>
					</trkpt>
					<trkpt lat="41.057480" lon="0.934160">
						<ele>109</ele>
						<time>2026-04-30T13:40:32Z</time>
					</trkpt>
					<trkpt lat="41.057820" lon="0.934580">
						<ele>110</ele>
						<time>2026-04-30T13:40:40Z</time>
					</trkpt>
					<trkpt lat="41.059580" lon="0.936710">
						<ele>110</ele>
						<time>2026-04-30T13:41:23Z</time>
					</trkpt>
					<trkpt lat="41.059680" lon="0.936840">
						<ele>110</ele>
						<time>2026-04-30T13:41:25Z</time>
					</trkpt>
					<trkpt lat="41.059770" lon="0.936930">
						<ele>110</ele>
						<time>2026-04-30T13:41:27Z</time>
					</trkpt>
					<trkpt lat="41.060130" lon="0.937380">
						<ele>109</ele>
						<time>2026-04-30T13:41:36Z</time>
					</trkpt>
					<trkpt lat="41.060910" lon="0.938330">
						<ele>109</ele>
						<time>2026-04-30T13:41:55Z</time>
					</trkpt>
					<trkpt lat="41.061820" lon="0.939440">
						<ele>109</ele>
						<time>2026-04-30T13:42:17Z</time>
					</trkpt>
					<trkpt lat="41.062030" lon="0.939690">
						<ele>108</ele>
						<time>2026-04-30T13:42:22Z</time>
					</trkpt>
					<trkpt lat="41.063560" lon="0.941550">
						<ele>101</ele>
						<time>2026-04-30T13:42:59Z</time>
					</trkpt>
					<trkpt lat="41.065320" lon="0.943700">
						<ele>99</ele>
						<time>2026-04-30T13:43:41Z</time>
					</trkpt>
					<trkpt lat="41.065500" lon="0.943910">
						<ele>100</ele>
						<time>2026-04-30T13:43:45Z</time>
					</trkpt>
					<trkpt lat="41.066200" lon="0.944770">
						<ele>101</ele>
						<time>2026-04-30T13:44:02Z</time>
					</trkpt>
					<trkpt lat="41.066530" lon="0.945170">
						<ele>101</ele>
						<time>2026-04-30T13:44:10Z</time>
					</trkpt>
					<trkpt lat="41.067710" lon="0.946600">
						<ele>107</ele>
						<time>2026-04-30T13:44:39Z</time>
					</trkpt>
					<trkpt lat="41.067950" lon="0.946890">
						<ele>109</ele>
						<time>2026-04-30T13:44:45Z</time>
					</trkpt>
					<trkpt lat="41.068000" lon="0.946950">
						<ele>109</ele>
						<time>2026-04-30T13:44:46Z</time>
					</trkpt>
					<trkpt lat="41.070010" lon="0.949400">
						<ele>116</ele>
						<time>2026-04-30T13:45:34Z</time>
					</trkpt>
					<trkpt lat="41.071700" lon="0.951460">
						<ele>121</ele>
						<time>2026-04-30T13:46:15Z</time>
					</trkpt>
					<trkpt lat="41.072730" lon="0.952790">
						<ele>122</ele>
						<time>2026-04-30T13:46:41Z</time>
					</trkpt>
					<trkpt lat="41.073060" lon="0.953160">
						<ele>123</ele>
						<time>2026-04-30T13:46:49Z</time>
					</trkpt>
					<trkpt lat="41.073390" lon="0.953490">
						<ele>124</ele>
						<time>2026-04-30T13:46:56Z</time>
					</trkpt>
					<trkpt lat="41.073630" lon="0.953700">
						<ele>124</ele>
						<time>2026-04-30T13:47:01Z</time>
					</trkpt>
					<trkpt lat="41.073860" lon="0.953860">
						<ele>124</ele>
						<time>2026-04-30T13:47:06Z</time>
					</trkpt>
					<trkpt lat="41.074090" lon="0.954020">
						<ele>123</ele>
						<time>2026-04-30T13:47:10Z</time>
					</trkpt>
					<trkpt lat="41.074430" lon="0.954200">
						<ele>122</ele>
						<time>2026-04-30T13:47:17Z</time>
					</trkpt>
					<trkpt lat="41.074820" lon="0.954450">
						<ele>121</ele>
						<time>2026-04-30T13:47:24Z</time>
					</trkpt>
					<trkpt lat="41.075710" lon="0.955020">
						<ele>122</ele>
						<time>2026-04-30T13:47:42Z</time>
					</trkpt>
					<trkpt lat="41.076070" lon="0.955250">
						<ele>122</ele>
						<time>2026-04-30T13:47:49Z</time>
					</trkpt>
					<trkpt lat="41.079020" lon="0.957100">
						<ele>114</ele>
						<time>2026-04-30T13:48:47Z</time>
					</trkpt>
					<trkpt lat="41.079490" lon="0.957450">
						<ele>113</ele>
						<time>2026-04-30T13:48:57Z</time>
					</trkpt>
					<trkpt lat="41.079820" lon="0.957770">
						<ele>111</ele>
						<time>2026-04-30T13:49:04Z</time>
					</trkpt>
					<trkpt lat="41.080090" lon="0.958100">
						<ele>110</ele>
						<time>2026-04-30T13:49:11Z</time>
					</trkpt>
					<trkpt lat="41.080390" lon="0.958540">
						<ele>108</ele>
						<time>2026-04-30T13:49:19Z</time>
					</trkpt>
					<trkpt lat="41.080560" lon="0.958830">
						<ele>107</ele>
						<time>2026-04-30T13:49:23Z</time>
					</trkpt>
					<trkpt lat="41.080760" lon="0.959280">
						<ele>106</ele>
						<time>2026-04-30T13:49:30Z</time>
					</trkpt>
					<trkpt lat="41.080910" lon="0.959730">
						<ele>105</ele>
						<time>2026-04-30T13:49:37Z</time>
					</trkpt>
					<trkpt lat="41.081310" lon="0.961150">
						<ele>101</ele>
						<time>2026-04-30T13:49:57Z</time>
					</trkpt>
					<trkpt lat="41.081340" lon="0.961510">
						<ele>100</ele>
						<time>2026-04-30T13:50:02Z</time>
					</trkpt>
					<trkpt lat="41.081320" lon="0.961550">
						<ele>100</ele>
						<time>2026-04-30T13:50:03Z</time>
					</trkpt>
					<trkpt lat="41.081290" lon="0.961610">
						<ele>100</ele>
						<time>2026-04-30T13:50:04Z</time>
					</trkpt>
					<trkpt lat="41.081290" lon="0.961660">
						<ele>99</ele>
						<time>2026-04-30T13:50:05Z</time>
					</trkpt>
					<trkpt lat="41.081290" lon="0.961730">
						<ele>99</ele>
						<time>2026-04-30T13:50:05Z</time>
					</trkpt>
					<trkpt lat="41.081310" lon="0.961800">
						<ele>99</ele>
						<time>2026-04-30T13:50:06Z</time>
					</trkpt>
					<trkpt lat="41.081350" lon="0.961860">
						<ele>99</ele>
						<time>2026-04-30T13:50:08Z</time>
					</trkpt>
					<trkpt lat="41.081370" lon="0.961880">
						<ele>99</ele>
						<time>2026-04-30T13:50:08Z</time>
					</trkpt>
					<trkpt lat="41.081430" lon="0.961910">
						<ele>99</ele>
						<time>2026-04-30T13:50:09Z</time>
					</trkpt>
					<trkpt lat="41.081590" lon="0.962160">
						<ele>99</ele>
						<time>2026-04-30T13:50:14Z</time>
					</trkpt>
					<trkpt lat="41.081590" lon="0.962170">
						<ele>98</ele>
						<time>2026-04-30T13:50:14Z</time>
					</trkpt>
					<trkpt lat="41.082380" lon="0.964940">
						<ele>93</ele>
						<time>2026-04-30T13:50:53Z</time>
					</trkpt>
					<trkpt lat="41.082560" lon="0.965540">
						<ele>92</ele>
						<time>2026-04-30T13:51:02Z</time>
					</trkpt>
					<trkpt lat="41.082640" lon="0.965770">
						<ele>91</ele>
						<time>2026-04-30T13:51:05Z</time>
					</trkpt>
					<trkpt lat="41.082680" lon="0.965880">
						<ele>90</ele>
						<time>2026-04-30T13:51:07Z</time>
					</trkpt>
					<trkpt lat="41.082770" lon="0.966120">
						<ele>90</ele>
						<time>2026-04-30T13:51:11Z</time>
					</trkpt>
					<trkpt lat="41.083000" lon="0.966620">
						<ele>88</ele>
						<time>2026-04-30T13:51:19Z</time>
					</trkpt>
					<trkpt lat="41.083260" lon="0.967070">
						<ele>86</ele>
						<time>2026-04-30T13:51:26Z</time>
					</trkpt>
					<trkpt lat="41.083550" lon="0.967490">
						<ele>85</ele>
						<time>2026-04-30T13:51:34Z</time>
					</trkpt>
					<trkpt lat="41.083910" lon="0.967910">
						<ele>84</ele>
						<time>2026-04-30T13:51:42Z</time>
					</trkpt>
					<trkpt lat="41.084100" lon="0.968100">
						<ele>84</ele>
						<time>2026-04-30T13:51:47Z</time>
					</trkpt>
					<trkpt lat="41.084350" lon="0.968310">
						<ele>84</ele>
						<time>2026-04-30T13:51:52Z</time>
					</trkpt>
					<trkpt lat="41.084820" lon="0.968670">
						<ele>84</ele>
						<time>2026-04-30T13:52:01Z</time>
					</trkpt>
					<trkpt lat="41.087870" lon="0.970770">
						<ele>85</ele>
						<time>2026-04-30T13:53:03Z</time>
					</trkpt>
					<trkpt lat="41.088280" lon="0.971020">
						<ele>85</ele>
						<time>2026-04-30T13:53:11Z</time>
					</trkpt>
					<trkpt lat="41.088810" lon="0.971280">
						<ele>85</ele>
						<time>2026-04-30T13:53:21Z</time>
					</trkpt>
					<trkpt lat="41.089340" lon="0.971500">
						<ele>85</ele>
						<time>2026-04-30T13:53:31Z</time>
					</trkpt>
					<trkpt lat="41.090040" lon="0.971730">
						<ele>86</ele>
						<time>2026-04-30T13:53:43Z</time>
					</trkpt>
					<trkpt lat="41.091180" lon="0.971990">
						<ele>88</ele>
						<time>2026-04-30T13:54:04Z</time>
					</trkpt>
					<trkpt lat="41.092310" lon="0.972260">
						<ele>90</ele>
						<time>2026-04-30T13:54:24Z</time>
					</trkpt>
					<trkpt lat="41.093070" lon="0.972450">
						<ele>91</ele>
						<time>2026-04-30T13:54:38Z</time>
					</trkpt>
					<trkpt lat="41.093550" lon="0.972570">
						<ele>92</ele>
						<time>2026-04-30T13:54:47Z</time>
					</trkpt>
					<trkpt lat="41.094610" lon="0.972880">
						<ele>94</ele>
						<time>2026-04-30T13:55:06Z</time>
					</trkpt>
					<trkpt lat="41.094940" lon="0.972980">
						<ele>94</ele>
						<time>2026-04-30T13:55:12Z</time>
					</trkpt>
					<trkpt lat="41.095140" lon="0.973040">
						<ele>94</ele>
						<time>2026-04-30T13:55:16Z</time>
					</trkpt>
					<trkpt lat="41.095910" lon="0.973340">
						<ele>93</ele>
						<time>2026-04-30T13:55:30Z</time>
					</trkpt>
					<trkpt lat="41.096410" lon="0.973520">
						<ele>95</ele>
						<time>2026-04-30T13:55:39Z</time>
					</trkpt>
					<trkpt lat="41.096620" lon="0.973610">
						<ele>95</ele>
						<time>2026-04-30T13:55:43Z</time>
					</trkpt>
					<trkpt lat="41.096960" lon="0.973800">
						<ele>96</ele>
						<time>2026-04-30T13:55:50Z</time>
					</trkpt>
					<trkpt lat="41.097190" lon="0.973980">
						<ele>97</ele>
						<time>2026-04-30T13:55:55Z</time>
					</trkpt>
					<trkpt lat="41.098520" lon="0.975210">
						<ele>100</ele>
						<time>2026-04-30T13:56:23Z</time>
					</trkpt>
					<trkpt lat="41.098550" lon="0.975250">
						<ele>100</ele>
						<time>2026-04-30T13:56:24Z</time>
					</trkpt>
					<trkpt lat="41.099710" lon="0.976450">
						<ele>103</ele>
						<time>2026-04-30T13:56:50Z</time>
					</trkpt>
					<trkpt lat="41.100140" lon="0.976900">
						<ele>104</ele>
						<time>2026-04-30T13:57:00Z</time>
					</trkpt>
					<trkpt lat="41.101100" lon="0.977910">
						<ele>105</ele>
						<time>2026-04-30T13:57:22Z</time>
					</trkpt>
					<trkpt lat="41.101250" lon="0.978070">
						<ele>105</ele>
						<time>2026-04-30T13:57:25Z</time>
					</trkpt>
					<trkpt lat="41.102440" lon="0.979300">
						<ele>107</ele>
						<time>2026-04-30T13:57:52Z</time>
					</trkpt>
					<trkpt lat="41.103680" lon="0.980600">
						<ele>109</ele>
						<time>2026-04-30T13:58:20Z</time>
					</trkpt>
					<trkpt lat="41.104070" lon="0.981000">
						<ele>110</ele>
						<time>2026-04-30T13:58:29Z</time>
					</trkpt>
					<trkpt lat="41.104850" lon="0.981900">
						<ele>113</ele>
						<time>2026-04-30T13:58:47Z</time>
					</trkpt>
					<trkpt lat="41.105130" lon="0.982240">
						<ele>114</ele>
						<time>2026-04-30T13:58:54Z</time>
					</trkpt>
					<trkpt lat="41.106520" lon="0.983960">
						<ele>114</ele>
						<time>2026-04-30T13:59:28Z</time>
					</trkpt>
					<trkpt lat="41.107460" lon="0.985130">
						<ele>118</ele>
						<time>2026-04-30T13:59:51Z</time>
					</trkpt>
					<trkpt lat="41.108070" lon="0.985890">
						<ele>117</ele>
						<time>2026-04-30T14:00:06Z</time>
					</trkpt>
					<trkpt lat="41.108530" lon="0.986510">
						<ele>117</ele>
						<time>2026-04-30T14:00:17Z</time>
					</trkpt>
					<trkpt lat="41.109050" lon="0.987320">
						<ele>118</ele>
						<time>2026-04-30T14:00:32Z</time>
					</trkpt>
					<trkpt lat="41.109400" lon="0.987960">
						<ele>118</ele>
						<time>2026-04-30T14:00:42Z</time>
					</trkpt>
					<trkpt lat="41.109500" lon="0.988170">
						<ele>118</ele>
						<time>2026-04-30T14:00:46Z</time>
					</trkpt>
					<trkpt lat="41.110070" lon="0.989380">
						<ele>117</ele>
						<time>2026-04-30T14:01:05Z</time>
					</trkpt>
					<trkpt lat="41.110400" lon="0.990080">
						<ele>116</ele>
						<time>2026-04-30T14:01:16Z</time>
					</trkpt>
					<trkpt lat="41.110630" lon="0.990550">
						<ele>117</ele>
						<time>2026-04-30T14:01:23Z</time>
					</trkpt>
					<trkpt lat="41.110750" lon="0.990810">
						<ele>117</ele>
						<time>2026-04-30T14:01:27Z</time>
					</trkpt>
					<trkpt lat="41.111640" lon="0.992710">
						<ele>118</ele>
						<time>2026-04-30T14:01:57Z</time>
					</trkpt>
					<trkpt lat="41.111810" lon="0.993000">
						<ele>117</ele>
						<time>2026-04-30T14:02:02Z</time>
					</trkpt>
					<trkpt lat="41.111820" lon="0.993030">
						<ele>117</ele>
						<time>2026-04-30T14:02:03Z</time>
					</trkpt>
					<trkpt lat="41.112000" lon="0.993360">
						<ele>116</ele>
						<time>2026-04-30T14:02:08Z</time>
					</trkpt>
					<trkpt lat="41.112870" lon="0.994810">
						<ele>118</ele>
						<time>2026-04-30T14:02:33Z</time>
					</trkpt>
					<trkpt lat="41.112930" lon="0.994920">
						<ele>118</ele>
						<time>2026-04-30T14:02:35Z</time>
					</trkpt>
					<trkpt lat="41.113290" lon="0.995600">
						<ele>118</ele>
						<time>2026-04-30T14:02:46Z</time>
					</trkpt>
					<trkpt lat="41.113550" lon="0.996160">
						<ele>117</ele>
						<time>2026-04-30T14:02:55Z</time>
					</trkpt>
					<trkpt lat="41.113630" lon="0.996340">
						<ele>117</ele>
						<time>2026-04-30T14:02:58Z</time>
					</trkpt>
					<trkpt lat="41.114050" lon="0.997390">
						<ele>116</ele>
						<time>2026-04-30T14:03:14Z</time>
					</trkpt>
					<trkpt lat="41.114590" lon="0.998900">
						<ele>117</ele>
						<time>2026-04-30T14:03:36Z</time>
					</trkpt>
					<trkpt lat="41.114760" lon="0.999420">
						<ele>117</ele>
						<time>2026-04-30T14:03:44Z</time>
					</trkpt>
					<trkpt lat="41.114850" lon="0.999660">
						<ele>117</ele>
						<time>2026-04-30T14:03:47Z</time>
					</trkpt>
					<trkpt lat="41.115070" lon="1.000380">
						<ele>119</ele>
						<time>2026-04-30T14:03:58Z</time>
					</trkpt>
					<trkpt lat="41.115270" lon="1.000930">
						<ele>119</ele>
						<time>2026-04-30T14:04:06Z</time>
					</trkpt>
					<trkpt lat="41.115460" lon="1.001490">
						<ele>120</ele>
						<time>2026-04-30T14:04:14Z</time>
					</trkpt>
					<trkpt lat="41.115790" lon="1.002490">
						<ele>120</ele>
						<time>2026-04-30T14:04:29Z</time>
					</trkpt>
					<trkpt lat="41.115930" lon="1.002960">
						<ele>121</ele>
						<time>2026-04-30T14:04:36Z</time>
					</trkpt>
					<trkpt lat="41.116130" lon="1.003590">
						<ele>122</ele>
						<time>2026-04-30T14:04:45Z</time>
					</trkpt>
					<trkpt lat="41.116290" lon="1.004160">
						<ele>122</ele>
						<time>2026-04-30T14:04:53Z</time>
					</trkpt>
					<trkpt lat="41.116320" lon="1.004290">
						<ele>121</ele>
						<time>2026-04-30T14:04:55Z</time>
					</trkpt>
					<trkpt lat="41.116410" lon="1.004620">
						<ele>121</ele>
						<time>2026-04-30T14:04:59Z</time>
					</trkpt>
					<trkpt lat="41.116500" lon="1.005020">
						<ele>120</ele>
						<time>2026-04-30T14:05:05Z</time>
					</trkpt>
					<trkpt lat="41.116710" lon="1.005810">
						<ele>121</ele>
						<time>2026-04-30T14:05:16Z</time>
					</trkpt>
					<trkpt lat="41.116800" lon="1.006090">
						<ele>122</ele>
						<time>2026-04-30T14:05:20Z</time>
					</trkpt>
					<trkpt lat="41.116930" lon="1.006480">
						<ele>122</ele>
						<time>2026-04-30T14:05:26Z</time>
					</trkpt>
					<trkpt lat="41.117080" lon="1.006820">
						<ele>122</ele>
						<time>2026-04-30T14:05:31Z</time>
					</trkpt>
					<trkpt lat="41.117310" lon="1.007310">
						<ele>123</ele>
						<time>2026-04-30T14:05:39Z</time>
					</trkpt>
					<trkpt lat="41.117400" lon="1.007470">
						<ele>123</ele>
						<time>2026-04-30T14:05:42Z</time>
					</trkpt>
					<trkpt lat="41.117600" lon="1.007810">
						<ele>124</ele>
						<time>2026-04-30T14:05:47Z</time>
					</trkpt>
					<trkpt lat="41.117750" lon="1.008060">
						<ele>125</ele>
						<time>2026-04-30T14:05:52Z</time>
					</trkpt>
					<trkpt lat="41.117800" lon="1.008270">
						<ele>126</ele>
						<time>2026-04-30T14:05:55Z</time>
					</trkpt>
					<trkpt lat="41.117780" lon="1.008320">
						<ele>126</ele>
						<time>2026-04-30T14:05:55Z</time>
					</trkpt>
					<trkpt lat="41.117780" lon="1.008380">
						<ele>126</ele>
						<time>2026-04-30T14:05:56Z</time>
					</trkpt>
					<trkpt lat="41.117650" lon="1.008590">
						<ele>125</ele>
						<time>2026-04-30T14:06:00Z</time>
					</trkpt>
					<trkpt lat="41.117480" lon="1.008730">
						<ele>125</ele>
						<time>2026-04-30T14:06:03Z</time>
					</trkpt>
					<trkpt lat="41.116870" lon="1.009170">
						<ele>123</ele>
						<time>2026-04-30T14:06:16Z</time>
					</trkpt>
					<trkpt lat="41.113500" lon="1.011540">
						<ele>114</ele>
						<time>2026-04-30T14:07:24Z</time>
					</trkpt>
					<trkpt lat="41.113150" lon="1.011830">
						<ele>114</ele>
						<time>2026-04-30T14:07:31Z</time>
					</trkpt>
					<trkpt lat="41.110940" lon="1.014210">
						<ele>106</ele>
						<time>2026-04-30T14:08:22Z</time>
					</trkpt>
					<trkpt lat="41.110600" lon="1.014490">
						<ele>104</ele>
						<time>2026-04-30T14:08:29Z</time>
					</trkpt>
					<trkpt lat="41.106730" lon="1.017290">
						<ele>93</ele>
						<time>2026-04-30T14:09:47Z</time>
					</trkpt>
					<trkpt lat="41.106320" lon="1.017560">
						<ele>93</ele>
						<time>2026-04-30T14:09:55Z</time>
					</trkpt>
					<trkpt lat="41.106050" lon="1.017770">
						<ele>93</ele>
						<time>2026-04-30T14:10:01Z</time>
					</trkpt>
					<trkpt lat="41.105810" lon="1.018000">
						<ele>94</ele>
						<time>2026-04-30T14:10:06Z</time>
					</trkpt>
					<trkpt lat="41.103710" lon="1.020530">
						<ele>86</ele>
						<time>2026-04-30T14:10:57Z</time>
					</trkpt>
					<trkpt lat="41.102670" lon="1.021780">
						<ele>85</ele>
						<time>2026-04-30T14:11:22Z</time>
					</trkpt>
					<trkpt lat="41.102470" lon="1.021960">
						<ele>85</ele>
						<time>2026-04-30T14:11:26Z</time>
					</trkpt>
					<trkpt lat="41.102360" lon="1.022010">
						<ele>84</ele>
						<time>2026-04-30T14:11:28Z</time>
					</trkpt>
					<trkpt lat="41.102300" lon="1.022000">
						<ele>84</ele>
						<time>2026-04-30T14:11:29Z</time>
					</trkpt>
					<trkpt lat="41.102250" lon="1.022010">
						<ele>84</ele>
						<time>2026-04-30T14:11:30Z</time>
					</trkpt>
					<trkpt lat="41.102190" lon="1.022050">
						<ele>83</ele>
						<time>2026-04-30T14:11:31Z</time>
					</trkpt>
					<trkpt lat="41.102150" lon="1.022110">
						<ele>83</ele>
						<time>2026-04-30T14:11:32Z</time>
					</trkpt>
					<trkpt lat="41.102130" lon="1.022180">
						<ele>83</ele>
						<time>2026-04-30T14:11:33Z</time>
					</trkpt>
					<trkpt lat="41.102120" lon="1.022260">
						<ele>83</ele>
						<time>2026-04-30T14:11:34Z</time>
					</trkpt>
					<trkpt lat="41.102130" lon="1.022330">
						<ele>83</ele>
						<time>2026-04-30T14:11:35Z</time>
					</trkpt>
					<trkpt lat="41.102170" lon="1.022410">
						<ele>83</ele>
						<time>2026-04-30T14:11:37Z</time>
					</trkpt>
					<trkpt lat="41.102210" lon="1.022460">
						<ele>83</ele>
						<time>2026-04-30T14:11:38Z</time>
					</trkpt>
					<trkpt lat="41.102270" lon="1.022490">
						<ele>83</ele>
						<time>2026-04-30T14:11:39Z</time>
					</trkpt>
					<trkpt lat="41.102340" lon="1.022490">
						<ele>83</ele>
						<time>2026-04-30T14:11:40Z</time>
					</trkpt>
					<trkpt lat="41.102570" lon="1.022600">
						<ele>84</ele>
						<time>2026-04-30T14:11:44Z</time>
					</trkpt>
					<trkpt lat="41.102690" lon="1.022640">
						<ele>85</ele>
						<time>2026-04-30T14:11:46Z</time>
					</trkpt>
					<trkpt lat="41.102870" lon="1.022750">
						<ele>86</ele>
						<time>2026-04-30T14:11:50Z</time>
					</trkpt>
					<trkpt lat="41.103050" lon="1.022910">
						<ele>87</ele>
						<time>2026-04-30T14:11:54Z</time>
					</trkpt>
					<trkpt lat="41.103120" lon="1.022990">
						<ele>88</ele>
						<time>2026-04-30T14:11:56Z</time>
					</trkpt>
					<trkpt lat="41.103270" lon="1.023220">
						<ele>89</ele>
						<time>2026-04-30T14:12:00Z</time>
					</trkpt>
					<trkpt lat="41.103770" lon="1.024330">
						<ele>87</ele>
						<time>2026-04-30T14:12:17Z</time>
					</trkpt>
					<trkpt lat="41.105840" lon="1.029000">
						<ele>90</ele>
						<time>2026-04-30T14:13:30Z</time>
					</trkpt>
					<trkpt lat="41.106770" lon="1.031070">
						<ele>91</ele>
						<time>2026-04-30T14:14:02Z</time>
					</trkpt>
					<trkpt lat="41.107120" lon="1.031850">
						<ele>90</ele>
						<time>2026-04-30T14:14:14Z</time>
					</trkpt>
					<trkpt lat="41.107740" lon="1.033250">
						<ele>88</ele>
						<time>2026-04-30T14:14:36Z</time>
					</trkpt>
					<trkpt lat="41.108200" lon="1.034280">
						<ele>90</ele>
						<time>2026-04-30T14:14:52Z</time>
					</trkpt>
					<trkpt lat="41.109320" lon="1.036810">
						<ele>91</ele>
						<time>2026-04-30T14:15:31Z</time>
					</trkpt>
					<trkpt lat="41.109680" lon="1.037500">
						<ele>93</ele>
						<time>2026-04-30T14:15:42Z</time>
					</trkpt>
					<trkpt lat="41.109970" lon="1.037940">
						<ele>93</ele>
						<time>2026-04-30T14:15:50Z</time>
					</trkpt>
					<trkpt lat="41.111140" lon="1.039550">
						<ele>90</ele>
						<time>2026-04-30T14:16:20Z</time>
					</trkpt>
					<trkpt lat="41.111210" lon="1.039730">
						<ele>90</ele>
						<time>2026-04-30T14:16:23Z</time>
					</trkpt>
					<trkpt lat="41.111200" lon="1.039800">
						<ele>90</ele>
						<time>2026-04-30T14:16:24Z</time>
					</trkpt>
					<trkpt lat="41.111220" lon="1.039860">
						<ele>89</ele>
						<time>2026-04-30T14:16:25Z</time>
					</trkpt>
					<trkpt lat="41.111250" lon="1.039910">
						<ele>89</ele>
						<time>2026-04-30T14:16:26Z</time>
					</trkpt>
					<trkpt lat="41.111300" lon="1.039940">
						<ele>89</ele>
						<time>2026-04-30T14:16:27Z</time>
					</trkpt>
					<trkpt lat="41.111330" lon="1.039940">
						<ele>89</ele>
						<time>2026-04-30T14:16:27Z</time>
					</trkpt>
					<trkpt lat="41.111370" lon="1.039930">
						<ele>89</ele>
						<time>2026-04-30T14:16:28Z</time>
					</trkpt>
					<trkpt lat="41.111500" lon="1.040060">
						<ele>89</ele>
						<time>2026-04-30T14:16:31Z</time>
					</trkpt>
					<trkpt lat="41.112730" lon="1.041770">
						<ele>93</ele>
						<time>2026-04-30T14:17:03Z</time>
					</trkpt>
					<trkpt lat="41.113220" lon="1.042450">
						<ele>95</ele>
						<time>2026-04-30T14:17:15Z</time>
					</trkpt>
					<trkpt lat="41.113310" lon="1.042680">
						<ele>95</ele>
						<time>2026-04-30T14:17:19Z</time>
					</trkpt>
					<trkpt lat="41.113320" lon="1.042740">
						<ele>95</ele>
						<time>2026-04-30T14:17:19Z</time>
					</trkpt>
					<trkpt lat="41.113340" lon="1.042790">
						<ele>95</ele>
						<time>2026-04-30T14:17:20Z</time>
					</trkpt>
					<trkpt lat="41.113370" lon="1.042820">
						<ele>95</ele>
						<time>2026-04-30T14:17:21Z</time>
					</trkpt>
					<trkpt lat="41.113400" lon="1.042850">
						<ele>95</ele>
						<time>2026-04-30T14:17:22Z</time>
					</trkpt>
					<trkpt lat="41.113440" lon="1.042860">
						<ele>95</ele>
						<time>2026-04-30T14:17:22Z</time>
					</trkpt>
					<trkpt lat="41.113470" lon="1.042860">
						<ele>95</ele>
						<time>2026-04-30T14:17:23Z</time>
					</trkpt>
					<trkpt lat="41.113620" lon="1.043000">
						<ele>95</ele>
						<time>2026-04-30T14:17:26Z</time>
					</trkpt>
					<trkpt lat="41.116450" lon="1.046910">
						<ele>94</ele>
						<time>2026-04-30T14:18:39Z</time>
					</trkpt>
					<trkpt lat="41.116510" lon="1.047140">
						<ele>95</ele>
						<time>2026-04-30T14:18:42Z</time>
					</trkpt>
					<trkpt lat="41.116500" lon="1.047210">
						<ele>95</ele>
						<time>2026-04-30T14:18:43Z</time>
					</trkpt>
					<trkpt lat="41.116510" lon="1.047270">
						<ele>95</ele>
						<time>2026-04-30T14:18:44Z</time>
					</trkpt>
					<trkpt lat="41.116530" lon="1.047330">
						<ele>95</ele>
						<time>2026-04-30T14:18:45Z</time>
					</trkpt>
					<trkpt lat="41.116570" lon="1.047380">
						<ele>95</ele>
						<time>2026-04-30T14:18:46Z</time>
					</trkpt>
					<trkpt lat="41.116610" lon="1.047410">
						<ele>95</ele>
						<time>2026-04-30T14:18:46Z</time>
					</trkpt>
					<trkpt lat="41.116660" lon="1.047420">
						<ele>95</ele>
						<time>2026-04-30T14:18:47Z</time>
					</trkpt>
					<trkpt lat="41.116710" lon="1.047410">
						<ele>95</ele>
						<time>2026-04-30T14:18:48Z</time>
					</trkpt>
					<trkpt lat="41.116750" lon="1.047390">
						<ele>95</ele>
						<time>2026-04-30T14:18:49Z</time>
					</trkpt>
					<trkpt lat="41.116790" lon="1.047340">
						<ele>95</ele>
						<time>2026-04-30T14:18:50Z</time>
					</trkpt>
					<trkpt lat="41.116810" lon="1.047290">
						<ele>95</ele>
						<time>2026-04-30T14:18:51Z</time>
					</trkpt>
					<trkpt lat="41.116820" lon="1.047220">
						<ele>95</ele>
						<time>2026-04-30T14:18:52Z</time>
					</trkpt>
					<trkpt lat="41.116820" lon="1.047160">
						<ele>95</ele>
						<time>2026-04-30T14:18:52Z</time>
					</trkpt>
					<trkpt lat="41.116800" lon="1.047100">
						<ele>95</ele>
						<time>2026-04-30T14:18:53Z</time>
					</trkpt>
					<trkpt lat="41.116760" lon="1.047050">
						<ele>95</ele>
						<time>2026-04-30T14:18:54Z</time>
					</trkpt>
					<trkpt lat="41.116790" lon="1.046810">
						<ele>95</ele>
						<time>2026-04-30T14:18:58Z</time>
					</trkpt>
					<trkpt lat="41.117210" lon="1.045380">
						<ele>98</ele>
						<time>2026-04-30T14:19:18Z</time>
					</trkpt>
					<trkpt lat="41.117380" lon="1.044760">
						<ele>99</ele>
						<time>2026-04-30T14:19:27Z</time>
					</trkpt>
					<trkpt lat="41.117430" lon="1.044550">
						<ele>99</ele>
						<time>2026-04-30T14:19:30Z</time>
					</trkpt>
					<trkpt lat="41.117570" lon="1.043830">
						<ele>99</ele>
						<time>2026-04-30T14:19:40Z</time>
					</trkpt>
					<trkpt lat="41.117630" lon="1.043480">
						<ele>100</ele>
						<time>2026-04-30T14:19:45Z</time>
					</trkpt>
					<trkpt lat="41.117650" lon="1.043310">
						<ele>100</ele>
						<time>2026-04-30T14:19:47Z</time>
					</trkpt>
					<trkpt lat="41.117680" lon="1.042800">
						<ele>101</ele>
						<time>2026-04-30T14:19:54Z</time>
					</trkpt>
					<trkpt lat="41.117680" lon="1.042450">
						<ele>102</ele>
						<time>2026-04-30T14:19:59Z</time>
					</trkpt>
					<trkpt lat="41.117670" lon="1.042180">
						<ele>103</ele>
						<time>2026-04-30T14:20:02Z</time>
					</trkpt>
					<trkpt lat="41.117640" lon="1.041760">
						<ele>103</ele>
						<time>2026-04-30T14:20:08Z</time>
					</trkpt>
					<trkpt lat="41.117650" lon="1.041490">
						<ele>103</ele>
						<time>2026-04-30T14:20:12Z</time>
					</trkpt>
					<trkpt lat="41.117680" lon="1.041460">
						<ele>103</ele>
						<time>2026-04-30T14:20:12Z</time>
					</trkpt>
					<trkpt lat="41.117710" lon="1.041420">
						<ele>103</ele>
						<time>2026-04-30T14:20:13Z</time>
					</trkpt>
					<trkpt lat="41.117960" lon="1.041380">
						<ele>104</ele>
						<time>2026-04-30T14:20:17Z</time>
					</trkpt>
					<trkpt lat="41.119240" lon="1.041460">
						<ele>105</ele>
						<time>2026-04-30T14:20:40Z</time>
					</trkpt>
					<trkpt lat="41.121490" lon="1.041570">
						<ele>113</ele>
						<time>2026-04-30T14:21:20Z</time>
					</trkpt>
					<trkpt lat="41.122250" lon="1.041650">
						<ele>115</ele>
						<time>2026-04-30T14:21:34Z</time>
					</trkpt>
					<trkpt lat="41.123020" lon="1.041750">
						<ele>115</ele>
						<time>2026-04-30T14:21:48Z</time>
					</trkpt>
					<trkpt lat="41.123270" lon="1.041810">
						<ele>116</ele>
						<time>2026-04-30T14:21:52Z</time>
					</trkpt>
					<trkpt lat="41.123520" lon="1.041890">
						<ele>116</ele>
						<time>2026-04-30T14:21:57Z</time>
					</trkpt>
					<trkpt lat="41.124070" lon="1.042140">
						<ele>116</ele>
						<time>2026-04-30T14:22:07Z</time>
					</trkpt>
					<trkpt lat="41.124500" lon="1.042340">
						<ele>115</ele>
						<time>2026-04-30T14:22:15Z</time>
					</trkpt>
					<trkpt lat="41.124710" lon="1.042460">
						<ele>115</ele>
						<time>2026-04-30T14:22:19Z</time>
					</trkpt>
					<trkpt lat="41.124920" lon="1.042590">
						<ele>114</ele>
						<time>2026-04-30T14:22:23Z</time>
					</trkpt>
					<trkpt lat="41.125150" lon="1.042780">
						<ele>114</ele>
						<time>2026-04-30T14:22:28Z</time>
					</trkpt>
					<trkpt lat="41.125390" lon="1.043010">
						<ele>115</ele>
						<time>2026-04-30T14:22:33Z</time>
					</trkpt>
					<trkpt lat="41.125630" lon="1.043300">
						<ele>116</ele>
						<time>2026-04-30T14:22:39Z</time>
					</trkpt>
					<trkpt lat="41.126110" lon="1.043930">
						<ele>117</ele>
						<time>2026-04-30T14:22:51Z</time>
					</trkpt>
					<trkpt lat="41.127690" lon="1.046020">
						<ele>119</ele>
						<time>2026-04-30T14:23:31Z</time>
					</trkpt>
					<trkpt lat="41.127840" lon="1.046200">
						<ele>119</ele>
						<time>2026-04-30T14:23:35Z</time>
					</trkpt>
					<trkpt lat="41.127940" lon="1.046300">
						<ele>120</ele>
						<time>2026-04-30T14:23:37Z</time>
					</trkpt>
					<trkpt lat="41.128060" lon="1.046410">
						<ele>120</ele>
						<time>2026-04-30T14:23:39Z</time>
					</trkpt>
					<trkpt lat="41.128220" lon="1.046540">
						<ele>121</ele>
						<time>2026-04-30T14:23:43Z</time>
					</trkpt>
					<trkpt lat="41.128420" lon="1.046670">
						<ele>121</ele>
						<time>2026-04-30T14:23:47Z</time>
					</trkpt>
					<trkpt lat="41.128660" lon="1.046800">
						<ele>121</ele>
						<time>2026-04-30T14:23:51Z</time>
					</trkpt>
					<trkpt lat="41.129090" lon="1.047010">
						<ele>122</ele>
						<time>2026-04-30T14:23:59Z</time>
					</trkpt>
					<trkpt lat="41.129890" lon="1.047380">
						<ele>121</ele>
						<time>2026-04-30T14:24:14Z</time>
					</trkpt>
					<trkpt lat="41.130070" lon="1.047440">
						<ele>121</ele>
						<time>2026-04-30T14:24:18Z</time>
					</trkpt>
					<trkpt lat="41.130180" lon="1.047460">
						<ele>121</ele>
						<time>2026-04-30T14:24:20Z</time>
					</trkpt>
					<trkpt lat="41.130920" lon="1.047560">
						<ele>120</ele>
						<time>2026-04-30T14:24:33Z</time>
					</trkpt>
					<trkpt lat="41.131120" lon="1.047550">
						<ele>120</ele>
						<time>2026-04-30T14:24:37Z</time>
					</trkpt>
					<trkpt lat="41.131290" lon="1.047520">
						<ele>120</ele>
						<time>2026-04-30T14:24:40Z</time>
					</trkpt>
					<trkpt lat="41.131430" lon="1.047470">
						<ele>120</ele>
						<time>2026-04-30T14:24:42Z</time>
					</trkpt>
					<trkpt lat="41.132540" lon="1.047070">
						<ele>123</ele>
						<time>2026-04-30T14:25:03Z</time>
					</trkpt>
					<trkpt lat="41.132750" lon="1.047050">
						<ele>123</ele>
						<time>2026-04-30T14:25:06Z</time>
					</trkpt>
					<trkpt lat="41.132860" lon="1.047070">
						<ele>123</ele>
						<time>2026-04-30T14:25:08Z</time>
					</trkpt>
					<trkpt lat="41.132920" lon="1.047120">
						<ele>123</ele>
						<time>2026-04-30T14:25:10Z</time>
					</trkpt>
					<trkpt lat="41.132970" lon="1.047200">
						<ele>123</ele>
						<time>2026-04-30T14:25:11Z</time>
					</trkpt>
					<trkpt lat="41.132980" lon="1.047250">
						<ele>123</ele>
						<time>2026-04-30T14:25:12Z</time>
					</trkpt>
					<trkpt lat="41.133020" lon="1.047330">
						<ele>122</ele>
						<time>2026-04-30T14:25:13Z</time>
					</trkpt>
					<trkpt lat="41.133050" lon="1.047370">
						<ele>122</ele>
						<time>2026-04-30T14:25:14Z</time>
					</trkpt>
					<trkpt lat="41.133120" lon="1.047410">
						<ele>122</ele>
						<time>2026-04-30T14:25:15Z</time>
					</trkpt>
					<trkpt lat="41.133160" lon="1.047410">
						<ele>122</ele>
						<time>2026-04-30T14:25:16Z</time>
					</trkpt>
					<trkpt lat="41.133200" lon="1.047410">
						<ele>122</ele>
						<time>2026-04-30T14:25:17Z</time>
					</trkpt>
					<trkpt lat="41.133270" lon="1.047370">
						<ele>122</ele>
						<time>2026-04-30T14:25:18Z</time>
					</trkpt>
					<trkpt lat="41.133300" lon="1.047340">
						<ele>122</ele>
						<time>2026-04-30T14:25:19Z</time>
					</trkpt>
					<trkpt lat="41.133350" lon="1.047260">
						<ele>122</ele>
						<time>2026-04-30T14:25:20Z</time>
					</trkpt>
					<trkpt lat="41.133360" lon="1.047160">
						<ele>122</ele>
						<time>2026-04-30T14:25:21Z</time>
					</trkpt>
					<trkpt lat="41.133360" lon="1.047120">
						<ele>122</ele>
						<time>2026-04-30T14:25:22Z</time>
					</trkpt>
					<trkpt lat="41.133390" lon="1.046860">
						<ele>122</ele>
						<time>2026-04-30T14:25:25Z</time>
					</trkpt>
					<trkpt lat="41.133450" lon="1.046560">
						<ele>122</ele>
						<time>2026-04-30T14:25:30Z</time>
					</trkpt>
					<trkpt lat="41.133960" lon="1.045480">
						<ele>125</ele>
						<time>2026-04-30T14:25:47Z</time>
					</trkpt>
					<trkpt lat="41.134040" lon="1.045290">
						<ele>125</ele>
						<time>2026-04-30T14:25:50Z</time>
					</trkpt>
					<trkpt lat="41.134270" lon="1.044720">
						<ele>127</ele>
						<time>2026-04-30T14:25:58Z</time>
					</trkpt>
					<trkpt lat="41.134420" lon="1.044220">
						<ele>128</ele>
						<time>2026-04-30T14:26:05Z</time>
					</trkpt>
					<trkpt lat="41.134520" lon="1.043810">
						<ele>129</ele>
						<time>2026-04-30T14:26:11Z</time>
					</trkpt>
					<trkpt lat="41.134620" lon="1.043270">
						<ele>130</ele>
						<time>2026-04-30T14:26:19Z</time>
					</trkpt>
					<trkpt lat="41.134670" lon="1.042930">
						<ele>130</ele>
						<time>2026-04-30T14:26:23Z</time>
					</trkpt>
					<trkpt lat="41.134700" lon="1.042820">
						<ele>131</ele>
						<time>2026-04-30T14:26:25Z</time>
					</trkpt>
					<trkpt lat="41.134720" lon="1.042500">
						<ele>131</ele>
						<time>2026-04-30T14:26:29Z</time>
					</trkpt>
					<trkpt lat="41.134740" lon="1.042230">
						<ele>130</ele>
						<time>2026-04-30T14:26:33Z</time>
					</trkpt>
					<trkpt lat="41.134750" lon="1.041550">
						<ele>130</ele>
						<time>2026-04-30T14:26:42Z</time>
					</trkpt>
					<trkpt lat="41.134760" lon="1.041420">
						<ele>131</ele>
						<time>2026-04-30T14:26:44Z</time>
					</trkpt>
					<trkpt lat="41.134740" lon="1.041050">
						<ele>131</ele>
						<time>2026-04-30T14:26:49Z</time>
					</trkpt>
					<trkpt lat="41.134720" lon="1.040780">
						<ele>132</ele>
						<time>2026-04-30T14:26:52Z</time>
					</trkpt>
					<trkpt lat="41.134680" lon="1.040520">
						<ele>132</ele>
						<time>2026-04-30T14:26:56Z</time>
					</trkpt>
					<trkpt lat="41.134590" lon="1.039940">
						<ele>134</ele>
						<time>2026-04-30T14:27:04Z</time>
					</trkpt>
					<trkpt lat="41.134500" lon="1.039360">
						<ele>135</ele>
						<time>2026-04-30T14:27:12Z</time>
					</trkpt>
					<trkpt lat="41.134460" lon="1.039190">
						<ele>135</ele>
						<time>2026-04-30T14:27:14Z</time>
					</trkpt>
					<trkpt lat="41.134420" lon="1.039050">
						<ele>135</ele>
						<time>2026-04-30T14:27:16Z</time>
					</trkpt>
					<trkpt lat="41.134130" lon="1.037270">
						<ele>138</ele>
						<time>2026-04-30T14:27:40Z</time>
					</trkpt>
					<trkpt lat="41.134010" lon="1.036370">
						<ele>139</ele>
						<time>2026-04-30T14:27:53Z</time>
					</trkpt>
					<trkpt lat="41.133930" lon="1.035640">
						<ele>140</ele>
						<time>2026-04-30T14:28:03Z</time>
					</trkpt>
					<trkpt lat="41.133750" lon="1.032960">
						<ele>143</ele>
						<time>2026-04-30T14:28:39Z</time>
					</trkpt>
					<trkpt lat="41.133680" lon="1.032430">
						<ele>144</ele>
						<time>2026-04-30T14:28:46Z</time>
					</trkpt>
					<trkpt lat="41.133670" lon="1.032360">
						<ele>144</ele>
						<time>2026-04-30T14:28:47Z</time>
					</trkpt>
					<trkpt lat="41.133570" lon="1.031870">
						<ele>143</ele>
						<time>2026-04-30T14:28:54Z</time>
					</trkpt>
					<trkpt lat="41.133420" lon="1.031340">
						<ele>143</ele>
						<time>2026-04-30T14:29:01Z</time>
					</trkpt>
					<trkpt lat="41.132730" lon="1.029430">
						<ele>142</ele>
						<time>2026-04-30T14:29:30Z</time>
					</trkpt>
					<trkpt lat="41.131860" lon="1.027050">
						<ele>139</ele>
						<time>2026-04-30T14:30:05Z</time>
					</trkpt>
					<trkpt lat="41.131560" lon="1.026230">
						<ele>137</ele>
						<time>2026-04-30T14:30:17Z</time>
					</trkpt>
					<trkpt lat="41.131350" lon="1.025600">
						<ele>136</ele>
						<time>2026-04-30T14:30:27Z</time>
					</trkpt>
					<trkpt lat="41.131300" lon="1.025430">
						<ele>136</ele>
						<time>2026-04-30T14:30:29Z</time>
					</trkpt>
					<trkpt lat="41.131110" lon="1.024560">
						<ele>136</ele>
						<time>2026-04-30T14:30:41Z</time>
					</trkpt>
					<trkpt lat="41.130780" lon="1.022220">
						<ele>138</ele>
						<time>2026-04-30T14:31:13Z</time>
					</trkpt>
					<trkpt lat="41.130750" lon="1.022050">
						<ele>138</ele>
						<time>2026-04-30T14:31:15Z</time>
					</trkpt>
					<trkpt lat="41.130680" lon="1.021520">
						<ele>138</ele>
						<time>2026-04-30T14:31:23Z</time>
					</trkpt>
					<trkpt lat="41.130650" lon="1.021360">
						<ele>138</ele>
						<time>2026-04-30T14:31:25Z</time>
					</trkpt>
					<trkpt lat="41.130590" lon="1.021020">
						<ele>139</ele>
						<time>2026-04-30T14:31:29Z</time>
					</trkpt>
					<trkpt lat="41.130410" lon="1.020410">
						<ele>140</ele>
						<time>2026-04-30T14:31:38Z</time>
					</trkpt>
					<trkpt lat="41.130220" lon="1.019920">
						<ele>141</ele>
						<time>2026-04-30T14:31:46Z</time>
					</trkpt>
					<trkpt lat="41.130010" lon="1.019500">
						<ele>142</ele>
						<time>2026-04-30T14:31:52Z</time>
					</trkpt>
					<trkpt lat="41.129690" lon="1.019030">
						<ele>141</ele>
						<time>2026-04-30T14:32:01Z</time>
					</trkpt>
					<trkpt lat="41.128900" lon="1.017980">
						<ele>141</ele>
						<time>2026-04-30T14:32:21Z</time>
					</trkpt>
					<trkpt lat="41.128630" lon="1.017560">
						<ele>141</ele>
						<time>2026-04-30T14:32:28Z</time>
					</trkpt>
					<trkpt lat="41.128340" lon="1.017080">
						<ele>141</ele>
						<time>2026-04-30T14:32:36Z</time>
					</trkpt>
					<trkpt lat="41.128060" lon="1.016520">
						<ele>141</ele>
						<time>2026-04-30T14:32:45Z</time>
					</trkpt>
					<trkpt lat="41.127730" lon="1.015850">
						<ele>140</ele>
						<time>2026-04-30T14:32:56Z</time>
					</trkpt>
					<trkpt lat="41.127620" lon="1.015610">
						<ele>140</ele>
						<time>2026-04-30T14:33:00Z</time>
					</trkpt>
					<trkpt lat="41.127310" lon="1.015110">
						<ele>141</ele>
						<time>2026-04-30T14:33:09Z</time>
					</trkpt>
					<trkpt lat="41.127060" lon="1.014790">
						<ele>141</ele>
						<time>2026-04-30T14:33:15Z</time>
					</trkpt>
					<trkpt lat="41.126790" lon="1.014500">
						<ele>141</ele>
						<time>2026-04-30T14:33:21Z</time>
					</trkpt>
					<trkpt lat="41.126520" lon="1.014260">
						<ele>141</ele>
						<time>2026-04-30T14:33:27Z</time>
					</trkpt>
					<trkpt lat="41.125990" lon="1.013900">
						<ele>141</ele>
						<time>2026-04-30T14:33:37Z</time>
					</trkpt>
					<trkpt lat="41.125760" lon="1.013620">
						<ele>141</ele>
						<time>2026-04-30T14:33:43Z</time>
					</trkpt>
					<trkpt lat="41.125590" lon="1.013390">
						<ele>141</ele>
						<time>2026-04-30T14:33:47Z</time>
					</trkpt>
					<trkpt lat="41.125460" lon="1.013190">
						<ele>140</ele>
						<time>2026-04-30T14:33:51Z</time>
					</trkpt>
					<trkpt lat="41.125360" lon="1.013000">
						<ele>140</ele>
						<time>2026-04-30T14:33:54Z</time>
					</trkpt>
					<trkpt lat="41.124920" lon="1.011960">
						<ele>140</ele>
						<time>2026-04-30T14:34:10Z</time>
					</trkpt>
					<trkpt lat="41.124660" lon="1.011130">
						<ele>142</ele>
						<time>2026-04-30T14:34:22Z</time>
					</trkpt>
					<trkpt lat="41.124290" lon="1.010430">
						<ele>142</ele>
						<time>2026-04-30T14:34:33Z</time>
					</trkpt>
					<trkpt lat="41.123810" lon="1.009510">
						<ele>140</ele>
						<time>2026-04-30T14:34:48Z</time>
					</trkpt>
					<trkpt lat="41.123170" lon="1.008290">
						<ele>139</ele>
						<time>2026-04-30T14:35:08Z</time>
					</trkpt>
					<trkpt lat="41.122900" lon="1.007800">
						<ele>139</ele>
						<time>2026-04-30T14:35:16Z</time>
					</trkpt>
					<trkpt lat="41.122460" lon="1.006980">
						<ele>139</ele>
						<time>2026-04-30T14:35:30Z</time>
					</trkpt>
					<trkpt lat="41.122130" lon="1.006370">
						<ele>137</ele>
						<time>2026-04-30T14:35:40Z</time>
					</trkpt>
					<trkpt lat="41.121780" lon="1.005710">
						<ele>136</ele>
						<time>2026-04-30T14:35:51Z</time>
					</trkpt>
					<trkpt lat="41.121250" lon="1.004760">
						<ele>136</ele>
						<time>2026-04-30T14:36:07Z</time>
					</trkpt>
					<trkpt lat="41.120910" lon="1.004150">
						<ele>135</ele>
						<time>2026-04-30T14:36:17Z</time>
					</trkpt>
					<trkpt lat="41.121780" lon="1.003310">
						<ele>137</ele>
						<time>2026-04-30T14:36:36Z</time>
					</trkpt>
					<trkpt lat="41.122090" lon="1.002900">
						<ele>137</ele>
						<time>2026-04-30T14:36:44Z</time>
					</trkpt>
					<trkpt lat="41.122640" lon="1.002040">
						<ele>137</ele>
						<time>2026-04-30T14:36:59Z</time>
					</trkpt>
					<trkpt lat="41.122970" lon="1.001530">
						<ele>138</ele>
						<time>2026-04-30T14:37:08Z</time>
					</trkpt>
					<trkpt lat="41.123230" lon="1.001050">
						<ele>138</ele>
						<time>2026-04-30T14:37:16Z</time>
					</trkpt>
					<trkpt lat="41.123490" lon="1.000460">
						<ele>139</ele>
						<time>2026-04-30T14:37:25Z</time>
					</trkpt>
					<trkpt lat="41.123510" lon="1.000400">
						<ele>139</ele>
						<time>2026-04-30T14:37:26Z</time>
					</trkpt>
					<trkpt lat="41.123710" lon="0.999740">
						<ele>139</ele>
						<time>2026-04-30T14:37:35Z</time>
					</trkpt>
					<trkpt lat="41.123870" lon="0.998860">
						<ele>140</ele>
						<time>2026-04-30T14:37:47Z</time>
					</trkpt>
					<trkpt lat="41.123930" lon="0.998690">
						<ele>140</ele>
						<time>2026-04-30T14:37:50Z</time>
					</trkpt>
					<trkpt lat="41.123980" lon="0.998620">
						<ele>140</ele>
						<time>2026-04-30T14:37:51Z</time>
					</trkpt>
					<trkpt lat="41.124040" lon="0.998600">
						<ele>140</ele>
						<time>2026-04-30T14:37:52Z</time>
					</trkpt>
					<trkpt lat="41.124100" lon="0.998560">
						<ele>140</ele>
						<time>2026-04-30T14:37:54Z</time>
					</trkpt>
					<trkpt lat="41.124150" lon="0.998500">
						<ele>140</ele>
						<time>2026-04-30T14:37:55Z</time>
					</trkpt>
					<trkpt lat="41.124190" lon="0.998420">
						<ele>140</ele>
						<time>2026-04-30T14:37:56Z</time>
					</trkpt>
					<trkpt lat="41.124200" lon="0.998330">
						<ele>140</ele>
						<time>2026-04-30T14:37:57Z</time>
					</trkpt>
					<trkpt lat="41.124200" lon="0.998240">
						<ele>140</ele>
						<time>2026-04-30T14:37:58Z</time>
					</trkpt>
					<trkpt lat="41.124170" lon="0.998150">
						<ele>141</ele>
						<time>2026-04-30T14:38:00Z</time>
					</trkpt>
					<trkpt lat="41.124120" lon="0.998070">
						<ele>141</ele>
						<time>2026-04-30T14:38:01Z</time>
					</trkpt>
					<trkpt lat="41.124060" lon="0.998020">
						<ele>141</ele>
						<time>2026-04-30T14:38:02Z</time>
					</trkpt>
					<trkpt lat="41.124050" lon="0.997790">
						<ele>142</ele>
						<time>2026-04-30T14:38:06Z</time>
					</trkpt>
					<trkpt lat="41.125430" lon="0.989780">
						<ele>153</ele>
						<time>2026-04-30T14:39:56Z</time>
					</trkpt>
					<trkpt lat="41.125520" lon="0.989170">
						<ele>154</ele>
						<time>2026-04-30T14:40:04Z</time>
					</trkpt>
					<trkpt lat="41.125620" lon="0.988290">
						<ele>156</ele>
						<time>2026-04-30T14:40:16Z</time>
					</trkpt>
					<trkpt lat="41.125830" lon="0.986060">
						<ele>161</ele>
						<time>2026-04-30T14:40:46Z</time>
					</trkpt>
					<trkpt lat="41.125890" lon="0.985580">
						<ele>163</ele>
						<time>2026-04-30T14:40:53Z</time>
					</trkpt>
					<trkpt lat="41.125910" lon="0.985460">
						<ele>163</ele>
						<time>2026-04-30T14:40:54Z</time>
					</trkpt>
					<trkpt lat="41.126100" lon="0.984090">
						<ele>164</ele>
						<time>2026-04-30T14:41:13Z</time>
					</trkpt>
					<trkpt lat="41.126400" lon="0.982460">
						<ele>166</ele>
						<time>2026-04-30T14:41:35Z</time>
					</trkpt>
					<trkpt lat="41.126690" lon="0.981120">
						<ele>170</ele>
						<time>2026-04-30T14:41:54Z</time>
					</trkpt>
					<trkpt lat="41.126790" lon="0.980660">
						<ele>170</ele>
						<time>2026-04-30T14:42:00Z</time>
					</trkpt>
					<trkpt lat="41.126930" lon="0.979900">
						<ele>171</ele>
						<time>2026-04-30T14:42:11Z</time>
					</trkpt>
					<trkpt lat="41.126950" lon="0.979820">
						<ele>171</ele>
						<time>2026-04-30T14:42:12Z</time>
					</trkpt>
					<trkpt lat="41.126960" lon="0.979760">
						<ele>171</ele>
						<time>2026-04-30T14:42:13Z</time>
					</trkpt>
					<trkpt lat="41.127210" lon="0.978760">
						<ele>171</ele>
						<time>2026-04-30T14:42:27Z</time>
					</trkpt>
					<trkpt lat="41.127260" lon="0.978510">
						<ele>171</ele>
						<time>2026-04-30T14:42:31Z</time>
					</trkpt>
					<trkpt lat="41.127300" lon="0.978310">
						<ele>171</ele>
						<time>2026-04-30T14:42:33Z</time>
					</trkpt>
					<trkpt lat="41.127370" lon="0.977950">
						<ele>171</ele>
						<time>2026-04-30T14:42:38Z</time>
					</trkpt>
					<trkpt lat="41.127440" lon="0.977530">
						<ele>171</ele>
						<time>2026-04-30T14:42:44Z</time>
					</trkpt>
					<trkpt lat="41.127470" lon="0.977100">
						<ele>170</ele>
						<time>2026-04-30T14:42:50Z</time>
					</trkpt>
					<trkpt lat="41.127490" lon="0.976740">
						<ele>169</ele>
						<time>2026-04-30T14:42:55Z</time>
					</trkpt>
					<trkpt lat="41.127490" lon="0.976480">
						<ele>169</ele>
						<time>2026-04-30T14:42:58Z</time>
					</trkpt>
					<trkpt lat="41.127460" lon="0.976110">
						<ele>168</ele>
						<time>2026-04-30T14:43:03Z</time>
					</trkpt>
					<trkpt lat="41.127380" lon="0.975470">
						<ele>167</ele>
						<time>2026-04-30T14:43:12Z</time>
					</trkpt>
					<trkpt lat="41.127360" lon="0.975340">
						<ele>167</ele>
						<time>2026-04-30T14:43:14Z</time>
					</trkpt>
					<trkpt lat="41.127350" lon="0.975060">
						<ele>167</ele>
						<time>2026-04-30T14:43:17Z</time>
					</trkpt>
					<trkpt lat="41.127360" lon="0.974770">
						<ele>169</ele>
						<time>2026-04-30T14:43:21Z</time>
					</trkpt>
					<trkpt lat="41.127390" lon="0.974490">
						<ele>171</ele>
						<time>2026-04-30T14:43:25Z</time>
					</trkpt>
					<trkpt lat="41.127450" lon="0.974230">
						<ele>173</ele>
						<time>2026-04-30T14:43:29Z</time>
					</trkpt>
					<trkpt lat="41.127540" lon="0.973970">
						<ele>174</ele>
						<time>2026-04-30T14:43:33Z</time>
					</trkpt>
					<trkpt lat="41.128020" lon="0.972690">
						<ele>177</ele>
						<time>2026-04-30T14:43:52Z</time>
					</trkpt>
					<trkpt lat="41.128070" lon="0.972500">
						<ele>178</ele>
						<time>2026-04-30T14:43:54Z</time>
					</trkpt>
					<trkpt lat="41.128130" lon="0.972140">
						<ele>177</ele>
						<time>2026-04-30T14:43:59Z</time>
					</trkpt>
					<trkpt lat="41.128150" lon="0.971730">
						<ele>176</ele>
						<time>2026-04-30T14:44:05Z</time>
					</trkpt>
					<trkpt lat="41.128170" lon="0.970580">
						<ele>176</ele>
						<time>2026-04-30T14:44:20Z</time>
					</trkpt>
					<trkpt lat="41.128170" lon="0.970350">
						<ele>176</ele>
						<time>2026-04-30T14:44:23Z</time>
					</trkpt>
					<trkpt lat="41.128150" lon="0.970230">
						<ele>176</ele>
						<time>2026-04-30T14:44:25Z</time>
					</trkpt>
					<trkpt lat="41.128110" lon="0.970110">
						<ele>176</ele>
						<time>2026-04-30T14:44:27Z</time>
					</trkpt>
					<trkpt lat="41.128060" lon="0.970020">
						<ele>176</ele>
						<time>2026-04-30T14:44:28Z</time>
					</trkpt>
					<trkpt lat="41.127990" lon="0.969900">
						<ele>176</ele>
						<time>2026-04-30T14:44:30Z</time>
					</trkpt>
					<trkpt lat="41.127720" lon="0.969640">
						<ele>175</ele>
						<time>2026-04-30T14:44:36Z</time>
					</trkpt>
					<trkpt lat="41.127620" lon="0.969520">
						<ele>174</ele>
						<time>2026-04-30T14:44:39Z</time>
					</trkpt>
					<trkpt lat="41.127550" lon="0.969390">
						<ele>174</ele>
						<time>2026-04-30T14:44:41Z</time>
					</trkpt>
					<trkpt lat="41.127500" lon="0.969240">
						<ele>175</ele>
						<time>2026-04-30T14:44:43Z</time>
					</trkpt>
					<trkpt lat="41.127490" lon="0.969110">
						<ele>175</ele>
						<time>2026-04-30T14:44:45Z</time>
					</trkpt>
					<trkpt lat="41.127490" lon="0.968980">
						<ele>174</ele>
						<time>2026-04-30T14:44:46Z</time>
					</trkpt>
					<trkpt lat="41.127520" lon="0.968810">
						<ele>174</ele>
						<time>2026-04-30T14:44:49Z</time>
					</trkpt>
					<trkpt lat="41.127610" lon="0.968530">
						<ele>175</ele>
						<time>2026-04-30T14:44:53Z</time>
					</trkpt>
					<trkpt lat="41.127670" lon="0.968360">
						<ele>176</ele>
						<time>2026-04-30T14:44:55Z</time>
					</trkpt>
					<trkpt lat="41.127740" lon="0.968220">
						<ele>176</ele>
						<time>2026-04-30T14:44:58Z</time>
					</trkpt>
					<trkpt lat="41.127830" lon="0.968070">
						<ele>175</ele>
						<time>2026-04-30T14:45:00Z</time>
					</trkpt>
					<trkpt lat="41.128600" lon="0.967150">
						<ele>177</ele>
						<time>2026-04-30T14:45:19Z</time>
					</trkpt>
					<trkpt lat="41.128690" lon="0.967060">
						<ele>177</ele>
						<time>2026-04-30T14:45:21Z</time>
					</trkpt>
					<trkpt lat="41.128800" lon="0.966980">
						<ele>177</ele>
						<time>2026-04-30T14:45:23Z</time>
					</trkpt>
					<trkpt lat="41.129050" lon="0.966870">
						<ele>178</ele>
						<time>2026-04-30T14:45:28Z</time>
					</trkpt>
					<trkpt lat="41.129370" lon="0.966730">
						<ele>180</ele>
						<time>2026-04-30T14:45:34Z</time>
					</trkpt>
					<trkpt lat="41.130010" lon="0.966110">
						<ele>178</ele>
						<time>2026-04-30T14:45:48Z</time>
					</trkpt>
					<trkpt lat="41.130150" lon="0.966000">
						<ele>177</ele>
						<time>2026-04-30T14:45:51Z</time>
					</trkpt>
					<trkpt lat="41.130550" lon="0.965800">
						<ele>179</ele>
						<time>2026-04-30T14:45:58Z</time>
					</trkpt>
					<trkpt lat="41.130820" lon="0.965570">
						<ele>181</ele>
						<time>2026-04-30T14:46:04Z</time>
					</trkpt>
					<trkpt lat="41.131090" lon="0.965350">
						<ele>182</ele>
						<time>2026-04-30T14:46:09Z</time>
					</trkpt>
					<trkpt lat="41.131180" lon="0.965120">
						<ele>181</ele>
						<time>2026-04-30T14:46:13Z</time>
					</trkpt>
					<trkpt lat="41.131250" lon="0.964920">
						<ele>181</ele>
						<time>2026-04-30T14:46:16Z</time>
					</trkpt>
					<trkpt lat="41.131320" lon="0.964900">
						<ele>182</ele>
						<time>2026-04-30T14:46:17Z</time>
					</trkpt>
					<trkpt lat="41.131360" lon="0.964860">
						<ele>182</ele>
						<time>2026-04-30T14:46:18Z</time>
					</trkpt>
					<trkpt lat="41.131380" lon="0.964780">
						<ele>182</ele>
						<time>2026-04-30T14:46:19Z</time>
					</trkpt>
					<trkpt lat="41.131390" lon="0.964740">
						<ele>182</ele>
						<time>2026-04-30T14:46:20Z</time>
					</trkpt>
					<trkpt lat="41.131370" lon="0.964650">
						<ele>182</ele>
						<time>2026-04-30T14:46:21Z</time>
					</trkpt>
					<trkpt lat="41.131320" lon="0.964590">
						<ele>181</ele>
						<time>2026-04-30T14:46:22Z</time>
					</trkpt>
					<trkpt lat="41.131250" lon="0.964570">
						<ele>180</ele>
						<time>2026-04-30T14:46:24Z</time>
					</trkpt>
					<trkpt lat="41.131190" lon="0.964600">
						<ele>179</ele>
						<time>2026-04-30T14:46:25Z</time>
					</trkpt>
					<trkpt lat="41.131140" lon="0.964550">
						<ele>178</ele>
						<time>2026-04-30T14:46:26Z</time>
					</trkpt>
					<trkpt lat="41.131120" lon="0.964470">
						<ele>177</ele>
						<time>2026-04-30T14:46:27Z</time>
					</trkpt>
					<trkpt lat="41.131070" lon="0.964240">
						<ele>175</ele>
						<time>2026-04-30T14:46:30Z</time>
					</trkpt>
					<trkpt lat="41.131050" lon="0.964150">
						<ele>175</ele>
						<time>2026-04-30T14:46:31Z</time>
					</trkpt>
					<trkpt lat="41.131020" lon="0.964100">
						<ele>174</ele>
						<time>2026-04-30T14:46:32Z</time>
					</trkpt>
					<trkpt lat="41.130990" lon="0.964040">
						<ele>174</ele>
						<time>2026-04-30T14:46:33Z</time>
					</trkpt>
					<trkpt lat="41.130520" lon="0.963530">
						<ele>177</ele>
						<time>2026-04-30T14:46:44Z</time>
					</trkpt>
					<trkpt lat="41.130490" lon="0.963480">
						<ele>178</ele>
						<time>2026-04-30T14:46:45Z</time>
					</trkpt>
					<trkpt lat="41.130470" lon="0.963440">
						<ele>178</ele>
						<time>2026-04-30T14:46:45Z</time>
					</trkpt>
					<trkpt lat="41.130460" lon="0.963380">
						<ele>179</ele>
						<time>2026-04-30T14:46:46Z</time>
					</trkpt>
					<trkpt lat="41.130430" lon="0.963130">
						<ele>182</ele>
						<time>2026-04-30T14:46:50Z</time>
					</trkpt>
					<trkpt lat="41.130440" lon="0.963040">
						<ele>183</ele>
						<time>2026-04-30T14:46:51Z</time>
					</trkpt>
					<trkpt lat="41.130460" lon="0.962960">
						<ele>184</ele>
						<time>2026-04-30T14:46:52Z</time>
					</trkpt>
					<trkpt lat="41.130500" lon="0.962830">
						<ele>185</ele>
						<time>2026-04-30T14:46:54Z</time>
					</trkpt>
					<trkpt lat="41.130500" lon="0.962800">
						<ele>185</ele>
						<time>2026-04-30T14:46:54Z</time>
					</trkpt>
					<trkpt lat="41.130490" lon="0.962770">
						<ele>186</ele>
						<time>2026-04-30T14:46:55Z</time>
					</trkpt>
					<trkpt lat="41.130470" lon="0.962750">
						<ele>186</ele>
						<time>2026-04-30T14:46:55Z</time>
					</trkpt>
					<trkpt lat="41.130450" lon="0.962750">
						<ele>186</ele>
						<time>2026-04-30T14:46:56Z</time>
					</trkpt>
					<trkpt lat="41.130460" lon="0.962690">
						<ele>187</ele>
						<time>2026-04-30T14:46:56Z</time>
					</trkpt>
					<trkpt lat="41.130500" lon="0.962560">
						<ele>188</ele>
						<time>2026-04-30T14:46:58Z</time>
					</trkpt>
					<trkpt lat="41.130490" lon="0.962490">
						<ele>189</ele>
						<time>2026-04-30T14:46:59Z</time>
					</trkpt>
					<trkpt lat="41.130740" lon="0.962150">
						<ele>187</ele>
						<time>2026-04-30T14:47:06Z</time>
					</trkpt>
					<trkpt lat="41.130820" lon="0.962020">
						<ele>187</ele>
						<time>2026-04-30T14:47:08Z</time>
					</trkpt>
					<trkpt lat="41.130920" lon="0.961810">
						<ele>187</ele>
						<time>2026-04-30T14:47:11Z</time>
					</trkpt>
					<trkpt lat="41.130870" lon="0.961740">
						<ele>188</ele>
						<time>2026-04-30T14:47:12Z</time>
					</trkpt>
					<trkpt lat="41.130930" lon="0.961510">
						<ele>188</ele>
						<time>2026-04-30T14:47:16Z</time>
					</trkpt>
					<trkpt lat="41.131010" lon="0.961340">
						<ele>187</ele>
						<time>2026-04-30T14:47:18Z</time>
					</trkpt>
					<trkpt lat="41.130930" lon="0.961200">
						<ele>189</ele>
						<time>2026-04-30T14:47:21Z</time>
					</trkpt>
					<trkpt lat="41.130820" lon="0.961070">
						<ele>190</ele>
						<time>2026-04-30T14:47:23Z</time>
					</trkpt>
					<trkpt lat="41.130750" lon="0.960970">
						<ele>191</ele>
						<time>2026-04-30T14:47:25Z</time>
					</trkpt>
					<trkpt lat="41.130630" lon="0.960770">
						<ele>193</ele>
						<time>2026-04-30T14:47:29Z</time>
					</trkpt>
					<trkpt lat="41.130600" lon="0.960680">
						<ele>194</ele>
						<time>2026-04-30T14:47:30Z</time>
					</trkpt>
					<trkpt lat="41.130600" lon="0.960580">
						<ele>194</ele>
						<time>2026-04-30T14:47:31Z</time>
					</trkpt>
					<trkpt lat="41.130600" lon="0.960480">
						<ele>194</ele>
						<time>2026-04-30T14:47:33Z</time>
					</trkpt>
					<trkpt lat="41.130650" lon="0.960270">
						<ele>194</ele>
						<time>2026-04-30T14:47:36Z</time>
					</trkpt>
					<trkpt lat="41.130640" lon="0.960120">
						<ele>194</ele>
						<time>2026-04-30T14:47:38Z</time>
					</trkpt>
					<trkpt lat="41.130620" lon="0.960010">
						<ele>194</ele>
						<time>2026-04-30T14:47:39Z</time>
					</trkpt>
					<trkpt lat="41.130560" lon="0.959870">
						<ele>196</ele>
						<time>2026-04-30T14:47:41Z</time>
					</trkpt>
					<trkpt lat="41.130420" lon="0.959720">
						<ele>198</ele>
						<time>2026-04-30T14:47:45Z</time>
					</trkpt>
					<trkpt lat="41.130390" lon="0.959680">
						<ele>198</ele>
						<time>2026-04-30T14:47:45Z</time>
					</trkpt>
					<trkpt lat="41.130330" lon="0.959610">
						<ele>199</ele>
						<time>2026-04-30T14:47:47Z</time>
					</trkpt>
					<trkpt lat="41.130280" lon="0.959510">
						<ele>200</ele>
						<time>2026-04-30T14:47:48Z</time>
					</trkpt>
					<trkpt lat="41.130230" lon="0.959320">
						<ele>201</ele>
						<time>2026-04-30T14:47:51Z</time>
					</trkpt>
					<trkpt lat="41.130110" lon="0.958600">
						<ele>204</ele>
						<time>2026-04-30T14:48:01Z</time>
					</trkpt>
					<trkpt lat="41.130060" lon="0.958450">
						<ele>205</ele>
						<time>2026-04-30T14:48:03Z</time>
					</trkpt>
					<trkpt lat="41.129980" lon="0.958330">
						<ele>205</ele>
						<time>2026-04-30T14:48:05Z</time>
					</trkpt>
					<trkpt lat="41.129930" lon="0.958270">
						<ele>205</ele>
						<time>2026-04-30T14:48:06Z</time>
					</trkpt>
					<trkpt lat="41.129820" lon="0.958190">
						<ele>206</ele>
						<time>2026-04-30T14:48:09Z</time>
					</trkpt>
					<trkpt lat="41.129370" lon="0.957900">
						<ele>208</ele>
						<time>2026-04-30T14:48:18Z</time>
					</trkpt>
					<trkpt lat="41.129280" lon="0.957860">
						<ele>208</ele>
						<time>2026-04-30T14:48:19Z</time>
					</trkpt>
					<trkpt lat="41.129060" lon="0.957800">
						<ele>209</ele>
						<time>2026-04-30T14:48:23Z</time>
					</trkpt>
					<trkpt lat="41.129060" lon="0.957830">
						<ele>209</ele>
						<time>2026-04-30T14:48:24Z</time>
					</trkpt>
					<trkpt lat="41.129100" lon="0.958280">
						<ele>208</ele>
						<time>2026-04-30T14:48:30Z</time>
					</trkpt>
					<trkpt lat="41.129080" lon="0.958350">
						<ele>208</ele>
						<time>2026-04-30T14:48:31Z</time>
					</trkpt>
					<trkpt lat="41.129050" lon="0.958380">
						<ele>208</ele>
						<time>2026-04-30T14:48:31Z</time>
					</trkpt>
					<trkpt lat="41.129030" lon="0.958390">
						<ele>208</ele>
						<time>2026-04-30T14:48:32Z</time>
					</trkpt>
					<trkpt lat="41.128870" lon="0.958320">
						<ele>209</ele>
						<time>2026-04-30T14:48:35Z</time>
					</trkpt>
					<trkpt lat="41.128830" lon="0.958320">
						<ele>209</ele>
						<time>2026-04-30T14:48:35Z</time>
					</trkpt>
					<trkpt lat="41.128740" lon="0.958330">
						<ele>210</ele>
						<time>2026-04-30T14:48:37Z</time>
					</trkpt>
					<trkpt lat="41.128660" lon="0.958370">
						<ele>210</ele>
						<time>2026-04-30T14:48:39Z</time>
					</trkpt>
					<trkpt lat="41.128340" lon="0.958540">
						<ele>211</ele>
						<time>2026-04-30T14:48:45Z</time>
					</trkpt>
					<trkpt lat="41.128130" lon="0.958650">
						<ele>210</ele>
						<time>2026-04-30T14:48:49Z</time>
					</trkpt>
					<trkpt lat="41.127990" lon="0.958670">
						<ele>210</ele>
						<time>2026-04-30T14:48:51Z</time>
					</trkpt>
					<trkpt lat="41.127950" lon="0.958660">
						<ele>210</ele>
						<time>2026-04-30T14:48:52Z</time>
					</trkpt>
					<trkpt lat="41.127880" lon="0.958630">
						<ele>211</ele>
						<time>2026-04-30T14:48:53Z</time>
					</trkpt>
					<trkpt lat="41.127810" lon="0.958590">
						<ele>211</ele>
						<time>2026-04-30T14:48:55Z</time>
					</trkpt>
					<trkpt lat="41.127560" lon="0.958360">
						<ele>214</ele>
						<time>2026-04-30T14:49:00Z</time>
					</trkpt>
					<trkpt lat="41.127470" lon="0.958300">
						<ele>215</ele>
						<time>2026-04-30T14:49:02Z</time>
					</trkpt>
					<trkpt lat="41.127400" lon="0.958270">
						<ele>215</ele>
						<time>2026-04-30T14:49:03Z</time>
					</trkpt>
					<trkpt lat="41.127190" lon="0.958250">
						<ele>216</ele>
						<time>2026-04-30T14:49:07Z</time>
					</trkpt>
					<trkpt lat="41.127090" lon="0.958220">
						<ele>217</ele>
						<time>2026-04-30T14:49:09Z</time>
					</trkpt>
					<trkpt lat="41.127040" lon="0.958190">
						<ele>217</ele>
						<time>2026-04-30T14:49:10Z</time>
					</trkpt>
					<trkpt lat="41.126970" lon="0.958130">
						<ele>218</ele>
						<time>2026-04-30T14:49:11Z</time>
					</trkpt>
					<trkpt lat="41.126850" lon="0.958040">
						<ele>220</ele>
						<time>2026-04-30T14:49:14Z</time>
					</trkpt>
					<trkpt lat="41.126510" lon="0.957840">
						<ele>223</ele>
						<time>2026-04-30T14:49:20Z</time>
					</trkpt>
					<trkpt lat="41.126320" lon="0.957750">
						<ele>222</ele>
						<time>2026-04-30T14:49:24Z</time>
					</trkpt>
					<trkpt lat="41.126260" lon="0.957710">
						<ele>222</ele>
						<time>2026-04-30T14:49:25Z</time>
					</trkpt>
					<trkpt lat="41.126200" lon="0.957640">
						<ele>223</ele>
						<time>2026-04-30T14:49:26Z</time>
					</trkpt>
					<trkpt lat="41.126150" lon="0.957560">
						<ele>223</ele>
						<time>2026-04-30T14:49:28Z</time>
					</trkpt>
					<trkpt lat="41.126130" lon="0.957490">
						<ele>224</ele>
						<time>2026-04-30T14:49:29Z</time>
					</trkpt>
					<trkpt lat="41.126070" lon="0.957250">
						<ele>225</ele>
						<time>2026-04-30T14:49:32Z</time>
					</trkpt>
					<trkpt lat="41.126010" lon="0.957120">
						<ele>225</ele>
						<time>2026-04-30T14:49:34Z</time>
					</trkpt>
					<trkpt lat="41.125930" lon="0.956990">
						<ele>224</ele>
						<time>2026-04-30T14:49:37Z</time>
					</trkpt>
					<trkpt lat="41.125850" lon="0.956870">
						<ele>223</ele>
						<time>2026-04-30T14:49:39Z</time>
					</trkpt>
					<trkpt lat="41.125710" lon="0.956720">
						<ele>224</ele>
						<time>2026-04-30T14:49:42Z</time>
					</trkpt>
					<trkpt lat="41.125500" lon="0.956560">
						<ele>227</ele>
						<time>2026-04-30T14:49:46Z</time>
					</trkpt>
					<trkpt lat="41.125060" lon="0.956290">
						<ele>232</ele>
						<time>2026-04-30T14:49:55Z</time>
					</trkpt>
					<trkpt lat="41.124970" lon="0.956200">
						<ele>233</ele>
						<time>2026-04-30T14:49:57Z</time>
					</trkpt>
					<trkpt lat="41.124920" lon="0.956130">
						<ele>234</ele>
						<time>2026-04-30T14:49:58Z</time>
					</trkpt>
					<trkpt lat="41.124860" lon="0.955970">
						<ele>236</ele>
						<time>2026-04-30T14:50:01Z</time>
					</trkpt>
					<trkpt lat="41.124780" lon="0.955620">
						<ele>238</ele>
						<time>2026-04-30T14:50:05Z</time>
					</trkpt>
					<trkpt lat="41.124700" lon="0.955370">
						<ele>240</ele>
						<time>2026-04-30T14:50:09Z</time>
					</trkpt>
					<trkpt lat="41.124610" lon="0.955120">
						<ele>242</ele>
						<time>2026-04-30T14:50:13Z</time>
					</trkpt>
					<trkpt lat="41.124550" lon="0.955010">
						<ele>243</ele>
						<time>2026-04-30T14:50:15Z</time>
					</trkpt>
					<trkpt lat="41.124020" lon="0.954300">
						<ele>245</ele>
						<time>2026-04-30T14:50:28Z</time>
					</trkpt>
					<trkpt lat="41.123940" lon="0.954160">
						<ele>244</ele>
						<time>2026-04-30T14:50:30Z</time>
					</trkpt>
					<trkpt lat="41.123760" lon="0.953650">
						<ele>245</ele>
						<time>2026-04-30T14:50:38Z</time>
					</trkpt>
					<trkpt lat="41.123500" lon="0.952990">
						<ele>247</ele>
						<time>2026-04-30T14:50:48Z</time>
					</trkpt>
					<trkpt lat="41.123340" lon="0.952670">
						<ele>247</ele>
						<time>2026-04-30T14:50:53Z</time>
					</trkpt>
					<trkpt lat="41.123200" lon="0.952370">
						<ele>246</ele>
						<time>2026-04-30T14:50:58Z</time>
					</trkpt>
					<trkpt lat="41.123190" lon="0.952320">
						<ele>246</ele>
						<time>2026-04-30T14:50:58Z</time>
					</trkpt>
					<trkpt lat="41.123170" lon="0.952210">
						<ele>246</ele>
						<time>2026-04-30T14:51:00Z</time>
					</trkpt>
					<trkpt lat="41.123170" lon="0.952070">
						<ele>245</ele>
						<time>2026-04-30T14:51:02Z</time>
					</trkpt>
					<trkpt lat="41.123230" lon="0.951660">
						<ele>244</ele>
						<time>2026-04-30T14:51:07Z</time>
					</trkpt>
					<trkpt lat="41.123390" lon="0.950960">
						<ele>244</ele>
						<time>2026-04-30T14:51:17Z</time>
					</trkpt>
					<trkpt lat="41.123400" lon="0.950900">
						<ele>244</ele>
						<time>2026-04-30T14:51:18Z</time>
					</trkpt>
					<trkpt lat="41.123390" lon="0.950830">
						<ele>244</ele>
						<time>2026-04-30T14:51:19Z</time>
					</trkpt>
					<trkpt lat="41.123380" lon="0.950780">
						<ele>244</ele>
						<time>2026-04-30T14:51:20Z</time>
					</trkpt>
					<trkpt lat="41.123230" lon="0.950610">
						<ele>247</ele>
						<time>2026-04-30T14:51:23Z</time>
					</trkpt>
					<trkpt lat="41.123020" lon="0.950540">
						<ele>248</ele>
						<time>2026-04-30T14:51:27Z</time>
					</trkpt>
					<trkpt lat="41.122650" lon="0.950600">
						<ele>246</ele>
						<time>2026-04-30T14:51:34Z</time>
					</trkpt>
					<trkpt lat="41.122250" lon="0.950640">
						<ele>244</ele>
						<time>2026-04-30T14:51:41Z</time>
					</trkpt>
					<trkpt lat="41.121880" lon="0.950700">
						<ele>243</ele>
						<time>2026-04-30T14:51:47Z</time>
					</trkpt>
					<trkpt lat="41.121530" lon="0.950670">
						<ele>243</ele>
						<time>2026-04-30T14:51:54Z</time>
					</trkpt>
					<trkpt lat="41.121420" lon="0.950720">
						<ele>242</ele>
						<time>2026-04-30T14:51:56Z</time>
					</trkpt>
					<trkpt lat="41.121130" lon="0.950940">
						<ele>238</ele>
						<time>2026-04-30T14:52:02Z</time>
					</trkpt>
					<trkpt lat="41.120680" lon="0.951240">
						<ele>230</ele>
						<time>2026-04-30T14:52:11Z</time>
					</trkpt>
					<trkpt lat="41.120300" lon="0.951430">
						<ele>225</ele>
						<time>2026-04-30T14:52:18Z</time>
					</trkpt>
					<trkpt lat="41.120150" lon="0.951420">
						<ele>225</ele>
						<time>2026-04-30T14:52:21Z</time>
					</trkpt>
					<trkpt lat="41.119920" lon="0.951340">
						<ele>223</ele>
						<time>2026-04-30T14:52:25Z</time>
					</trkpt>
					<trkpt lat="41.119740" lon="0.951310">
						<ele>220</ele>
						<time>2026-04-30T14:52:28Z</time>
					</trkpt>
					<trkpt lat="41.119510" lon="0.951330">
						<ele>216</ele>
						<time>2026-04-30T14:52:32Z</time>
					</trkpt>
					<trkpt lat="41.119300" lon="0.951310">
						<ele>213</ele>
						<time>2026-04-30T14:52:36Z</time>
					</trkpt>
					<trkpt lat="41.119100" lon="0.951250">
						<ele>210</ele>
						<time>2026-04-30T14:52:40Z</time>
					</trkpt>
					<trkpt lat="41.118990" lon="0.951120">
						<ele>209</ele>
						<time>2026-04-30T14:52:42Z</time>
					</trkpt>
					<trkpt lat="41.118890" lon="0.950970">
						<ele>208</ele>
						<time>2026-04-30T14:52:45Z</time>
					</trkpt>
					<trkpt lat="41.118790" lon="0.950830">
						<ele>208</ele>
						<time>2026-04-30T14:52:47Z</time>
					</trkpt>
					<trkpt lat="41.118650" lon="0.950740">
						<ele>207</ele>
						<time>2026-04-30T14:52:50Z</time>
					</trkpt>
					<trkpt lat="41.118540" lon="0.950710">
						<ele>206</ele>
						<time>2026-04-30T14:52:52Z</time>
					</trkpt>
					<trkpt lat="41.118440" lon="0.950690">
						<ele>205</ele>
						<time>2026-04-30T14:52:54Z</time>
					</trkpt>
					<trkpt lat="41.118260" lon="0.950700">
						<ele>204</ele>
						<time>2026-04-30T14:52:57Z</time>
					</trkpt>
					<trkpt lat="41.118130" lon="0.950700">
						<ele>204</ele>
						<time>2026-04-30T14:53:00Z</time>
					</trkpt>
					<trkpt lat="41.118000" lon="0.950660">
						<ele>203</ele>
						<time>2026-04-30T14:53:02Z</time>
					</trkpt>
					<trkpt lat="41.117820" lon="0.950520">
						<ele>203</ele>
						<time>2026-04-30T14:53:06Z</time>
					</trkpt>
					<trkpt lat="41.117660" lon="0.950360">
						<ele>203</ele>
						<time>2026-04-30T14:53:09Z</time>
					</trkpt>
					<trkpt lat="41.117610" lon="0.950320">
						<ele>203</ele>
						<time>2026-04-30T14:53:10Z</time>
					</trkpt>
					<trkpt lat="41.117430" lon="0.950280">
						<ele>203</ele>
						<time>2026-04-30T14:53:13Z</time>
					</trkpt>
					<trkpt lat="41.117110" lon="0.950280">
						<ele>202</ele>
						<time>2026-04-30T14:53:19Z</time>
					</trkpt>
					<trkpt lat="41.116820" lon="0.950220">
						<ele>201</ele>
						<time>2026-04-30T14:53:24Z</time>
					</trkpt>
					<trkpt lat="41.116690" lon="0.950170">
						<ele>201</ele>
						<time>2026-04-30T14:53:27Z</time>
					</trkpt>
					<trkpt lat="41.116540" lon="0.950070">
						<ele>201</ele>
						<time>2026-04-30T14:53:30Z</time>
					</trkpt>
					<trkpt lat="41.116220" lon="0.949770">
						<ele>201</ele>
						<time>2026-04-30T14:53:37Z</time>
					</trkpt>
					<trkpt lat="41.116110" lon="0.949690">
						<ele>200</ele>
						<time>2026-04-30T14:53:39Z</time>
					</trkpt>
					<trkpt lat="41.115890" lon="0.949640">
						<ele>199</ele>
						<time>2026-04-30T14:53:43Z</time>
					</trkpt>
					<trkpt lat="41.115720" lon="0.949570">
						<ele>199</ele>
						<time>2026-04-30T14:53:46Z</time>
					</trkpt>
					<trkpt lat="41.115600" lon="0.949460">
						<ele>199</ele>
						<time>2026-04-30T14:53:49Z</time>
					</trkpt>
					<trkpt lat="41.115550" lon="0.949370">
						<ele>199</ele>
						<time>2026-04-30T14:53:50Z</time>
					</trkpt>
					<trkpt lat="41.115520" lon="0.949270">
						<ele>199</ele>
						<time>2026-04-30T14:53:52Z</time>
					</trkpt>
					<trkpt lat="41.115490" lon="0.949150">
						<ele>199</ele>
						<time>2026-04-30T14:53:53Z</time>
					</trkpt>
					<trkpt lat="41.115490" lon="0.949010">
						<ele>200</ele>
						<time>2026-04-30T14:53:55Z</time>
					</trkpt>
					<trkpt lat="41.115470" lon="0.948870">
						<ele>200</ele>
						<time>2026-04-30T14:53:57Z</time>
					</trkpt>
					<trkpt lat="41.115430" lon="0.948740">
						<ele>200</ele>
						<time>2026-04-30T14:53:59Z</time>
					</trkpt>
					<trkpt lat="41.115350" lon="0.948460">
						<ele>201</ele>
						<time>2026-04-30T14:54:03Z</time>
					</trkpt>
					<trkpt lat="41.115250" lon="0.948220">
						<ele>201</ele>
						<time>2026-04-30T14:54:07Z</time>
					</trkpt>
					<trkpt lat="41.115150" lon="0.947970">
						<ele>201</ele>
						<time>2026-04-30T14:54:10Z</time>
					</trkpt>
					<trkpt lat="41.115080" lon="0.947640">
						<ele>202</ele>
						<time>2026-04-30T14:54:15Z</time>
					</trkpt>
					<trkpt lat="41.115070" lon="0.947480">
						<ele>202</ele>
						<time>2026-04-30T14:54:17Z</time>
					</trkpt>
					<trkpt lat="41.115040" lon="0.947320">
						<ele>203</ele>
						<time>2026-04-30T14:54:19Z</time>
					</trkpt>
					<trkpt lat="41.113790" lon="0.944170">
						<ele>207</ele>
						<time>2026-04-30T14:55:07Z</time>
					</trkpt>
					<trkpt lat="41.113410" lon="0.943900">
						<ele>206</ele>
						<time>2026-04-30T14:55:15Z</time>
					</trkpt>
					<trkpt lat="41.113130" lon="0.943590">
						<ele>206</ele>
						<time>2026-04-30T14:55:21Z</time>
					</trkpt>
					<trkpt lat="41.113080" lon="0.943220">
						<ele>207</ele>
						<time>2026-04-30T14:55:26Z</time>
					</trkpt>
					<trkpt lat="41.113010" lon="0.942920">
						<ele>208</ele>
						<time>2026-04-30T14:55:31Z</time>
					</trkpt>
					<trkpt lat="41.112890" lon="0.942440">
						<ele>209</ele>
						<time>2026-04-30T14:55:37Z</time>
					</trkpt>
					<trkpt lat="41.112540" lon="0.941800">
						<ele>208</ele>
						<time>2026-04-30T14:55:48Z</time>
					</trkpt>
					<trkpt lat="41.112480" lon="0.941640">
						<ele>208</ele>
						<time>2026-04-30T14:55:50Z</time>
					</trkpt>
					<trkpt lat="41.112460" lon="0.941380">
						<ele>209</ele>
						<time>2026-04-30T14:55:54Z</time>
					</trkpt>
					<trkpt lat="41.112320" lon="0.941460">
						<ele>209</ele>
						<time>2026-04-30T14:55:57Z</time>
					</trkpt>
					<trkpt lat="41.112180" lon="0.941850">
						<ele>208</ele>
						<time>2026-04-30T14:56:02Z</time>
					</trkpt>
					<trkpt lat="41.112070" lon="0.941900">
						<ele>209</ele>
						<time>2026-04-30T14:56:04Z</time>
					</trkpt>
					<trkpt lat="41.111840" lon="0.942740">
						<ele>207</ele>
						<time>2026-04-30T14:56:16Z</time>
					</trkpt>
					<trkpt lat="41.111770" lon="0.942950">
						<ele>206</ele>
						<time>2026-04-30T14:56:19Z</time>
					</trkpt>
					<trkpt lat="41.111100" lon="0.945320">
						<ele>198</ele>
						<time>2026-04-30T14:56:53Z</time>
					</trkpt>
					<trkpt lat="41.111060" lon="0.945490">
						<ele>198</ele>
						<time>2026-04-30T14:56:56Z</time>
					</trkpt>
					<trkpt lat="41.111030" lon="0.945640">
						<ele>197</ele>
						<time>2026-04-30T14:56:58Z</time>
					</trkpt>
					<trkpt lat="41.110970" lon="0.945790">
						<ele>197</ele>
						<time>2026-04-30T14:57:00Z</time>
					</trkpt>
					<trkpt lat="41.110950" lon="0.945820">
						<ele>197</ele>
						<time>2026-04-30T14:57:01Z</time>
					</trkpt>
					<trkpt lat="41.110930" lon="0.945860">
						<ele>196</ele>
						<time>2026-04-30T14:57:01Z</time>
					</trkpt>
					<trkpt lat="41.110920" lon="0.945910">
						<ele>196</ele>
						<time>2026-04-30T14:57:02Z</time>
					</trkpt>
					<trkpt lat="41.110920" lon="0.945960">
						<ele>196</ele>
						<time>2026-04-30T14:57:03Z</time>
					</trkpt>
					<trkpt lat="41.110930" lon="0.946000">
						<ele>196</ele>
						<time>2026-04-30T14:57:03Z</time>
					</trkpt>
					<trkpt lat="41.110960" lon="0.946040">
						<ele>196</ele>
						<time>2026-04-30T14:57:04Z</time>
					</trkpt>
					<trkpt lat="41.110990" lon="0.946120">
						<ele>195</ele>
						<time>2026-04-30T14:57:05Z</time>
					</trkpt>
					<trkpt lat="41.111010" lon="0.946240">
						<ele>195</ele>
						<time>2026-04-30T14:57:07Z</time>
					</trkpt>
					<trkpt lat="41.111020" lon="0.946420">
						<ele>194</ele>
						<time>2026-04-30T14:57:09Z</time>
					</trkpt>
					<trkpt lat="41.110980" lon="0.946700">
						<ele>193</ele>
						<time>2026-04-30T14:57:13Z</time>
					</trkpt>
					<trkpt lat="41.110910" lon="0.946920">
						<ele>192</ele>
						<time>2026-04-30T14:57:16Z</time>
					</trkpt>
					<trkpt lat="41.110790" lon="0.947250">
						<ele>190</ele>
						<time>2026-04-30T14:57:21Z</time>
					</trkpt>
					<trkpt lat="41.109540" lon="0.950070">
						<ele>180</ele>
						<time>2026-04-30T14:58:05Z</time>
					</trkpt>
					<trkpt lat="41.109370" lon="0.950550">
						<ele>179</ele>
						<time>2026-04-30T14:58:12Z</time>
					</trkpt>
					<trkpt lat="41.109330" lon="0.950870">
						<ele>178</ele>
						<time>2026-04-30T14:58:17Z</time>
					</trkpt>
					<trkpt lat="41.109160" lon="0.951830">
						<ele>174</ele>
						<time>2026-04-30T14:58:30Z</time>
					</trkpt>
					<trkpt lat="41.109070" lon="0.952210">
						<ele>173</ele>
						<time>2026-04-30T14:58:35Z</time>
					</trkpt>
					<trkpt lat="41.108910" lon="0.952750">
						<ele>172</ele>
						<time>2026-04-30T14:58:43Z</time>
					</trkpt>
					<trkpt lat="41.108790" lon="0.953030">
						<ele>172</ele>
						<time>2026-04-30T14:58:47Z</time>
					</trkpt>
					<trkpt lat="41.106910" lon="0.956030">
						<ele>158</ele>
						<time>2026-04-30T14:59:40Z</time>
					</trkpt>
					<trkpt lat="41.106680" lon="0.956380">
						<ele>156</ele>
						<time>2026-04-30T14:59:46Z</time>
					</trkpt>
					<trkpt lat="41.104490" lon="0.959860">
						<ele>142</ele>
						<time>2026-04-30T15:00:47Z</time>
					</trkpt>
					<trkpt lat="41.102950" lon="0.962300">
						<ele>132</ele>
						<time>2026-04-30T15:01:29Z</time>
					</trkpt>
					<trkpt lat="41.102410" lon="0.963010">
						<ele>130</ele>
						<time>2026-04-30T15:01:43Z</time>
					</trkpt>
					<trkpt lat="41.100850" lon="0.965050">
						<ele>123</ele>
						<time>2026-04-30T15:02:22Z</time>
					</trkpt>
					<trkpt lat="41.100630" lon="0.965330">
						<ele>121</ele>
						<time>2026-04-30T15:02:27Z</time>
					</trkpt>
					<trkpt lat="41.100120" lon="0.966010">
						<ele>118</ele>
						<time>2026-04-30T15:02:40Z</time>
					</trkpt>
					<trkpt lat="41.099550" lon="0.966750">
						<ele>114</ele>
						<time>2026-04-30T15:02:54Z</time>
					</trkpt>
					<trkpt lat="41.098060" lon="0.968720">
						<ele>104</ele>
						<time>2026-04-30T15:03:32Z</time>
					</trkpt>
					<trkpt lat="41.096270" lon="0.970950">
						<ele>98</ele>
						<time>2026-04-30T15:04:15Z</time>
					</trkpt>
					<trkpt lat="41.096190" lon="0.971050">
						<ele>98</ele>
						<time>2026-04-30T15:04:17Z</time>
					</trkpt>
					<trkpt lat="41.096070" lon="0.971130">
						<ele>97</ele>
						<time>2026-04-30T15:04:20Z</time>
					</trkpt>
					<trkpt lat="41.095980" lon="0.971260">
						<ele>97</ele>
						<time>2026-04-30T15:04:22Z</time>
					</trkpt>
					<trkpt lat="41.096020" lon="0.971350">
						<ele>97</ele>
						<time>2026-04-30T15:04:23Z</time>
					</trkpt>
					<trkpt lat="41.096430" lon="0.972500">
						<ele>95</ele>
						<time>2026-04-30T15:04:40Z</time>
					</trkpt>
					<trkpt lat="41.096500" lon="0.972690">
						<ele>95</ele>
						<time>2026-04-30T15:04:43Z</time>
					</trkpt>
					<trkpt lat="41.096540" lon="0.972780">
						<ele>95</ele>
						<time>2026-04-30T15:04:45Z</time>
					</trkpt>
					<trkpt lat="41.096620" lon="0.973010">
						<ele>95</ele>
						<time>2026-04-30T15:04:48Z</time>
					</trkpt>
					<trkpt lat="41.096630" lon="0.973230">
						<ele>95</ele>
						<time>2026-04-30T15:04:51Z</time>
					</trkpt>
					<trkpt lat="41.096580" lon="0.973330">
						<ele>95</ele>
						<time>2026-04-30T15:04:53Z</time>
					</trkpt>
					<trkpt lat="41.096550" lon="0.973370">
						<ele>95</ele>
						<time>2026-04-30T15:04:53Z</time>
					</trkpt>
					<trkpt lat="41.096490" lon="0.973400">
						<ele>95</ele>
						<time>2026-04-30T15:04:55Z</time>
					</trkpt>
					<trkpt lat="41.096000" lon="0.973230">
						<ele>93</ele>
						<time>2026-04-30T15:05:04Z</time>
					</trkpt>
					<trkpt lat="41.095520" lon="0.973120">
						<ele>94</ele>
						<time>2026-04-30T15:05:12Z</time>
					</trkpt>
					<trkpt lat="41.095140" lon="0.973040">
						<ele>94</ele>
						<time>2026-04-30T15:05:19Z</time>
					</trkpt>
					<trkpt lat="41.094940" lon="0.972980">
						<ele>94</ele>
						<time>2026-04-30T15:05:23Z</time>
					</trkpt>
					<trkpt lat="41.094610" lon="0.972880">
						<ele>94</ele>
						<time>2026-04-30T15:05:29Z</time>
					</trkpt>
					<trkpt lat="41.093550" lon="0.972570">
						<ele>92</ele>
						<time>2026-04-30T15:05:48Z</time>
					</trkpt>
					<trkpt lat="41.093070" lon="0.972450">
						<ele>91</ele>
						<time>2026-04-30T15:05:57Z</time>
					</trkpt>
					<trkpt lat="41.092310" lon="0.972260">
						<ele>90</ele>
						<time>2026-04-30T15:06:11Z</time>
					</trkpt>
					<trkpt lat="41.091180" lon="0.971990">
						<ele>88</ele>
						<time>2026-04-30T15:06:31Z</time>
					</trkpt>
					<trkpt lat="41.090040" lon="0.971730">
						<ele>86</ele>
						<time>2026-04-30T15:06:52Z</time>
					</trkpt>
					<trkpt lat="41.089340" lon="0.971500">
						<ele>85</ele>
						<time>2026-04-30T15:07:04Z</time>
					</trkpt>
					<trkpt lat="41.088810" lon="0.971280">
						<ele>85</ele>
						<time>2026-04-30T15:07:14Z</time>
					</trkpt>
					<trkpt lat="41.088280" lon="0.971020">
						<ele>85</ele>
						<time>2026-04-30T15:07:24Z</time>
					</trkpt>
					<trkpt lat="41.087870" lon="0.970770">
						<ele>85</ele>
						<time>2026-04-30T15:07:32Z</time>
					</trkpt>
					<trkpt lat="41.084820" lon="0.968670">
						<ele>84</ele>
						<time>2026-04-30T15:08:33Z</time>
					</trkpt>
					<trkpt lat="41.084350" lon="0.968310">
						<ele>84</ele>
						<time>2026-04-30T15:08:43Z</time>
					</trkpt>
					<trkpt lat="41.084100" lon="0.968100">
						<ele>84</ele>
						<time>2026-04-30T15:08:48Z</time>
					</trkpt>
					<trkpt lat="41.083910" lon="0.967910">
						<ele>84</ele>
						<time>2026-04-30T15:08:53Z</time>
					</trkpt>
					<trkpt lat="41.083550" lon="0.967490">
						<ele>85</ele>
						<time>2026-04-30T15:09:01Z</time>
					</trkpt>
					<trkpt lat="41.083260" lon="0.967070">
						<ele>86</ele>
						<time>2026-04-30T15:09:09Z</time>
					</trkpt>
					<trkpt lat="41.083000" lon="0.966620">
						<ele>88</ele>
						<time>2026-04-30T15:09:16Z</time>
					</trkpt>
					<trkpt lat="41.082770" lon="0.966120">
						<ele>90</ele>
						<time>2026-04-30T15:09:24Z</time>
					</trkpt>
					<trkpt lat="41.082680" lon="0.965880">
						<ele>90</ele>
						<time>2026-04-30T15:09:28Z</time>
					</trkpt>
					<trkpt lat="41.082640" lon="0.965770">
						<ele>91</ele>
						<time>2026-04-30T15:09:29Z</time>
					</trkpt>
					<trkpt lat="41.082560" lon="0.965540">
						<ele>92</ele>
						<time>2026-04-30T15:09:33Z</time>
					</trkpt>
					<trkpt lat="41.082380" lon="0.964940">
						<ele>93</ele>
						<time>2026-04-30T15:09:42Z</time>
					</trkpt>
					<trkpt lat="41.081590" lon="0.962170">
						<ele>98</ele>
						<time>2026-04-30T15:10:21Z</time>
					</trkpt>
					<trkpt lat="41.081590" lon="0.962160">
						<ele>99</ele>
						<time>2026-04-30T15:10:21Z</time>
					</trkpt>
					<trkpt lat="41.081580" lon="0.961980">
						<ele>99</ele>
						<time>2026-04-30T15:10:24Z</time>
					</trkpt>
					<trkpt lat="41.081580" lon="0.961920">
						<ele>99</ele>
						<time>2026-04-30T15:10:25Z</time>
					</trkpt>
					<trkpt lat="41.081610" lon="0.961800">
						<ele>99</ele>
						<time>2026-04-30T15:10:26Z</time>
					</trkpt>
					<trkpt lat="41.081630" lon="0.961730">
						<ele>99</ele>
						<time>2026-04-30T15:10:27Z</time>
					</trkpt>
					<trkpt lat="41.081640" lon="0.961660">
						<ele>99</ele>
						<time>2026-04-30T15:10:28Z</time>
					</trkpt>
					<trkpt lat="41.081620" lon="0.961570">
						<ele>99</ele>
						<time>2026-04-30T15:10:30Z</time>
					</trkpt>
					<trkpt lat="41.081570" lon="0.961500">
						<ele>100</ele>
						<time>2026-04-30T15:10:31Z</time>
					</trkpt>
					<trkpt lat="41.081530" lon="0.961470">
						<ele>100</ele>
						<time>2026-04-30T15:10:32Z</time>
					</trkpt>
					<trkpt lat="41.081490" lon="0.961450">
						<ele>100</ele>
						<time>2026-04-30T15:10:32Z</time>
					</trkpt>
					<trkpt lat="41.081400" lon="0.961330">
						<ele>100</ele>
						<time>2026-04-30T15:10:35Z</time>
					</trkpt>
					<trkpt lat="41.081310" lon="0.961150">
						<ele>101</ele>
						<time>2026-04-30T15:10:38Z</time>
					</trkpt>
					<trkpt lat="41.080910" lon="0.959730">
						<ele>105</ele>
						<time>2026-04-30T15:10:58Z</time>
					</trkpt>
					<trkpt lat="41.080760" lon="0.959280">
						<ele>106</ele>
						<time>2026-04-30T15:11:04Z</time>
					</trkpt>
					<trkpt lat="41.080560" lon="0.958830">
						<ele>107</ele>
						<time>2026-04-30T15:11:12Z</time>
					</trkpt>
					<trkpt lat="41.080390" lon="0.958540">
						<ele>108</ele>
						<time>2026-04-30T15:11:16Z</time>
					</trkpt>
					<trkpt lat="41.080090" lon="0.958100">
						<ele>110</ele>
						<time>2026-04-30T15:11:24Z</time>
					</trkpt>
					<trkpt lat="41.079820" lon="0.957770">
						<ele>111</ele>
						<time>2026-04-30T15:11:31Z</time>
					</trkpt>
					<trkpt lat="41.079490" lon="0.957450">
						<ele>113</ele>
						<time>2026-04-30T15:11:38Z</time>
					</trkpt>
					<trkpt lat="41.079020" lon="0.957100">
						<ele>114</ele>
						<time>2026-04-30T15:11:48Z</time>
					</trkpt>
					<trkpt lat="41.076070" lon="0.955250">
						<ele>122</ele>
						<time>2026-04-30T15:12:46Z</time>
					</trkpt>
					<trkpt lat="41.075710" lon="0.955020">
						<ele>122</ele>
						<time>2026-04-30T15:12:53Z</time>
					</trkpt>
					<trkpt lat="41.074820" lon="0.954450">
						<ele>121</ele>
						<time>2026-04-30T15:13:11Z</time>
					</trkpt>
					<trkpt lat="41.074430" lon="0.954200">
						<ele>122</ele>
						<time>2026-04-30T15:13:18Z</time>
					</trkpt>
					<trkpt lat="41.073680" lon="0.953640">
						<ele>124</ele>
						<time>2026-04-30T15:13:34Z</time>
					</trkpt>
					<trkpt lat="41.073460" lon="0.953450">
						<ele>124</ele>
						<time>2026-04-30T15:13:38Z</time>
					</trkpt>
					<trkpt lat="41.073100" lon="0.953090">
						<ele>123</ele>
						<time>2026-04-30T15:13:46Z</time>
					</trkpt>
					<trkpt lat="41.072790" lon="0.952750">
						<ele>123</ele>
						<time>2026-04-30T15:13:53Z</time>
					</trkpt>
					<trkpt lat="41.072590" lon="0.952520">
						<ele>122</ele>
						<time>2026-04-30T15:13:58Z</time>
					</trkpt>
					<trkpt lat="41.071700" lon="0.951460">
						<ele>121</ele>
						<time>2026-04-30T15:14:19Z</time>
					</trkpt>
					<trkpt lat="41.070010" lon="0.949400">
						<ele>116</ele>
						<time>2026-04-30T15:15:00Z</time>
					</trkpt>
					<trkpt lat="41.068000" lon="0.946950">
						<ele>109</ele>
						<time>2026-04-30T15:15:49Z</time>
					</trkpt>
					<trkpt lat="41.067950" lon="0.946890">
						<ele>109</ele>
						<time>2026-04-30T15:15:50Z</time>
					</trkpt>
					<trkpt lat="41.067710" lon="0.946600">
						<ele>107</ele>
						<time>2026-04-30T15:15:56Z</time>
					</trkpt>
					<trkpt lat="41.066530" lon="0.945170">
						<ele>101</ele>
						<time>2026-04-30T15:16:24Z</time>
					</trkpt>
					<trkpt lat="41.066200" lon="0.944770">
						<ele>101</ele>
						<time>2026-04-30T15:16:32Z</time>
					</trkpt>
					<trkpt lat="41.065500" lon="0.943910">
						<ele>100</ele>
						<time>2026-04-30T15:16:49Z</time>
					</trkpt>
					<trkpt lat="41.065320" lon="0.943700">
						<ele>99</ele>
						<time>2026-04-30T15:16:53Z</time>
					</trkpt>
					<trkpt lat="41.063560" lon="0.941550">
						<ele>101</ele>
						<time>2026-04-30T15:17:36Z</time>
					</trkpt>
					<trkpt lat="41.062030" lon="0.939690">
						<ele>108</ele>
						<time>2026-04-30T15:18:13Z</time>
					</trkpt>
					<trkpt lat="41.061820" lon="0.939440">
						<ele>109</ele>
						<time>2026-04-30T15:18:18Z</time>
					</trkpt>
					<trkpt lat="41.060910" lon="0.938330">
						<ele>109</ele>
						<time>2026-04-30T15:18:40Z</time>
					</trkpt>
					<trkpt lat="41.060130" lon="0.937380">
						<ele>109</ele>
						<time>2026-04-30T15:18:59Z</time>
					</trkpt>
					<trkpt lat="41.059770" lon="0.936930">
						<ele>110</ele>
						<time>2026-04-30T15:19:08Z</time>
					</trkpt>
					<trkpt lat="41.059680" lon="0.936840">
						<ele>110</ele>
						<time>2026-04-30T15:19:10Z</time>
					</trkpt>
					<trkpt lat="41.059580" lon="0.936710">
						<ele>110</ele>
						<time>2026-04-30T15:19:12Z</time>
					</trkpt>
					<trkpt lat="41.057820" lon="0.934580">
						<ele>110</ele>
						<time>2026-04-30T15:19:54Z</time>
					</trkpt>
					<trkpt lat="41.057280" lon="0.933920">
						<ele>109</ele>
						<time>2026-04-30T15:20:08Z</time>
					</trkpt>
					<trkpt lat="41.055340" lon="0.931560">
						<ele>111</ele>
						<time>2026-04-30T15:20:54Z</time>
					</trkpt>
					<trkpt lat="41.054220" lon="0.930190">
						<ele>106</ele>
						<time>2026-04-30T15:21:22Z</time>
					</trkpt>
					<trkpt lat="41.054160" lon="0.930120">
						<ele>106</ele>
						<time>2026-04-30T15:21:23Z</time>
					</trkpt>
					<trkpt lat="41.053940" lon="0.929850">
						<ele>107</ele>
						<time>2026-04-30T15:21:28Z</time>
					</trkpt>
					<trkpt lat="41.053650" lon="0.929490">
						<ele>109</ele>
						<time>2026-04-30T15:21:35Z</time>
					</trkpt>
					<trkpt lat="41.052890" lon="0.928570">
						<ele>112</ele>
						<time>2026-04-30T15:21:54Z</time>
					</trkpt>
					<trkpt lat="41.052210" lon="0.927740">
						<ele>111</ele>
						<time>2026-04-30T15:22:10Z</time>
					</trkpt>
					<trkpt lat="41.051340" lon="0.926690">
						<ele>110</ele>
						<time>2026-04-30T15:22:31Z</time>
					</trkpt>
					<trkpt lat="41.049380" lon="0.924310">
						<ele>111</ele>
						<time>2026-04-30T15:23:18Z</time>
					</trkpt>
					<trkpt lat="41.047640" lon="0.922190">
						<ele>117</ele>
						<time>2026-04-30T15:24:00Z</time>
					</trkpt>
					<trkpt lat="41.047530" lon="0.922050">
						<ele>118</ele>
						<time>2026-04-30T15:24:03Z</time>
					</trkpt>
					<trkpt lat="41.047500" lon="0.922020">
						<ele>118</ele>
						<time>2026-04-30T15:24:04Z</time>
					</trkpt>
					<trkpt lat="41.047370" lon="0.921860">
						<ele>119</ele>
						<time>2026-04-30T15:24:07Z</time>
					</trkpt>
					<trkpt lat="41.046680" lon="0.920990">
						<ele>120</ele>
						<time>2026-04-30T15:24:24Z</time>
					</trkpt>
					<trkpt lat="41.046300" lon="0.920370">
						<ele>122</ele>
						<time>2026-04-30T15:24:35Z</time>
					</trkpt>
					<trkpt lat="41.046030" lon="0.919680">
						<ele>125</ele>
						<time>2026-04-30T15:24:45Z</time>
					</trkpt>
					<trkpt lat="41.045890" lon="0.919100">
						<ele>128</ele>
						<time>2026-04-30T15:24:53Z</time>
					</trkpt>
					<trkpt lat="41.045720" lon="0.917800">
						<ele>126</ele>
						<time>2026-04-30T15:25:11Z</time>
					</trkpt>
					<trkpt lat="41.045410" lon="0.915280">
						<ele>138</ele>
						<time>2026-04-30T15:25:45Z</time>
					</trkpt>
					<trkpt lat="41.045330" lon="0.914760">
						<ele>142</ele>
						<time>2026-04-30T15:25:52Z</time>
					</trkpt>
					<trkpt lat="41.045180" lon="0.914220">
						<ele>144</ele>
						<time>2026-04-30T15:26:00Z</time>
					</trkpt>
					<trkpt lat="41.044810" lon="0.913150">
						<ele>150</ele>
						<time>2026-04-30T15:26:16Z</time>
					</trkpt>
					<trkpt lat="41.044620" lon="0.912580">
						<ele>151</ele>
						<time>2026-04-30T15:26:24Z</time>
					</trkpt>
					<trkpt lat="41.044350" lon="0.912040">
						<ele>152</ele>
						<time>2026-04-30T15:26:33Z</time>
					</trkpt>
					<trkpt lat="41.044070" lon="0.911660">
						<ele>153</ele>
						<time>2026-04-30T15:26:40Z</time>
					</trkpt>
					<trkpt lat="41.043700" lon="0.911320">
						<ele>152</ele>
						<time>2026-04-30T15:26:48Z</time>
					</trkpt>
					<trkpt lat="41.043300" lon="0.911100">
						<ele>150</ele>
						<time>2026-04-30T15:26:56Z</time>
					</trkpt>
					<trkpt lat="41.043170" lon="0.911040">
						<ele>149</ele>
						<time>2026-04-30T15:26:58Z</time>
					</trkpt>
					<trkpt lat="41.042970" lon="0.910980">
						<ele>147</ele>
						<time>2026-04-30T15:27:02Z</time>
					</trkpt>
					<trkpt lat="41.042610" lon="0.910920">
						<ele>145</ele>
						<time>2026-04-30T15:27:08Z</time>
					</trkpt>
					<trkpt lat="41.042290" lon="0.910900">
						<ele>143</ele>
						<time>2026-04-30T15:27:14Z</time>
					</trkpt>
					<trkpt lat="41.042180" lon="0.910900">
						<ele>142</ele>
						<time>2026-04-30T15:27:16Z</time>
					</trkpt>
					<trkpt lat="41.042130" lon="0.910910">
						<ele>142</ele>
						<time>2026-04-30T15:27:17Z</time>
					</trkpt>
					<trkpt lat="41.042070" lon="0.910910">
						<ele>142</ele>
						<time>2026-04-30T15:27:18Z</time>
					</trkpt>
					<trkpt lat="41.041940" lon="0.910870">
						<ele>141</ele>
						<time>2026-04-30T15:27:20Z</time>
					</trkpt>
					<trkpt lat="41.041810" lon="0.910760">
						<ele>141</ele>
						<time>2026-04-30T15:27:23Z</time>
					</trkpt>
					<trkpt lat="41.041570" lon="0.910460">
						<ele>143</ele>
						<time>2026-04-30T15:27:29Z</time>
					</trkpt>
					<trkpt lat="41.041660" lon="0.910700">
						<ele>141</ele>
						<time>2026-04-30T15:27:32Z</time>
					</trkpt>
					<trkpt lat="41.041670" lon="0.910850">
						<ele>140</ele>
						<time>2026-04-30T15:27:34Z</time>
					</trkpt>
					<trkpt lat="41.041630" lon="0.910960">
						<ele>139</ele>
						<time>2026-04-30T15:27:36Z</time>
					</trkpt>
					<trkpt lat="41.041560" lon="0.911040">
						<ele>139</ele>
						<time>2026-04-30T15:27:38Z</time>
					</trkpt>
					<trkpt lat="41.041440" lon="0.911110">
						<ele>138</ele>
						<time>2026-04-30T15:27:40Z</time>
					</trkpt>
					<trkpt lat="41.041000" lon="0.911290">
						<ele>137</ele>
						<time>2026-04-30T15:27:48Z</time>
					</trkpt>
					<trkpt lat="41.040900" lon="0.911340">
						<ele>136</ele>
						<time>2026-04-30T15:27:50Z</time>
					</trkpt>
					<trkpt lat="41.040790" lon="0.911420">
						<ele>136</ele>
						<time>2026-04-30T15:27:52Z</time>
					</trkpt>
					<trkpt lat="41.040690" lon="0.911490">
						<ele>136</ele>
						<time>2026-04-30T15:27:54Z</time>
					</trkpt>
					<trkpt lat="41.040440" lon="0.911720">
						<ele>136</ele>
						<time>2026-04-30T15:28:00Z</time>
					</trkpt>
					<trkpt lat="41.040280" lon="0.911940">
						<ele>135</ele>
						<time>2026-04-30T15:28:04Z</time>
					</trkpt>
					<trkpt lat="41.040080" lon="0.912230">
						<ele>133</ele>
						<time>2026-04-30T15:28:09Z</time>
					</trkpt>
					<trkpt lat="41.039870" lon="0.912640">
						<ele>130</ele>
						<time>2026-04-30T15:28:16Z</time>
					</trkpt>
					<trkpt lat="41.039420" lon="0.913470">
						<ele>123</ele>
						<time>2026-04-30T15:28:30Z</time>
					</trkpt>
					<trkpt lat="41.039300" lon="0.913650">
						<ele>122</ele>
						<time>2026-04-30T15:28:33Z</time>
					</trkpt>
					<trkpt lat="41.039200" lon="0.913780">
						<ele>121</ele>
						<time>2026-04-30T15:28:35Z</time>
					</trkpt>
					<trkpt lat="41.038900" lon="0.914090">
						<ele>118</ele>
						<time>2026-04-30T15:28:42Z</time>
					</trkpt>
					<trkpt lat="41.038660" lon="0.914280">
						<ele>116</ele>
						<time>2026-04-30T15:28:47Z</time>
					</trkpt>
					<trkpt lat="41.038270" lon="0.914470">
						<ele>113</ele>
						<time>2026-04-30T15:28:54Z</time>
					</trkpt>
					<trkpt lat="41.038050" lon="0.914530">
						<ele>111</ele>
						<time>2026-04-30T15:28:58Z</time>
					</trkpt>
					<trkpt lat="41.037980" lon="0.914550">
						<ele>110</ele>
						<time>2026-04-30T15:29:00Z</time>
					</trkpt>
					<trkpt lat="41.037760" lon="0.914570">
						<ele>107</ele>
						<time>2026-04-30T15:29:04Z</time>
					</trkpt>
					<trkpt lat="41.037650" lon="0.914580">
						<ele>106</ele>
						<time>2026-04-30T15:29:06Z</time>
					</trkpt>
					<trkpt lat="41.037380" lon="0.914550">
						<ele>104</ele>
						<time>2026-04-30T15:29:10Z</time>
					</trkpt>
					<trkpt lat="41.037120" lon="0.914490">
						<ele>103</ele>
						<time>2026-04-30T15:29:15Z</time>
					</trkpt>
					<trkpt lat="41.036840" lon="0.914380">
						<ele>101</ele>
						<time>2026-04-30T15:29:20Z</time>
					</trkpt>
					<trkpt lat="41.036590" lon="0.914220">
						<ele>100</ele>
						<time>2026-04-30T15:29:25Z</time>
					</trkpt>
					<trkpt lat="41.036240" lon="0.913950">
						<ele>99</ele>
						<time>2026-04-30T15:29:32Z</time>
					</trkpt>
					<trkpt lat="41.031760" lon="0.910070">
						<ele>101</ele>
						<time>2026-04-30T15:31:08Z</time>
					</trkpt>
					<trkpt lat="41.031410" lon="0.909800">
						<ele>101</ele>
						<time>2026-04-30T15:31:15Z</time>
					</trkpt>
					<trkpt lat="41.031200" lon="0.909660">
						<ele>101</ele>
						<time>2026-04-30T15:31:19Z</time>
					</trkpt>
					<trkpt lat="41.030950" lon="0.909510">
						<ele>101</ele>
						<time>2026-04-30T15:31:24Z</time>
					</trkpt>
					<trkpt lat="41.030650" lon="0.909350">
						<ele>101</ele>
						<time>2026-04-30T15:31:30Z</time>
					</trkpt>
					<trkpt lat="41.030290" lon="0.909140">
						<ele>101</ele>
						<time>2026-04-30T15:31:37Z</time>
					</trkpt>
					<trkpt lat="41.030030" lon="0.909000">
						<ele>101</ele>
						<time>2026-04-30T15:31:42Z</time>
					</trkpt>
					<trkpt lat="41.026260" lon="0.906880">
						<ele>86</ele>
						<time>2026-04-30T15:32:55Z</time>
					</trkpt>
					<trkpt lat="41.025950" lon="0.906690">
						<ele>80</ele>
						<time>2026-04-30T15:33:01Z</time>
					</trkpt>
					<trkpt lat="41.025500" lon="0.906350">
						<ele>73</ele>
						<time>2026-04-30T15:33:10Z</time>
					</trkpt>
					<trkpt lat="41.025140" lon="0.905980">
						<ele>71</ele>
						<time>2026-04-30T15:33:18Z</time>
					</trkpt>
					<trkpt lat="41.024850" lon="0.905600">
						<ele>74</ele>
						<time>2026-04-30T15:33:25Z</time>
					</trkpt>
					<trkpt lat="41.024650" lon="0.905300">
						<ele>78</ele>
						<time>2026-04-30T15:33:31Z</time>
					</trkpt>
					<trkpt lat="41.024420" lon="0.904860">
						<ele>83</ele>
						<time>2026-04-30T15:33:38Z</time>
					</trkpt>
					<trkpt lat="41.024040" lon="0.904000">
						<ele>91</ele>
						<time>2026-04-30T15:33:51Z</time>
					</trkpt>
					<trkpt lat="41.023930" lon="0.903670">
						<ele>92</ele>
						<time>2026-04-30T15:33:56Z</time>
					</trkpt>
					<trkpt lat="41.023700" lon="0.903220">
						<ele>96</ele>
						<time>2026-04-30T15:34:03Z</time>
					</trkpt>
					<trkpt lat="41.023620" lon="0.903110">
						<ele>98</ele>
						<time>2026-04-30T15:34:05Z</time>
					</trkpt>
					<trkpt lat="41.023460" lon="0.902840">
						<ele>100</ele>
						<time>2026-04-30T15:34:10Z</time>
					</trkpt>
					<trkpt lat="41.023270" lon="0.902570">
						<ele>102</ele>
						<time>2026-04-30T15:34:15Z</time>
					</trkpt>
					<trkpt lat="41.022240" lon="0.901180">
						<ele>112</ele>
						<time>2026-04-30T15:34:41Z</time>
					</trkpt>
					<trkpt lat="41.021930" lon="0.900810">
						<ele>114</ele>
						<time>2026-04-30T15:34:48Z</time>
					</trkpt>
					<trkpt lat="41.021690" lon="0.900480">
						<ele>116</ele>
						<time>2026-04-30T15:34:55Z</time>
					</trkpt>
					<trkpt lat="41.020780" lon="0.899200">
						<ele>123</ele>
						<time>2026-04-30T15:35:18Z</time>
					</trkpt>
					<trkpt lat="41.020600" lon="0.898940">
						<ele>125</ele>
						<time>2026-04-30T15:35:23Z</time>
					</trkpt>
					<trkpt lat="41.020170" lon="0.898350">
						<ele>128</ele>
						<time>2026-04-30T15:35:34Z</time>
					</trkpt>
					<trkpt lat="41.019940" lon="0.898060">
						<ele>130</ele>
						<time>2026-04-30T15:35:40Z</time>
					</trkpt>
					<trkpt lat="41.019730" lon="0.897840">
						<ele>131</ele>
						<time>2026-04-30T15:35:44Z</time>
					</trkpt>
					<trkpt lat="41.019480" lon="0.897650">
						<ele>132</ele>
						<time>2026-04-30T15:35:49Z</time>
					</trkpt>
					<trkpt lat="41.019230" lon="0.897500">
						<ele>133</ele>
						<time>2026-04-30T15:35:54Z</time>
					</trkpt>
					<trkpt lat="41.019060" lon="0.897430">
						<ele>134</ele>
						<time>2026-04-30T15:35:58Z</time>
					</trkpt>
					<trkpt lat="41.018980" lon="0.897390">
						<ele>134</ele>
						<time>2026-04-30T15:35:59Z</time>
					</trkpt>
					<trkpt lat="41.018700" lon="0.897330">
						<ele>135</ele>
						<time>2026-04-30T15:36:04Z</time>
					</trkpt>
					<trkpt lat="41.018450" lon="0.897310">
						<ele>136</ele>
						<time>2026-04-30T15:36:09Z</time>
					</trkpt>
					<trkpt lat="41.018350" lon="0.897310">
						<ele>136</ele>
						<time>2026-04-30T15:36:10Z</time>
					</trkpt>
					<trkpt lat="41.018270" lon="0.897300">
						<ele>136</ele>
						<time>2026-04-30T15:36:12Z</time>
					</trkpt>
					<trkpt lat="41.018080" lon="0.897300">
						<ele>137</ele>
						<time>2026-04-30T15:36:15Z</time>
					</trkpt>
					<trkpt lat="41.017890" lon="0.897330">
						<ele>137</ele>
						<time>2026-04-30T15:36:19Z</time>
					</trkpt>
					<trkpt lat="41.017870" lon="0.897340">
						<ele>136</ele>
						<time>2026-04-30T15:36:19Z</time>
					</trkpt>
					<trkpt lat="41.017830" lon="0.897390">
						<ele>136</ele>
						<time>2026-04-30T15:36:20Z</time>
					</trkpt>
					<trkpt lat="41.017810" lon="0.897430">
						<ele>136</ele>
						<time>2026-04-30T15:36:21Z</time>
					</trkpt>
					<trkpt lat="41.017810" lon="0.897460">
						<ele>136</ele>
						<time>2026-04-30T15:36:21Z</time>
					</trkpt>
					<trkpt lat="41.017830" lon="0.897780">
						<ele>135</ele>
						<time>2026-04-30T15:36:25Z</time>
					</trkpt>
					<trkpt lat="41.017800" lon="0.897970">
						<ele>134</ele>
						<time>2026-04-30T15:36:28Z</time>
					</trkpt>
					<trkpt lat="41.017800" lon="0.898290">
						<ele>132</ele>
						<time>2026-04-30T15:36:32Z</time>
					</trkpt>
					<trkpt lat="41.017770" lon="0.898620">
						<ele>130</ele>
						<time>2026-04-30T15:36:37Z</time>
					</trkpt>
					<trkpt lat="41.017750" lon="0.898950">
						<ele>128</ele>
						<time>2026-04-30T15:36:41Z</time>
					</trkpt>
					<trkpt lat="41.017630" lon="0.899910">
						<ele>123</ele>
						<time>2026-04-30T15:36:54Z</time>
					</trkpt>
					<trkpt lat="41.017600" lon="0.900050">
						<ele>122</ele>
						<time>2026-04-30T15:36:56Z</time>
					</trkpt>
					<trkpt lat="41.017560" lon="0.900210">
						<ele>121</ele>
						<time>2026-04-30T15:36:58Z</time>
					</trkpt>
					<trkpt lat="41.017510" lon="0.900350">
						<ele>120</ele>
						<time>2026-04-30T15:37:00Z</time>
					</trkpt>
					<trkpt lat="41.017450" lon="0.900470">
						<ele>119</ele>
						<time>2026-04-30T15:37:02Z</time>
					</trkpt>
					<trkpt lat="41.017390" lon="0.900580">
						<ele>119</ele>
						<time>2026-04-30T15:37:04Z</time>
					</trkpt>
					<trkpt lat="41.017300" lon="0.900690">
						<ele>119</ele>
						<time>2026-04-30T15:37:06Z</time>
					</trkpt>
					<trkpt lat="41.017260" lon="0.900740">
						<ele>119</ele>
						<time>2026-04-30T15:37:07Z</time>
					</trkpt>
					<trkpt lat="41.017120" lon="0.900880">
						<ele>118</ele>
						<time>2026-04-30T15:37:10Z</time>
					</trkpt>
					<trkpt lat="41.017000" lon="0.900960">
						<ele>118</ele>
						<time>2026-04-30T15:37:13Z</time>
					</trkpt>
					<trkpt lat="41.016890" lon="0.901010">
						<ele>117</ele>
						<time>2026-04-30T15:37:15Z</time>
					</trkpt>
					<trkpt lat="41.016780" lon="0.901050">
						<ele>117</ele>
						<time>2026-04-30T15:37:17Z</time>
					</trkpt>
					<trkpt lat="41.016510" lon="0.901110">
						<ele>116</ele>
						<time>2026-04-30T15:37:22Z</time>
					</trkpt>
					<trkpt lat="41.015400" lon="0.901330">
						<ele>112</ele>
						<time>2026-04-30T15:37:42Z</time>
					</trkpt>
					<trkpt lat="41.015090" lon="0.901410">
						<ele>111</ele>
						<time>2026-04-30T15:37:47Z</time>
					</trkpt>
					<trkpt lat="41.014920" lon="0.901480">
						<ele>110</ele>
						<time>2026-04-30T15:37:51Z</time>
					</trkpt>
					<trkpt lat="41.014740" lon="0.901590">
						<ele>109</ele>
						<time>2026-04-30T15:37:54Z</time>
					</trkpt>
					<trkpt lat="41.014550" lon="0.901750">
						<ele>107</ele>
						<time>2026-04-30T15:37:58Z</time>
					</trkpt>
					<trkpt lat="41.014470" lon="0.901840">
						<ele>106</ele>
						<time>2026-04-30T15:38:00Z</time>
					</trkpt>
					<trkpt lat="41.014330" lon="0.902000">
						<ele>104</ele>
						<time>2026-04-30T15:38:03Z</time>
					</trkpt>
					<trkpt lat="41.013370" lon="0.903300">
						<ele>95</ele>
						<time>2026-04-30T15:38:28Z</time>
					</trkpt>
					<trkpt lat="41.012930" lon="0.903910">
						<ele>94</ele>
						<time>2026-04-30T15:38:39Z</time>
					</trkpt>
					<trkpt lat="41.012200" lon="0.904890">
						<ele>88</ele>
						<time>2026-04-30T15:38:58Z</time>
					</trkpt>
					<trkpt lat="41.012010" lon="0.905120">
						<ele>87</ele>
						<time>2026-04-30T15:39:02Z</time>
					</trkpt>
					<trkpt lat="41.011810" lon="0.905300">
						<ele>85</ele>
						<time>2026-04-30T15:39:06Z</time>
					</trkpt>
					<trkpt lat="41.011740" lon="0.905350">
						<ele>85</ele>
						<time>2026-04-30T15:39:08Z</time>
					</trkpt>
					<trkpt lat="41.011540" lon="0.905480">
						<ele>85</ele>
						<time>2026-04-30T15:39:12Z</time>
					</trkpt>
					<trkpt lat="41.011370" lon="0.905560">
						<ele>85</ele>
						<time>2026-04-30T15:39:15Z</time>
					</trkpt>
					<trkpt lat="41.011170" lon="0.905640">
						<ele>85</ele>
						<time>2026-04-30T15:39:19Z</time>
					</trkpt>
					<trkpt lat="41.010720" lon="0.905770">
						<ele>86</ele>
						<time>2026-04-30T15:39:27Z</time>
					</trkpt>
					<trkpt lat="41.010670" lon="0.905790">
						<ele>86</ele>
						<time>2026-04-30T15:39:28Z</time>
					</trkpt>
					<trkpt lat="41.010660" lon="0.905790">
						<ele>86</ele>
						<time>2026-04-30T15:39:28Z</time>
					</trkpt>
					<trkpt lat="41.010320" lon="0.905910">
						<ele>86</ele>
						<time>2026-04-30T15:39:34Z</time>
					</trkpt>
					<trkpt lat="41.010110" lon="0.906040">
						<ele>86</ele>
						<time>2026-04-30T15:39:38Z</time>
					</trkpt>
					<trkpt lat="41.009930" lon="0.906200">
						<ele>86</ele>
						<time>2026-04-30T15:39:42Z</time>
					</trkpt>
					<trkpt lat="41.009800" lon="0.906360">
						<ele>85</ele>
						<time>2026-04-30T15:39:45Z</time>
					</trkpt>
					<trkpt lat="41.009690" lon="0.906550">
						<ele>83</ele>
						<time>2026-04-30T15:39:49Z</time>
					</trkpt>
					<trkpt lat="41.009630" lon="0.906670">
						<ele>82</ele>
						<time>2026-04-30T15:39:51Z</time>
					</trkpt>
					<trkpt lat="41.009570" lon="0.906830">
						<ele>81</ele>
						<time>2026-04-30T15:39:53Z</time>
					</trkpt>
					<trkpt lat="41.009520" lon="0.907000">
						<ele>80</ele>
						<time>2026-04-30T15:39:55Z</time>
					</trkpt>
					<trkpt lat="41.009460" lon="0.907270">
						<ele>78</ele>
						<time>2026-04-30T15:39:59Z</time>
					</trkpt>
					<trkpt lat="41.009340" lon="0.908110">
						<ele>75</ele>
						<time>2026-04-30T15:40:11Z</time>
					</trkpt>
					<trkpt lat="41.009310" lon="0.908340">
						<ele>75</ele>
						<time>2026-04-30T15:40:14Z</time>
					</trkpt>
					<trkpt lat="41.009260" lon="0.908570">
						<ele>74</ele>
						<time>2026-04-30T15:40:17Z</time>
					</trkpt>
					<trkpt lat="41.009170" lon="0.908830">
						<ele>72</ele>
						<time>2026-04-30T15:40:21Z</time>
					</trkpt>
					<trkpt lat="41.009080" lon="0.909070">
						<ele>70</ele>
						<time>2026-04-30T15:40:24Z</time>
					</trkpt>
					<trkpt lat="41.008970" lon="0.909310">
						<ele>68</ele>
						<time>2026-04-30T15:40:28Z</time>
					</trkpt>
					<trkpt lat="41.008840" lon="0.909520">
						<ele>67</ele>
						<time>2026-04-30T15:40:32Z</time>
					</trkpt>
					<trkpt lat="41.008710" lon="0.909710">
						<ele>66</ele>
						<time>2026-04-30T15:40:35Z</time>
					</trkpt>
					<trkpt lat="41.008460" lon="0.910050">
						<ele>64</ele>
						<time>2026-04-30T15:40:42Z</time>
					</trkpt>
					<trkpt lat="41.008320" lon="0.910240">
						<ele>64</ele>
						<time>2026-04-30T15:40:45Z</time>
					</trkpt>
					<trkpt lat="41.007920" lon="0.910810">
						<ele>62</ele>
						<time>2026-04-30T15:40:56Z</time>
					</trkpt>
					<trkpt lat="41.007690" lon="0.910950">
						<ele>61</ele>
						<time>2026-04-30T15:41:00Z</time>
					</trkpt>
					<trkpt lat="41.007630" lon="0.910970">
						<ele>60</ele>
						<time>2026-04-30T15:41:01Z</time>
					</trkpt>
					<trkpt lat="41.007580" lon="0.910970">
						<ele>60</ele>
						<time>2026-04-30T15:41:02Z</time>
					</trkpt>
					<trkpt lat="41.007530" lon="0.910980">
						<ele>60</ele>
						<time>2026-04-30T15:41:03Z</time>
					</trkpt>
					<trkpt lat="41.007480" lon="0.911000">
						<ele>60</ele>
						<time>2026-04-30T15:41:04Z</time>
					</trkpt>
					<trkpt lat="41.007440" lon="0.911040">
						<ele>60</ele>
						<time>2026-04-30T15:41:05Z</time>
					</trkpt>
					<trkpt lat="41.007410" lon="0.911080">
						<ele>59</ele>
						<time>2026-04-30T15:41:06Z</time>
					</trkpt>
					<trkpt lat="41.007380" lon="0.911140">
						<ele>59</ele>
						<time>2026-04-30T15:41:07Z</time>
					</trkpt>
					<trkpt lat="41.007370" lon="0.911220">
						<ele>59</ele>
						<time>2026-04-30T15:41:08Z</time>
					</trkpt>
					<trkpt lat="41.007370" lon="0.911320">
						<ele>59</ele>
						<time>2026-04-30T15:41:09Z</time>
					</trkpt>
					<trkpt lat="41.007380" lon="0.911380">
						<ele>59</ele>
						<time>2026-04-30T15:41:10Z</time>
					</trkpt>
					<trkpt lat="41.007410" lon="0.911430">
						<ele>59</ele>
						<time>2026-04-30T15:41:11Z</time>
					</trkpt>
					<trkpt lat="41.007440" lon="0.911480">
						<ele>59</ele>
						<time>2026-04-30T15:41:12Z</time>
					</trkpt>
					<trkpt lat="41.007480" lon="0.911520">
						<ele>59</ele>
						<time>2026-04-30T15:41:12Z</time>
					</trkpt>
					<trkpt lat="41.007520" lon="0.911540">
						<ele>59</ele>
						<time>2026-04-30T15:41:13Z</time>
					</trkpt>
					<trkpt lat="41.007560" lon="0.911550">
						<ele>59</ele>
						<time>2026-04-30T15:41:14Z</time>
					</trkpt>
					<trkpt lat="41.007640" lon="0.911540">
						<ele>60</ele>
						<time>2026-04-30T15:41:15Z</time>
					</trkpt>
					<trkpt lat="41.007740" lon="0.911610">
						<ele>60</ele>
						<time>2026-04-30T15:41:17Z</time>
					</trkpt>
					<trkpt lat="41.007860" lon="0.911680">
						<ele>60</ele>
						<time>2026-04-30T15:41:20Z</time>
					</trkpt>
					<trkpt lat="41.007960" lon="0.911740">
						<ele>61</ele>
						<time>2026-04-30T15:41:22Z</time>
					</trkpt>
					<trkpt lat="41.008420" lon="0.912330">
						<ele>61</ele>
						<time>2026-04-30T15:41:33Z</time>
					</trkpt>
					<trkpt lat="41.009010" lon="0.913080">
						<ele>59</ele>
						<time>2026-04-30T15:41:48Z</time>
					</trkpt>
					<trkpt lat="41.008640" lon="0.913580">
						<ele>56</ele>
						<time>2026-04-30T15:41:57Z</time>
					</trkpt>
					<trkpt lat="41.008590" lon="0.913680">
						<ele>55</ele>
						<time>2026-04-30T15:41:59Z</time>
					</trkpt>
					<trkpt lat="41.008510" lon="0.913820">
						<ele>54</ele>
						<time>2026-04-30T15:42:01Z</time>
					</trkpt>
					<trkpt lat="41.008380" lon="0.914160">
						<ele>53</ele>
						<time>2026-04-30T15:42:06Z</time>
					</trkpt>
					<trkpt lat="41.008350" lon="0.914260">
						<ele>52</ele>
						<time>2026-04-30T15:42:08Z</time>
					</trkpt>
					<trkpt lat="41.008340" lon="0.914310">
						<ele>52</ele>
						<time>2026-04-30T15:42:08Z</time>
					</trkpt>
					<trkpt lat="41.008270" lon="0.914430">
						<ele>51</ele>
						<time>2026-04-30T15:42:10Z</time>
					</trkpt>
					<trkpt lat="41.007690" lon="0.915220">
						<ele>45</ele>
						<time>2026-04-30T15:42:25Z</time>
					</trkpt>
					<trkpt lat="41.007560" lon="0.915250">
						<ele>45</ele>
						<time>2026-04-30T15:42:27Z</time>
					</trkpt>
					<trkpt lat="41.007040" lon="0.915340">
						<ele>44</ele>
						<time>2026-04-30T15:42:37Z</time>
					</trkpt>
					<trkpt lat="41.006860" lon="0.915370">
						<ele>43</ele>
						<time>2026-04-30T15:42:40Z</time>
					</trkpt>
					<trkpt lat="41.006630" lon="0.915410">
						<ele>43</ele>
						<time>2026-04-30T15:42:44Z</time>
					</trkpt>
					<trkpt lat="41.006350" lon="0.915530">
						<ele>43</ele>
						<time>2026-04-30T15:42:49Z</time>
					</trkpt>
					<trkpt lat="41.006150" lon="0.915630">
						<ele>42</ele>
						<time>2026-04-30T15:42:53Z</time>
					</trkpt>
					<trkpt lat="41.006000" lon="0.915750">
						<ele>42</ele>
						<time>2026-04-30T15:42:56Z</time>
					</trkpt>
					<trkpt lat="41.005650" lon="0.916090">
						<ele>39</ele>
						<time>2026-04-30T15:43:04Z</time>
					</trkpt>
					<trkpt lat="41.005450" lon="0.916240">
						<ele>39</ele>
						<time>2026-04-30T15:43:08Z</time>
					</trkpt>
					<trkpt lat="41.005270" lon="0.916370">
						<ele>39</ele>
						<time>2026-04-30T15:43:12Z</time>
					</trkpt>
					<trkpt lat="41.005170" lon="0.916470">
						<ele>39</ele>
						<time>2026-04-30T15:43:14Z</time>
					</trkpt>
					<trkpt lat="41.005040" lon="0.916640">
						<ele>40</ele>
						<time>2026-04-30T15:43:17Z</time>
					</trkpt>
					<trkpt lat="41.004910" lon="0.916870">
						<ele>38</ele>
						<time>2026-04-30T15:43:21Z</time>
					</trkpt>
					<trkpt lat="41.004700" lon="0.917280">
						<ele>35</ele>
						<time>2026-04-30T15:43:28Z</time>
					</trkpt>
					<trkpt lat="41.004410" lon="0.917850">
						<ele>35</ele>
						<time>2026-04-30T15:43:37Z</time>
					</trkpt>
					<trkpt lat="41.004320" lon="0.918030">
						<ele>35</ele>
						<time>2026-04-30T15:43:40Z</time>
					</trkpt>
					<trkpt lat="41.004220" lon="0.918120">
						<ele>36</ele>
						<time>2026-04-30T15:43:42Z</time>
					</trkpt>
					<trkpt lat="41.004110" lon="0.918170">
						<ele>37</ele>
						<time>2026-04-30T15:43:44Z</time>
					</trkpt>
					<trkpt lat="41.004070" lon="0.918160">
						<ele>37</ele>
						<time>2026-04-30T15:43:45Z</time>
					</trkpt>
					<trkpt lat="41.004030" lon="0.918150">
						<ele>37</ele>
						<time>2026-04-30T15:43:46Z</time>
					</trkpt>
					<trkpt lat="41.003980" lon="0.918170">
						<ele>37</ele>
						<time>2026-04-30T15:43:46Z</time>
					</trkpt>
					<trkpt lat="41.003940" lon="0.918220">
						<ele>37</ele>
						<time>2026-04-30T15:43:47Z</time>
					</trkpt>
					<trkpt lat="41.003920" lon="0.918290">
						<ele>37</ele>
						<time>2026-04-30T15:43:48Z</time>
					</trkpt>
					<trkpt lat="41.003920" lon="0.918310">
						<ele>37</ele>
						<time>2026-04-30T15:43:49Z</time>
					</trkpt>
					<trkpt lat="41.003920" lon="0.918370">
						<ele>36</ele>
						<time>2026-04-30T15:43:50Z</time>
					</trkpt>
					<trkpt lat="41.003950" lon="0.918420">
						<ele>36</ele>
						<time>2026-04-30T15:43:50Z</time>
					</trkpt>
					<trkpt lat="41.003990" lon="0.918470">
						<ele>35</ele>
						<time>2026-04-30T15:43:51Z</time>
					</trkpt>
					<trkpt lat="41.004000" lon="0.918470">
						<ele>35</ele>
						<time>2026-04-30T15:43:52Z</time>
					</trkpt>
					<trkpt lat="41.004030" lon="0.918480">
						<ele>35</ele>
						<time>2026-04-30T15:43:52Z</time>
					</trkpt>
					<trkpt lat="41.004050" lon="0.918530">
						<ele>34</ele>
						<time>2026-04-30T15:43:53Z</time>
					</trkpt>
					<trkpt lat="41.004120" lon="0.918740">
						<ele>32</ele>
						<time>2026-04-30T15:43:56Z</time>
					</trkpt>
					<trkpt lat="41.004120" lon="0.918810">
						<ele>31</ele>
						<time>2026-04-30T15:43:57Z</time>
					</trkpt>
					<trkpt lat="41.004110" lon="0.918850">
						<ele>31</ele>
						<time>2026-04-30T15:43:57Z</time>
					</trkpt>
					<trkpt lat="41.003390" lon="0.920870">
						<ele>25</ele>
						<time>2026-04-30T15:44:27Z</time>
					</trkpt>
					<trkpt lat="41.003290" lon="0.921170">
						<ele>23</ele>
						<time>2026-04-30T15:44:32Z</time>
					</trkpt>
					<trkpt lat="41.002990" lon="0.922020">
						<ele>21</ele>
						<time>2026-04-30T15:44:44Z</time>
					</trkpt>
					<trkpt lat="41.002840" lon="0.922330">
						<ele>20</ele>
						<time>2026-04-30T15:44:49Z</time>
					</trkpt>
					<trkpt lat="41.002740" lon="0.922500">
						<ele>20</ele>
						<time>2026-04-30T15:44:52Z</time>
					</trkpt>
					<trkpt lat="41.002580" lon="0.922680">
						<ele>20</ele>
						<time>2026-04-30T15:44:56Z</time>
					</trkpt>
					<trkpt lat="41.002430" lon="0.922810">
						<ele>19</ele>
						<time>2026-04-30T15:44:59Z</time>
					</trkpt>
					<trkpt lat="41.002350" lon="0.922870">
						<ele>19</ele>
						<time>2026-04-30T15:45:01Z</time>
					</trkpt>
					<trkpt lat="41.002260" lon="0.922920">
						<ele>19</ele>
						<time>2026-04-30T15:45:03Z</time>
					</trkpt>
					<trkpt lat="41.002160" lon="0.922660">
						<ele>21</ele>
						<time>2026-04-30T15:45:06Z</time>
					</trkpt>
					<trkpt lat="41.001790" lon="0.921860">
						<ele>26</ele>
						<time>2026-04-30T15:45:19Z</time>
					</trkpt>
					<trkpt lat="41.001440" lon="0.921090">
						<ele>32</ele>
						<time>2026-04-30T15:45:31Z</time>
					</trkpt>
					<trkpt lat="41.001020" lon="0.920190">
						<ele>31</ele>
						<time>2026-04-30T15:45:45Z</time>
					</trkpt>
					<trkpt lat="41.000720" lon="0.919520">
						<ele>30</ele>
						<time>2026-04-30T15:45:56Z</time>
					</trkpt>
					<trkpt lat="41.000390" lon="0.918810">
						<ele>30</ele>
						<time>2026-04-30T15:46:07Z</time>
					</trkpt>
					<trkpt lat="41.000090" lon="0.918160">
						<ele>30</ele>
						<time>2026-04-30T15:46:17Z</time>
					</trkpt>
					<trkpt lat="41.000050" lon="0.918040">
						<ele>30</ele>
						<time>2026-04-30T15:46:19Z</time>
					</trkpt>
					<trkpt lat="41.000040" lon="0.917990">
						<ele>30</ele>
						<time>2026-04-30T15:46:20Z</time>
					</trkpt>
					<trkpt lat="41.000030" lon="0.917920">
						<ele>30</ele>
						<time>2026-04-30T15:46:21Z</time>
					</trkpt>
					<trkpt lat="41.000010" lon="0.917850">
						<ele>29</ele>
						<time>2026-04-30T15:46:22Z</time>
					</trkpt>
					<trkpt lat="41.000010" lon="0.917750">
						<ele>29</ele>
						<time>2026-04-30T15:46:23Z</time>
					</trkpt>
					<trkpt lat="41.000030" lon="0.917590">
						<ele>29</ele>
						<time>2026-04-30T15:46:25Z</time>
					</trkpt>
					<trkpt lat="41.000030" lon="0.917490">
						<ele>29</ele>
						<time>2026-04-30T15:46:27Z</time>
					</trkpt>
					<trkpt lat="41.000000" lon="0.917400">
						<ele>29</ele>
						<time>2026-04-30T15:46:28Z</time>
					</trkpt>
					<trkpt lat="40.999960" lon="0.917330">
						<ele>29</ele>
						<time>2026-04-30T15:46:29Z</time>
					</trkpt>
					<trkpt lat="40.999890" lon="0.917270">
						<ele>28</ele>
						<time>2026-04-30T15:46:31Z</time>
					</trkpt>
					<trkpt lat="40.999800" lon="0.917260">
						<ele>28</ele>
						<time>2026-04-30T15:46:32Z</time>
					</trkpt>
					<trkpt lat="40.999730" lon="0.917280">
						<ele>28</ele>
						<time>2026-04-30T15:46:33Z</time>
					</trkpt>
					<trkpt lat="40.999670" lon="0.917340">
						<ele>28</ele>
						<time>2026-04-30T15:46:35Z</time>
					</trkpt>
					<trkpt lat="40.999640" lon="0.917390">
						<ele>28</ele>
						<time>2026-04-30T15:46:36Z</time>
					</trkpt>
					<trkpt lat="40.999620" lon="0.917450">
						<ele>28</ele>
						<time>2026-04-30T15:46:36Z</time>
					</trkpt>
					<trkpt lat="40.999610" lon="0.917510">
						<ele>28</ele>
						<time>2026-04-30T15:46:37Z</time>
					</trkpt>
					<trkpt lat="40.999530" lon="0.917610">
						<ele>28</ele>
						<time>2026-04-30T15:46:39Z</time>
					</trkpt>
					<trkpt lat="40.999450" lon="0.917670">
						<ele>28</ele>
						<time>2026-04-30T15:46:41Z</time>
					</trkpt>
					<trkpt lat="40.999440" lon="0.917680">
						<ele>28</ele>
						<time>2026-04-30T15:46:41Z</time>
					</trkpt>
					<trkpt lat="40.998770" lon="0.918030">
						<ele>27</ele>
						<time>2026-04-30T15:46:54Z</time>
					</trkpt>
					<trkpt lat="40.998630" lon="0.918100">
						<ele>26</ele>
						<time>2026-04-30T15:46:57Z</time>
					</trkpt>
					<trkpt lat="40.998430" lon="0.918180">
						<ele>26</ele>
						<time>2026-04-30T15:47:00Z</time>
					</trkpt>
					<trkpt lat="40.998300" lon="0.918220">
						<ele>26</ele>
						<time>2026-04-30T15:47:03Z</time>
					</trkpt>
					<trkpt lat="40.998100" lon="0.918290">
						<ele>25</ele>
						<time>2026-04-30T15:47:06Z</time>
					</trkpt>
					<trkpt lat="40.997740" lon="0.918400">
						<ele>23</ele>
						<time>2026-04-30T15:47:13Z</time>
					</trkpt>
					<trkpt lat="40.997710" lon="0.918410">
						<ele>23</ele>
						<time>2026-04-30T15:47:14Z</time>
					</trkpt>
					<trkpt lat="40.997610" lon="0.918410">
						<ele>23</ele>
						<time>2026-04-30T15:47:15Z</time>
					</trkpt>
					<trkpt lat="40.997540" lon="0.918390">
						<ele>22</ele>
						<time>2026-04-30T15:47:17Z</time>
					</trkpt>
					<trkpt lat="40.997460" lon="0.918320">
						<ele>22</ele>
						<time>2026-04-30T15:47:18Z</time>
					</trkpt>
					<trkpt lat="40.997390" lon="0.918270">
						<ele>22</ele>
						<time>2026-04-30T15:47:20Z</time>
					</trkpt>
					<trkpt lat="40.997070" lon="0.918030">
						<ele>20</ele>
						<time>2026-04-30T15:47:26Z</time>
					</trkpt>
					<trkpt lat="40.996880" lon="0.917970">
						<ele>20</ele>
						<time>2026-04-30T15:47:30Z</time>
					</trkpt>
					<trkpt lat="40.996670" lon="0.917950">
						<ele>19</ele>
						<time>2026-04-30T15:47:33Z</time>
					</trkpt>
					<trkpt lat="40.996240" lon="0.918060">
						<ele>17</ele>
						<time>2026-04-30T15:47:41Z</time>
					</trkpt>
					<trkpt lat="40.996080" lon="0.918040">
						<ele>17</ele>
						<time>2026-04-30T15:47:44Z</time>
					</trkpt>
					<trkpt lat="40.995980" lon="0.917960">
						<ele>17</ele>
						<time>2026-04-30T15:47:46Z</time>
					</trkpt>
					<trkpt lat="40.995920" lon="0.917900">
						<ele>16</ele>
						<time>2026-04-30T15:47:48Z</time>
					</trkpt>
					<trkpt lat="40.995710" lon="0.917610">
						<ele>16</ele>
						<time>2026-04-30T15:47:53Z</time>
					</trkpt>
					<trkpt lat="40.995480" lon="0.917370">
						<ele>16</ele>
						<time>2026-04-30T15:47:58Z</time>
					</trkpt>
					<trkpt lat="40.994120" lon="0.915320">
						<ele>18</ele>
						<time>2026-04-30T15:48:35Z</time>
					</trkpt>
					<trkpt lat="40.993510" lon="0.914400">
						<ele>19</ele>
						<time>2026-04-30T15:48:51Z</time>
					</trkpt>
					<trkpt lat="40.993050" lon="0.913790">
						<ele>20</ele>
						<time>2026-04-30T15:49:03Z</time>
					</trkpt>
					<trkpt lat="40.992290" lon="0.912910">
						<ele>20</ele>
						<time>2026-04-30T15:49:21Z</time>
					</trkpt>
					<trkpt lat="40.991060" lon="0.911660">
						<ele>18</ele>
						<time>2026-04-30T15:49:48Z</time>
					</trkpt>
					<trkpt lat="40.990550" lon="0.911060">
						<ele>17</ele>
						<time>2026-04-30T15:50:00Z</time>
					</trkpt>
					<trkpt lat="40.989880" lon="0.910260">
						<ele>16</ele>
						<time>2026-04-30T15:50:17Z</time>
					</trkpt>
					<trkpt lat="40.989820" lon="0.910190">
						<ele>16</ele>
						<time>2026-04-30T15:50:18Z</time>
					</trkpt>
					<trkpt lat="40.989210" lon="0.909480">
						<ele>14</ele>
						<time>2026-04-30T15:50:32Z</time>
					</trkpt>
					<trkpt lat="40.989140" lon="0.909400">
						<ele>14</ele>
						<time>2026-04-30T15:50:34Z</time>
					</trkpt>
					<trkpt lat="40.989110" lon="0.909360">
						<ele>14</ele>
						<time>2026-04-30T15:50:35Z</time>
					</trkpt>
					<trkpt lat="40.987400" lon="0.907360">
						<ele>21</ele>
						<time>2026-04-30T15:51:15Z</time>
					</trkpt>
					<trkpt lat="40.986490" lon="0.906280">
						<ele>25</ele>
						<time>2026-04-30T15:51:37Z</time>
					</trkpt>
					<trkpt lat="40.985910" lon="0.905590">
						<ele>27</ele>
						<time>2026-04-30T15:51:51Z</time>
					</trkpt>
					<trkpt lat="40.985230" lon="0.904870">
						<ele>26</ele>
						<time>2026-04-30T15:52:06Z</time>
					</trkpt>
					<trkpt lat="40.984720" lon="0.904320">
						<ele>28</ele>
						<time>2026-04-30T15:52:18Z</time>
					</trkpt>
					<trkpt lat="40.983430" lon="0.902960">
						<ele>30</ele>
						<time>2026-04-30T15:52:48Z</time>
					</trkpt>
					<trkpt lat="40.983370" lon="0.902890">
						<ele>30</ele>
						<time>2026-04-30T15:52:49Z</time>
					</trkpt>
					<trkpt lat="40.983290" lon="0.902810">
						<ele>30</ele>
						<time>2026-04-30T15:52:51Z</time>
					</trkpt>
					<trkpt lat="40.982520" lon="0.901990">
						<ele>29</ele>
						<time>2026-04-30T15:53:08Z</time>
					</trkpt>
					<trkpt lat="40.982410" lon="0.901880">
						<ele>29</ele>
						<time>2026-04-30T15:53:11Z</time>
					</trkpt>
					<trkpt lat="40.982360" lon="0.901820">
						<ele>29</ele>
						<time>2026-04-30T15:53:12Z</time>
					</trkpt>
					<trkpt lat="40.981220" lon="0.900580">
						<ele>29</ele>
						<time>2026-04-30T15:53:38Z</time>
					</trkpt>
					<trkpt lat="40.980940" lon="0.900230">
						<ele>28</ele>
						<time>2026-04-30T15:53:45Z</time>
					</trkpt>
					<trkpt lat="40.980690" lon="0.899840">
						<ele>28</ele>
						<time>2026-04-30T15:53:52Z</time>
					</trkpt>
					<trkpt lat="40.980430" lon="0.899350">
						<ele>29</ele>
						<time>2026-04-30T15:54:00Z</time>
					</trkpt>
					<trkpt lat="40.980380" lon="0.899250">
						<ele>29</ele>
						<time>2026-04-30T15:54:02Z</time>
					</trkpt>
					<trkpt lat="40.980190" lon="0.898770">
						<ele>30</ele>
						<time>2026-04-30T15:54:09Z</time>
					</trkpt>
					<trkpt lat="40.980000" lon="0.898180">
						<ele>30</ele>
						<time>2026-04-30T15:54:17Z</time>
					</trkpt>
					<trkpt lat="40.979930" lon="0.897860">
						<ele>30</ele>
						<time>2026-04-30T15:54:22Z</time>
					</trkpt>
					<trkpt lat="40.979730" lon="0.897050">
						<ele>31</ele>
						<time>2026-04-30T15:54:33Z</time>
					</trkpt>
					<trkpt lat="40.979710" lon="0.896940">
						<ele>32</ele>
						<time>2026-04-30T15:54:35Z</time>
					</trkpt>
					<trkpt lat="40.979330" lon="0.895370">
						<ele>35</ele>
						<time>2026-04-30T15:54:57Z</time>
					</trkpt>
					<trkpt lat="40.979020" lon="0.894080">
						<ele>41</ele>
						<time>2026-04-30T15:55:15Z</time>
					</trkpt>
					<trkpt lat="40.978820" lon="0.893260">
						<ele>42</ele>
						<time>2026-04-30T15:55:27Z</time>
					</trkpt>
					<trkpt lat="40.978790" lon="0.893140">
						<ele>42</ele>
						<time>2026-04-30T15:55:29Z</time>
					</trkpt>
					<trkpt lat="40.978630" lon="0.892640">
						<ele>42</ele>
						<time>2026-04-30T15:55:36Z</time>
					</trkpt>
					<trkpt lat="40.978470" lon="0.892320">
						<ele>43</ele>
						<time>2026-04-30T15:55:41Z</time>
					</trkpt>
					<trkpt lat="40.977580" lon="0.890960">
						<ele>46</ele>
						<time>2026-04-30T15:56:05Z</time>
					</trkpt>
					<trkpt lat="40.977320" lon="0.890500">
						<ele>50</ele>
						<time>2026-04-30T15:56:13Z</time>
					</trkpt>
					<trkpt lat="40.977080" lon="0.889940">
						<ele>56</ele>
						<time>2026-04-30T15:56:22Z</time>
					</trkpt>
					<trkpt lat="40.976980" lon="0.889610">
						<ele>57</ele>
						<time>2026-04-30T15:56:26Z</time>
					</trkpt>
					<trkpt lat="40.976870" lon="0.889130">
						<ele>59</ele>
						<time>2026-04-30T15:56:33Z</time>
					</trkpt>
					<trkpt lat="40.976790" lon="0.888520">
						<ele>58</ele>
						<time>2026-04-30T15:56:41Z</time>
					</trkpt>
					<trkpt lat="40.976740" lon="0.887800">
						<ele>59</ele>
						<time>2026-04-30T15:56:51Z</time>
					</trkpt>
					<trkpt lat="40.976740" lon="0.886820">
						<ele>62</ele>
						<time>2026-04-30T15:57:04Z</time>
					</trkpt>
					<trkpt lat="40.976700" lon="0.886520">
						<ele>63</ele>
						<time>2026-04-30T15:57:08Z</time>
					</trkpt>
					<trkpt lat="40.976460" lon="0.885740">
						<ele>72</ele>
						<time>2026-04-30T15:57:20Z</time>
					</trkpt>
					<trkpt lat="40.976370" lon="0.885470">
						<ele>74</ele>
						<time>2026-04-30T15:57:24Z</time>
					</trkpt>
					<trkpt lat="40.976290" lon="0.885240">
						<ele>75</ele>
						<time>2026-04-30T15:57:27Z</time>
					</trkpt>
					<trkpt lat="40.976040" lon="0.884410">
						<ele>75</ele>
						<time>2026-04-30T15:57:39Z</time>
					</trkpt>
					<trkpt lat="40.975890" lon="0.884070">
						<ele>75</ele>
						<time>2026-04-30T15:57:44Z</time>
					</trkpt>
					<trkpt lat="40.975710" lon="0.883830">
						<ele>76</ele>
						<time>2026-04-30T15:57:49Z</time>
					</trkpt>
					<trkpt lat="40.973990" lon="0.882150">
						<ele>86</ele>
						<time>2026-04-30T15:58:27Z</time>
					</trkpt>
					<trkpt lat="40.973730" lon="0.881960">
						<ele>88</ele>
						<time>2026-04-30T15:58:32Z</time>
					</trkpt>
					<trkpt lat="40.973680" lon="0.881920">
						<ele>88</ele>
						<time>2026-04-30T15:58:33Z</time>
					</trkpt>
					<trkpt lat="40.973380" lon="0.881760">
						<ele>90</ele>
						<time>2026-04-30T15:58:39Z</time>
					</trkpt>
					<trkpt lat="40.973310" lon="0.881720">
						<ele>90</ele>
						<time>2026-04-30T15:58:40Z</time>
					</trkpt>
					<trkpt lat="40.971970" lon="0.881200">
						<ele>89</ele>
						<time>2026-04-30T15:59:05Z</time>
					</trkpt>
					<trkpt lat="40.971580" lon="0.881040">
						<ele>88</ele>
						<time>2026-04-30T15:59:12Z</time>
					</trkpt>
					<trkpt lat="40.970150" lon="0.880500">
						<ele>83</ele>
						<time>2026-04-30T15:59:39Z</time>
					</trkpt>
					<trkpt lat="40.968530" lon="0.879800">
						<ele>71</ele>
						<time>2026-04-30T16:00:09Z</time>
					</trkpt>
					<trkpt lat="40.968230" lon="0.879600">
						<ele>69</ele>
						<time>2026-04-30T16:00:15Z</time>
					</trkpt>
					<trkpt lat="40.968060" lon="0.879400">
						<ele>67</ele>
						<time>2026-04-30T16:00:19Z</time>
					</trkpt>
					<trkpt lat="40.967940" lon="0.879140">
						<ele>66</ele>
						<time>2026-04-30T16:00:23Z</time>
					</trkpt>
					<trkpt lat="40.967890" lon="0.878840">
						<ele>64</ele>
						<time>2026-04-30T16:00:27Z</time>
					</trkpt>
					<trkpt lat="40.967900" lon="0.878330">
						<ele>64</ele>
						<time>2026-04-30T16:00:34Z</time>
					</trkpt>
					<trkpt lat="40.967880" lon="0.877890">
						<ele>61</ele>
						<time>2026-04-30T16:00:40Z</time>
					</trkpt>
					<trkpt lat="40.967820" lon="0.877570">
						<ele>58</ele>
						<time>2026-04-30T16:00:45Z</time>
					</trkpt>
					<trkpt lat="40.967720" lon="0.877260">
						<ele>59</ele>
						<time>2026-04-30T16:00:49Z</time>
					</trkpt>
					<trkpt lat="40.967550" lon="0.876980">
						<ele>59</ele>
						<time>2026-04-30T16:00:54Z</time>
					</trkpt>
					<trkpt lat="40.967310" lon="0.876730">
						<ele>57</ele>
						<time>2026-04-30T16:00:59Z</time>
					</trkpt>
					<trkpt lat="40.966020" lon="0.875780">
						<ele>49</ele>
						<time>2026-04-30T16:01:26Z</time>
					</trkpt>
					<trkpt lat="40.965770" lon="0.875660">
						<ele>48</ele>
						<time>2026-04-30T16:01:30Z</time>
					</trkpt>
					<trkpt lat="40.965490" lon="0.875600">
						<ele>47</ele>
						<time>2026-04-30T16:01:35Z</time>
					</trkpt>
					<trkpt lat="40.965040" lon="0.875590">
						<ele>44</ele>
						<time>2026-04-30T16:01:43Z</time>
					</trkpt>
					<trkpt lat="40.964740" lon="0.875560">
						<ele>40</ele>
						<time>2026-04-30T16:01:49Z</time>
					</trkpt>
					<trkpt lat="40.964410" lon="0.875430">
						<ele>38</ele>
						<time>2026-04-30T16:01:55Z</time>
					</trkpt>
					<trkpt lat="40.962680" lon="0.874440">
						<ele>33</ele>
						<time>2026-04-30T16:02:28Z</time>
					</trkpt>
					<trkpt lat="40.962380" lon="0.874260">
						<ele>33</ele>
						<time>2026-04-30T16:02:34Z</time>
					</trkpt>
					<trkpt lat="40.962030" lon="0.873990">
						<ele>34</ele>
						<time>2026-04-30T16:02:42Z</time>
					</trkpt>
					<trkpt lat="40.961780" lon="0.873720">
						<ele>35</ele>
						<time>2026-04-30T16:02:47Z</time>
					</trkpt>
					<trkpt lat="40.961520" lon="0.873330">
						<ele>36</ele>
						<time>2026-04-30T16:02:54Z</time>
					</trkpt>
					<trkpt lat="40.960850" lon="0.872130">
						<ele>38</ele>
						<time>2026-04-30T16:03:14Z</time>
					</trkpt>
					<trkpt lat="40.960610" lon="0.871770">
						<ele>38</ele>
						<time>2026-04-30T16:03:21Z</time>
					</trkpt>
					<trkpt lat="40.960250" lon="0.871360">
						<ele>36</ele>
						<time>2026-04-30T16:03:29Z</time>
					</trkpt>
					<trkpt lat="40.959820" lon="0.871010">
						<ele>34</ele>
						<time>2026-04-30T16:03:38Z</time>
					</trkpt>
					<trkpt lat="40.959500" lon="0.870810">
						<ele>35</ele>
						<time>2026-04-30T16:03:45Z</time>
					</trkpt>
					<trkpt lat="40.959450" lon="0.870790">
						<ele>35</ele>
						<time>2026-04-30T16:03:45Z</time>
					</trkpt>
					<trkpt lat="40.959180" lon="0.870660">
						<ele>36</ele>
						<time>2026-04-30T16:03:51Z</time>
					</trkpt>
					<trkpt lat="40.958980" lon="0.870600">
						<ele>36</ele>
						<time>2026-04-30T16:03:54Z</time>
					</trkpt>
					<trkpt lat="40.958770" lon="0.870550">
						<ele>37</ele>
						<time>2026-04-30T16:03:58Z</time>
					</trkpt>
					<trkpt lat="40.958420" lon="0.870500">
						<ele>37</ele>
						<time>2026-04-30T16:04:04Z</time>
					</trkpt>
					<trkpt lat="40.957680" lon="0.870430">
						<ele>38</ele>
						<time>2026-04-30T16:04:17Z</time>
					</trkpt>
					<trkpt lat="40.957300" lon="0.870350">
						<ele>37</ele>
						<time>2026-04-30T16:04:24Z</time>
					</trkpt>
					<trkpt lat="40.957030" lon="0.870280">
						<ele>35</ele>
						<time>2026-04-30T16:04:29Z</time>
					</trkpt>
					<trkpt lat="40.956750" lon="0.870180">
						<ele>32</ele>
						<time>2026-04-30T16:04:34Z</time>
					</trkpt>
					<trkpt lat="40.956570" lon="0.870100">
						<ele>32</ele>
						<time>2026-04-30T16:04:38Z</time>
					</trkpt>
					<trkpt lat="40.956370" lon="0.870000">
						<ele>32</ele>
						<time>2026-04-30T16:04:42Z</time>
					</trkpt>
					<trkpt lat="40.956150" lon="0.869870">
						<ele>32</ele>
						<time>2026-04-30T16:04:46Z</time>
					</trkpt>
					<trkpt lat="40.955960" lon="0.869730">
						<ele>33</ele>
						<time>2026-04-30T16:04:50Z</time>
					</trkpt>
					<trkpt lat="40.955620" lon="0.869460">
						<ele>34</ele>
						<time>2026-04-30T16:04:57Z</time>
					</trkpt>
					<trkpt lat="40.955290" lon="0.869140">
						<ele>34</ele>
						<time>2026-04-30T16:05:04Z</time>
					</trkpt>
					<trkpt lat="40.955000" lon="0.868760">
						<ele>34</ele>
						<time>2026-04-30T16:05:11Z</time>
					</trkpt>
					<trkpt lat="40.954900" lon="0.868640">
						<ele>35</ele>
						<time>2026-04-30T16:05:14Z</time>
					</trkpt>
					<trkpt lat="40.954720" lon="0.868380">
						<ele>34</ele>
						<time>2026-04-30T16:05:18Z</time>
					</trkpt>
					<trkpt lat="40.954570" lon="0.868140">
						<ele>34</ele>
						<time>2026-04-30T16:05:23Z</time>
					</trkpt>
					<trkpt lat="40.954310" lon="0.867630">
						<ele>33</ele>
						<time>2026-04-30T16:05:31Z</time>
					</trkpt>
					<trkpt lat="40.954240" lon="0.867500">
						<ele>32</ele>
						<time>2026-04-30T16:05:33Z</time>
					</trkpt>
					<trkpt lat="40.954050" lon="0.867140">
						<ele>33</ele>
						<time>2026-04-30T16:05:39Z</time>
					</trkpt>
					<trkpt lat="40.953940" lon="0.866850">
						<ele>33</ele>
						<time>2026-04-30T16:05:43Z</time>
					</trkpt>
					<trkpt lat="40.953720" lon="0.866320">
						<ele>32</ele>
						<time>2026-04-30T16:05:51Z</time>
					</trkpt>
					<trkpt lat="40.953550" lon="0.865810">
						<ele>32</ele>
						<time>2026-04-30T16:05:59Z</time>
					</trkpt>
					<trkpt lat="40.953410" lon="0.865280">
						<ele>32</ele>
						<time>2026-04-30T16:06:06Z</time>
					</trkpt>
					<trkpt lat="40.953230" lon="0.864490">
						<ele>33</ele>
						<time>2026-04-30T16:06:18Z</time>
					</trkpt>
					<trkpt lat="40.953010" lon="0.863050">
						<ele>38</ele>
						<time>2026-04-30T16:06:37Z</time>
					</trkpt>
					<trkpt lat="40.952800" lon="0.861620">
						<ele>41</ele>
						<time>2026-04-30T16:06:57Z</time>
					</trkpt>
					<trkpt lat="40.952750" lon="0.861320">
						<ele>43</ele>
						<time>2026-04-30T16:07:01Z</time>
					</trkpt>
					<trkpt lat="40.952700" lon="0.861160">
						<ele>44</ele>
						<time>2026-04-30T16:07:03Z</time>
					</trkpt>
					<trkpt lat="40.952660" lon="0.861030">
						<ele>45</ele>
						<time>2026-04-30T16:07:05Z</time>
					</trkpt>
					<trkpt lat="40.952610" lon="0.860920">
						<ele>45</ele>
						<time>2026-04-30T16:07:07Z</time>
					</trkpt>
					<trkpt lat="40.952530" lon="0.860790">
						<ele>46</ele>
						<time>2026-04-30T16:07:09Z</time>
					</trkpt>
					<trkpt lat="40.952410" lon="0.860620">
						<ele>46</ele>
						<time>2026-04-30T16:07:12Z</time>
					</trkpt>
					<trkpt lat="40.952350" lon="0.860550">
						<ele>46</ele>
						<time>2026-04-30T16:07:14Z</time>
					</trkpt>
					<trkpt lat="40.952250" lon="0.860460">
						<ele>46</ele>
						<time>2026-04-30T16:07:16Z</time>
					</trkpt>
					<trkpt lat="40.951910" lon="0.860230">
						<ele>44</ele>
						<time>2026-04-30T16:07:23Z</time>
					</trkpt>
					<trkpt lat="40.951550" lon="0.859990">
						<ele>42</ele>
						<time>2026-04-30T16:07:30Z</time>
					</trkpt>
					<trkpt lat="40.951470" lon="0.859950">
						<ele>42</ele>
						<time>2026-04-30T16:07:31Z</time>
					</trkpt>
					<trkpt lat="40.951370" lon="0.859820">
						<ele>42</ele>
						<time>2026-04-30T16:07:34Z</time>
					</trkpt>
					<trkpt lat="40.951310" lon="0.859740">
						<ele>42</ele>
						<time>2026-04-30T16:07:35Z</time>
					</trkpt>
					<trkpt lat="40.951270" lon="0.859640">
						<ele>43</ele>
						<time>2026-04-30T16:07:37Z</time>
					</trkpt>
					<trkpt lat="40.951220" lon="0.859530">
						<ele>44</ele>
						<time>2026-04-30T16:07:39Z</time>
					</trkpt>
					<trkpt lat="40.951200" lon="0.859400">
						<ele>45</ele>
						<time>2026-04-30T16:07:40Z</time>
					</trkpt>
					<trkpt lat="40.951200" lon="0.859220">
						<ele>46</ele>
						<time>2026-04-30T16:07:43Z</time>
					</trkpt>
					<trkpt lat="40.951220" lon="0.859050">
						<ele>48</ele>
						<time>2026-04-30T16:07:45Z</time>
					</trkpt>
					<trkpt lat="40.951270" lon="0.858880">
						<ele>49</ele>
						<time>2026-04-30T16:07:48Z</time>
					</trkpt>
					<trkpt lat="40.951410" lon="0.858500">
						<ele>52</ele>
						<time>2026-04-30T16:07:53Z</time>
					</trkpt>
					<trkpt lat="40.951580" lon="0.858050">
						<ele>55</ele>
						<time>2026-04-30T16:08:00Z</time>
					</trkpt>
					<trkpt lat="40.951730" lon="0.857630">
						<ele>58</ele>
						<time>2026-04-30T16:08:06Z</time>
					</trkpt>
					<trkpt lat="40.951760" lon="0.857520">
						<ele>59</ele>
						<time>2026-04-30T16:08:08Z</time>
					</trkpt>
					<trkpt lat="40.951760" lon="0.857430">
						<ele>60</ele>
						<time>2026-04-30T16:08:09Z</time>
					</trkpt>
					<trkpt lat="40.951750" lon="0.857270">
						<ele>61</ele>
						<time>2026-04-30T16:08:11Z</time>
					</trkpt>
					<trkpt lat="40.951690" lon="0.857140">
						<ele>61</ele>
						<time>2026-04-30T16:08:13Z</time>
					</trkpt>
					<trkpt lat="40.951650" lon="0.857080">
						<ele>61</ele>
						<time>2026-04-30T16:08:14Z</time>
					</trkpt>
					<trkpt lat="40.951610" lon="0.857040">
						<ele>61</ele>
						<time>2026-04-30T16:08:15Z</time>
					</trkpt>
					<trkpt lat="40.951560" lon="0.857000">
						<ele>61</ele>
						<time>2026-04-30T16:08:16Z</time>
					</trkpt>
					<trkpt lat="40.951500" lon="0.856970">
						<ele>61</ele>
						<time>2026-04-30T16:08:17Z</time>
					</trkpt>
					<trkpt lat="40.951430" lon="0.856950">
						<ele>61</ele>
						<time>2026-04-30T16:08:19Z</time>
					</trkpt>
					<trkpt lat="40.951370" lon="0.856950">
						<ele>60</ele>
						<time>2026-04-30T16:08:20Z</time>
					</trkpt>
					<trkpt lat="40.951270" lon="0.856950">
						<ele>59</ele>
						<time>2026-04-30T16:08:22Z</time>
					</trkpt>
					<trkpt lat="40.951200" lon="0.856970">
						<ele>59</ele>
						<time>2026-04-30T16:08:23Z</time>
					</trkpt>
					<trkpt lat="40.950880" lon="0.857120">
						<ele>56</ele>
						<time>2026-04-30T16:08:29Z</time>
					</trkpt>
					<trkpt lat="40.950690" lon="0.857180">
						<ele>55</ele>
						<time>2026-04-30T16:08:32Z</time>
					</trkpt>
					<trkpt lat="40.950530" lon="0.857190">
						<ele>53</ele>
						<time>2026-04-30T16:08:35Z</time>
					</trkpt>
					<trkpt lat="40.950290" lon="0.857140">
						<ele>51</ele>
						<time>2026-04-30T16:08:39Z</time>
					</trkpt>
					<trkpt lat="40.950060" lon="0.856990">
						<ele>50</ele>
						<time>2026-04-30T16:08:44Z</time>
					</trkpt>
					<trkpt lat="40.949800" lon="0.856790">
						<ele>48</ele>
						<time>2026-04-30T16:08:49Z</time>
					</trkpt>
					<trkpt lat="40.949340" lon="0.856390">
						<ele>46</ele>
						<time>2026-04-30T16:08:59Z</time>
					</trkpt>
					<trkpt lat="40.949180" lon="0.856240">
						<ele>46</ele>
						<time>2026-04-30T16:09:03Z</time>
					</trkpt>
					<trkpt lat="40.948910" lon="0.855900">
						<ele>46</ele>
						<time>2026-04-30T16:09:09Z</time>
					</trkpt>
					<trkpt lat="40.948640" lon="0.855490">
						<ele>46</ele>
						<time>2026-04-30T16:09:17Z</time>
					</trkpt>
					<trkpt lat="40.948500" lon="0.855330">
						<ele>46</ele>
						<time>2026-04-30T16:09:20Z</time>
					</trkpt>
					<trkpt lat="40.948310" lon="0.855020">
						<ele>47</ele>
						<time>2026-04-30T16:09:25Z</time>
					</trkpt>
					<trkpt lat="40.947840" lon="0.854220">
						<ele>49</ele>
						<time>2026-04-30T16:09:39Z</time>
					</trkpt>
					<trkpt lat="40.947570" lon="0.853840">
						<ele>48</ele>
						<time>2026-04-30T16:09:46Z</time>
					</trkpt>
					<trkpt lat="40.947180" lon="0.853380">
						<ele>47</ele>
						<time>2026-04-30T16:09:55Z</time>
					</trkpt>
					<trkpt lat="40.946890" lon="0.853100">
						<ele>47</ele>
						<time>2026-04-30T16:10:02Z</time>
					</trkpt>
					<trkpt lat="40.946480" lon="0.852740">
						<ele>46</ele>
						<time>2026-04-30T16:10:10Z</time>
					</trkpt>
					<trkpt lat="40.945830" lon="0.852190">
						<ele>45</ele>
						<time>2026-04-30T16:10:24Z</time>
					</trkpt>
					<trkpt lat="40.945520" lon="0.851870">
						<ele>45</ele>
						<time>2026-04-30T16:10:31Z</time>
					</trkpt>
					<trkpt lat="40.945230" lon="0.851520">
						<ele>44</ele>
						<time>2026-04-30T16:10:38Z</time>
					</trkpt>
					<trkpt lat="40.944910" lon="0.851040">
						<ele>44</ele>
						<time>2026-04-30T16:10:47Z</time>
					</trkpt>
					<trkpt lat="40.944630" lon="0.850570">
						<ele>44</ele>
						<time>2026-04-30T16:10:55Z</time>
					</trkpt>
					<trkpt lat="40.944390" lon="0.850070">
						<ele>44</ele>
						<time>2026-04-30T16:11:03Z</time>
					</trkpt>
					<trkpt lat="40.944070" lon="0.849490">
						<ele>42</ele>
						<time>2026-04-30T16:11:12Z</time>
					</trkpt>
					<trkpt lat="40.943800" lon="0.849070">
						<ele>41</ele>
						<time>2026-04-30T16:11:20Z</time>
					</trkpt>
					<trkpt lat="40.943460" lon="0.848610">
						<ele>41</ele>
						<time>2026-04-30T16:11:28Z</time>
					</trkpt>
					<trkpt lat="40.943120" lon="0.848220">
						<ele>42</ele>
						<time>2026-04-30T16:11:36Z</time>
					</trkpt>
					<trkpt lat="40.942950" lon="0.848030">
						<ele>42</ele>
						<time>2026-04-30T16:11:40Z</time>
					</trkpt>
					<trkpt lat="40.942770" lon="0.847730">
						<ele>44</ele>
						<time>2026-04-30T16:11:45Z</time>
					</trkpt>
					<trkpt lat="40.942770" lon="0.847680">
						<ele>44</ele>
						<time>2026-04-30T16:11:46Z</time>
					</trkpt>
					<trkpt lat="40.942750" lon="0.847620">
						<ele>44</ele>
						<time>2026-04-30T16:11:47Z</time>
					</trkpt>
					<trkpt lat="40.942750" lon="0.847470">
						<ele>45</ele>
						<time>2026-04-30T16:11:49Z</time>
					</trkpt>
					<trkpt lat="40.942770" lon="0.847360">
						<ele>46</ele>
						<time>2026-04-30T16:11:51Z</time>
					</trkpt>
					<trkpt lat="40.942860" lon="0.847130">
						<ele>48</ele>
						<time>2026-04-30T16:11:54Z</time>
					</trkpt>
					<trkpt lat="40.942960" lon="0.846780">
						<ele>51</ele>
						<time>2026-04-30T16:11:59Z</time>
					</trkpt>
					<trkpt lat="40.942990" lon="0.846540">
						<ele>53</ele>
						<time>2026-04-30T16:12:02Z</time>
					</trkpt>
					<trkpt lat="40.942980" lon="0.846260">
						<ele>54</ele>
						<time>2026-04-30T16:12:06Z</time>
					</trkpt>
					<trkpt lat="40.942920" lon="0.845800">
						<ele>56</ele>
						<time>2026-04-30T16:12:12Z</time>
					</trkpt>
					<trkpt lat="40.942790" lon="0.844990">
						<ele>58</ele>
						<time>2026-04-30T16:12:24Z</time>
					</trkpt>
					<trkpt lat="40.942680" lon="0.844320">
						<ele>60</ele>
						<time>2026-04-30T16:12:33Z</time>
					</trkpt>
					<trkpt lat="40.942650" lon="0.844130">
						<ele>60</ele>
						<time>2026-04-30T16:12:35Z</time>
					</trkpt>
					<trkpt lat="40.942360" lon="0.841710">
						<ele>63</ele>
						<time>2026-04-30T16:13:08Z</time>
					</trkpt>
					<trkpt lat="40.942310" lon="0.841250">
						<ele>64</ele>
						<time>2026-04-30T16:13:15Z</time>
					</trkpt>
					<trkpt lat="40.942250" lon="0.840760">
						<ele>65</ele>
						<time>2026-04-30T16:13:21Z</time>
					</trkpt>
					<trkpt lat="40.942180" lon="0.840190">
						<ele>67</ele>
						<time>2026-04-30T16:13:29Z</time>
					</trkpt>
					<trkpt lat="40.941960" lon="0.838370">
						<ele>68</ele>
						<time>2026-04-30T16:13:54Z</time>
					</trkpt>
					<trkpt lat="40.941850" lon="0.837320">
						<ele>68</ele>
						<time>2026-04-30T16:14:08Z</time>
					</trkpt>
					<trkpt lat="40.941630" lon="0.835240">
						<ele>71</ele>
						<time>2026-04-30T16:14:36Z</time>
					</trkpt>
					<trkpt lat="40.941590" lon="0.834850">
						<ele>72</ele>
						<time>2026-04-30T16:14:42Z</time>
					</trkpt>
					<trkpt lat="40.941110" lon="0.831020">
						<ele>81</ele>
						<time>2026-04-30T16:15:34Z</time>
					</trkpt>
					<trkpt lat="40.941070" lon="0.830660">
						<ele>81</ele>
						<time>2026-04-30T16:15:39Z</time>
					</trkpt>
					<trkpt lat="40.941060" lon="0.830450">
						<ele>80</ele>
						<time>2026-04-30T16:15:41Z</time>
					</trkpt>
					<trkpt lat="40.941090" lon="0.830170">
						<ele>80</ele>
						<time>2026-04-30T16:15:45Z</time>
					</trkpt>
					<trkpt lat="40.941250" lon="0.829470">
						<ele>80</ele>
						<time>2026-04-30T16:15:55Z</time>
					</trkpt>
					<trkpt lat="40.941280" lon="0.829260">
						<ele>79</ele>
						<time>2026-04-30T16:15:58Z</time>
					</trkpt>
					<trkpt lat="40.941240" lon="0.829050">
						<ele>78</ele>
						<time>2026-04-30T16:16:01Z</time>
					</trkpt>
					<trkpt lat="40.941120" lon="0.828780">
						<ele>74</ele>
						<time>2026-04-30T16:16:05Z</time>
					</trkpt>
					<trkpt lat="40.940910" lon="0.828200">
						<ele>70</ele>
						<time>2026-04-30T16:16:14Z</time>
					</trkpt>
					<trkpt lat="40.940800" lon="0.827830">
						<ele>69</ele>
						<time>2026-04-30T16:16:19Z</time>
					</trkpt>
					<trkpt lat="40.940720" lon="0.827540">
						<ele>70</ele>
						<time>2026-04-30T16:16:23Z</time>
					</trkpt>
					<trkpt lat="40.940700" lon="0.827410">
						<ele>70</ele>
						<time>2026-04-30T16:16:25Z</time>
					</trkpt>
					<trkpt lat="40.940690" lon="0.827230">
						<ele>71</ele>
						<time>2026-04-30T16:16:27Z</time>
					</trkpt>
					<trkpt lat="40.940710" lon="0.827030">
						<ele>71</ele>
						<time>2026-04-30T16:16:30Z</time>
					</trkpt>
					<trkpt lat="40.940740" lon="0.826840">
						<ele>71</ele>
						<time>2026-04-30T16:16:33Z</time>
					</trkpt>
					<trkpt lat="40.940810" lon="0.826510">
						<ele>71</ele>
						<time>2026-04-30T16:16:37Z</time>
					</trkpt>
					<trkpt lat="40.940870" lon="0.826350">
						<ele>72</ele>
						<time>2026-04-30T16:16:40Z</time>
					</trkpt>
					<trkpt lat="40.941180" lon="0.825640">
						<ele>76</ele>
						<time>2026-04-30T16:16:51Z</time>
					</trkpt>
					<trkpt lat="40.941380" lon="0.825060">
						<ele>77</ele>
						<time>2026-04-30T16:16:59Z</time>
					</trkpt>
					<trkpt lat="40.941820" lon="0.823920">
						<ele>83</ele>
						<time>2026-04-30T16:17:17Z</time>
					</trkpt>
					<trkpt lat="40.941860" lon="0.823810">
						<ele>83</ele>
						<time>2026-04-30T16:17:18Z</time>
					</trkpt>
					<trkpt lat="40.941880" lon="0.823710">
						<ele>84</ele>
						<time>2026-04-30T16:17:20Z</time>
					</trkpt>
					<trkpt lat="40.941900" lon="0.823350">
						<ele>87</ele>
						<time>2026-04-30T16:17:24Z</time>
					</trkpt>
					<trkpt lat="40.941920" lon="0.823260">
						<ele>87</ele>
						<time>2026-04-30T16:17:26Z</time>
					</trkpt>
					<trkpt lat="40.942000" lon="0.823070">
						<ele>88</ele>
						<time>2026-04-30T16:17:29Z</time>
					</trkpt>
					<trkpt lat="40.942110" lon="0.822850">
						<ele>88</ele>
						<time>2026-04-30T16:17:32Z</time>
					</trkpt>
					<trkpt lat="40.942270" lon="0.822590">
						<ele>90</ele>
						<time>2026-04-30T16:17:37Z</time>
					</trkpt>
					<trkpt lat="40.942360" lon="0.822480">
						<ele>91</ele>
						<time>2026-04-30T16:17:39Z</time>
					</trkpt>
					<trkpt lat="40.942750" lon="0.822090">
						<ele>92</ele>
						<time>2026-04-30T16:17:47Z</time>
					</trkpt>
					<trkpt lat="40.942810" lon="0.822020">
						<ele>93</ele>
						<time>2026-04-30T16:17:49Z</time>
					</trkpt>
					<trkpt lat="40.942860" lon="0.821930">
						<ele>93</ele>
						<time>2026-04-30T16:17:50Z</time>
					</trkpt>
					<trkpt lat="40.942890" lon="0.821830">
						<ele>94</ele>
						<time>2026-04-30T16:17:52Z</time>
					</trkpt>
					<trkpt lat="40.942890" lon="0.821710">
						<ele>95</ele>
						<time>2026-04-30T16:17:53Z</time>
					</trkpt>
					<trkpt lat="40.942770" lon="0.820990">
						<ele>99</ele>
						<time>2026-04-30T16:18:03Z</time>
					</trkpt>
					<trkpt lat="40.942750" lon="0.820860">
						<ele>99</ele>
						<time>2026-04-30T16:18:05Z</time>
					</trkpt>
					<trkpt lat="40.942730" lon="0.820600">
						<ele>101</ele>
						<time>2026-04-30T16:18:09Z</time>
					</trkpt>
					<trkpt lat="40.942720" lon="0.819990">
						<ele>104</ele>
						<time>2026-04-30T16:18:17Z</time>
					</trkpt>
					<trkpt lat="40.942720" lon="0.817630">
						<ele>112</ele>
						<time>2026-04-30T16:18:49Z</time>
					</trkpt>
					<trkpt lat="40.942710" lon="0.816120">
						<ele>117</ele>
						<time>2026-04-30T16:19:09Z</time>
					</trkpt>
					<trkpt lat="40.942690" lon="0.814720">
						<ele>119</ele>
						<time>2026-04-30T16:19:28Z</time>
					</trkpt>
					<trkpt lat="40.942710" lon="0.812090">
						<ele>123</ele>
						<time>2026-04-30T16:20:03Z</time>
					</trkpt>
					<trkpt lat="40.942730" lon="0.811050">
						<ele>122</ele>
						<time>2026-04-30T16:20:17Z</time>
					</trkpt>
					<trkpt lat="40.942740" lon="0.810460">
						<ele>122</ele>
						<time>2026-04-30T16:20:25Z</time>
					</trkpt>
					<trkpt lat="40.942740" lon="0.810210">
						<ele>123</ele>
						<time>2026-04-30T16:20:28Z</time>
					</trkpt>
					<trkpt lat="40.942650" lon="0.809060">
						<ele>127</ele>
						<time>2026-04-30T16:20:44Z</time>
					</trkpt>
					<trkpt lat="40.942610" lon="0.808680">
						<ele>126</ele>
						<time>2026-04-30T16:20:49Z</time>
					</trkpt>
					<trkpt lat="40.942540" lon="0.808370">
						<ele>125</ele>
						<time>2026-04-30T16:20:53Z</time>
					</trkpt>
					<trkpt lat="40.942450" lon="0.808150">
						<ele>124</ele>
						<time>2026-04-30T16:20:57Z</time>
					</trkpt>
					<trkpt lat="40.942320" lon="0.807960">
						<ele>123</ele>
						<time>2026-04-30T16:21:00Z</time>
					</trkpt>
					<trkpt lat="40.941320" lon="0.806780">
						<ele>124</ele>
						<time>2026-04-30T16:21:24Z</time>
					</trkpt>
					<trkpt lat="40.941080" lon="0.806510">
						<ele>122</ele>
						<time>2026-04-30T16:21:30Z</time>
					</trkpt>
					<trkpt lat="40.941010" lon="0.806430">
						<ele>122</ele>
						<time>2026-04-30T16:21:31Z</time>
					</trkpt>
					<trkpt lat="40.940910" lon="0.806170">
						<ele>121</ele>
						<time>2026-04-30T16:21:35Z</time>
					</trkpt>
					<trkpt lat="40.940860" lon="0.805810">
						<ele>120</ele>
						<time>2026-04-30T16:21:40Z</time>
					</trkpt>
					<trkpt lat="40.940710" lon="0.805560">
						<ele>122</ele>
						<time>2026-04-30T16:21:44Z</time>
					</trkpt>
					<trkpt lat="40.940590" lon="0.805530">
						<ele>122</ele>
						<time>2026-04-30T16:21:47Z</time>
					</trkpt>
					<trkpt lat="40.940300" lon="0.805750">
						<ele>120</ele>
						<time>2026-04-30T16:21:53Z</time>
					</trkpt>
					<trkpt lat="40.940170" lon="0.805790">
						<ele>120</ele>
						<time>2026-04-30T16:21:55Z</time>
					</trkpt>
					<trkpt lat="40.940110" lon="0.805610">
						<ele>121</ele>
						<time>2026-04-30T16:21:58Z</time>
					</trkpt>
					<trkpt lat="40.940050" lon="0.804560">
						<ele>129</ele>
						<time>2026-04-30T16:22:12Z</time>
					</trkpt>
					<trkpt lat="40.940010" lon="0.803910">
						<ele>132</ele>
						<time>2026-04-30T16:22:20Z</time>
					</trkpt>
					<trkpt lat="40.939900" lon="0.802840">
						<ele>136</ele>
						<time>2026-04-30T16:22:35Z</time>
					</trkpt>
					<trkpt lat="40.939860" lon="0.802620">
						<ele>136</ele>
						<time>2026-04-30T16:22:38Z</time>
					</trkpt>
					<trkpt lat="40.939790" lon="0.802240">
						<ele>137</ele>
						<time>2026-04-30T16:22:43Z</time>
					</trkpt>
					<trkpt lat="40.939270" lon="0.801100">
						<ele>137</ele>
						<time>2026-04-30T16:23:01Z</time>
					</trkpt>
					<trkpt lat="40.939140" lon="0.800840">
						<ele>138</ele>
						<time>2026-04-30T16:23:05Z</time>
					</trkpt>
					<trkpt lat="40.938960" lon="0.800460">
						<ele>138</ele>
						<time>2026-04-30T16:23:11Z</time>
					</trkpt>
					<trkpt lat="40.938770" lon="0.800030">
						<ele>137</ele>
						<time>2026-04-30T16:23:18Z</time>
					</trkpt>
					<trkpt lat="40.938660" lon="0.799810">
						<ele>136</ele>
						<time>2026-04-30T16:23:22Z</time>
					</trkpt>
					<trkpt lat="40.938560" lon="0.799650">
						<ele>136</ele>
						<time>2026-04-30T16:23:24Z</time>
					</trkpt>
					<trkpt lat="40.938090" lon="0.799050">
						<ele>132</ele>
						<time>2026-04-30T16:23:36Z</time>
					</trkpt>
					<trkpt lat="40.937800" lon="0.798710">
						<ele>129</ele>
						<time>2026-04-30T16:23:43Z</time>
					</trkpt>
					<trkpt lat="40.937650" lon="0.798570">
						<ele>127</ele>
						<time>2026-04-30T16:23:46Z</time>
					</trkpt>
					<trkpt lat="40.937490" lon="0.798450">
						<ele>126</ele>
						<time>2026-04-30T16:23:49Z</time>
					</trkpt>
					<trkpt lat="40.936970" lon="0.798120">
						<ele>122</ele>
						<time>2026-04-30T16:24:00Z</time>
					</trkpt>
					<trkpt lat="40.936030" lon="0.797560">
						<ele>115</ele>
						<time>2026-04-30T16:24:18Z</time>
					</trkpt>
					<trkpt lat="40.935180" lon="0.797110">
						<ele>115</ele>
						<time>2026-04-30T16:24:34Z</time>
					</trkpt>
					<trkpt lat="40.935060" lon="0.797010">
						<ele>115</ele>
						<time>2026-04-30T16:24:37Z</time>
					</trkpt>
					<trkpt lat="40.934870" lon="0.796830">
						<ele>114</ele>
						<time>2026-04-30T16:24:41Z</time>
					</trkpt>
					<trkpt lat="40.934760" lon="0.796690">
						<ele>114</ele>
						<time>2026-04-30T16:24:44Z</time>
					</trkpt>
					<trkpt lat="40.934710" lon="0.796580">
						<ele>113</ele>
						<time>2026-04-30T16:24:45Z</time>
					</trkpt>
					<trkpt lat="40.934660" lon="0.796410">
						<ele>113</ele>
						<time>2026-04-30T16:24:48Z</time>
					</trkpt>
					<trkpt lat="40.934630" lon="0.796120">
						<ele>114</ele>
						<time>2026-04-30T16:24:52Z</time>
					</trkpt>
					<trkpt lat="40.934610" lon="0.795990">
						<ele>114</ele>
						<time>2026-04-30T16:24:54Z</time>
					</trkpt>
					<trkpt lat="40.934580" lon="0.795910">
						<ele>114</ele>
						<time>2026-04-30T16:24:55Z</time>
					</trkpt>
					<trkpt lat="40.934520" lon="0.795780">
						<ele>114</ele>
						<time>2026-04-30T16:24:57Z</time>
					</trkpt>
					<trkpt lat="40.934470" lon="0.795730">
						<ele>114</ele>
						<time>2026-04-30T16:24:58Z</time>
					</trkpt>
					<trkpt lat="40.934410" lon="0.795690">
						<ele>114</ele>
						<time>2026-04-30T16:24:59Z</time>
					</trkpt>
					<trkpt lat="40.934330" lon="0.795670">
						<ele>114</ele>
						<time>2026-04-30T16:25:01Z</time>
					</trkpt>
					<trkpt lat="40.934260" lon="0.795680">
						<ele>113</ele>
						<time>2026-04-30T16:25:02Z</time>
					</trkpt>
					<trkpt lat="40.934170" lon="0.795700">
						<ele>113</ele>
						<time>2026-04-30T16:25:04Z</time>
					</trkpt>
					<trkpt lat="40.933890" lon="0.795810">
						<ele>113</ele>
						<time>2026-04-30T16:25:09Z</time>
					</trkpt>
					<trkpt lat="40.933830" lon="0.795810">
						<ele>113</ele>
						<time>2026-04-30T16:25:10Z</time>
					</trkpt>
					<trkpt lat="40.933770" lon="0.795800">
						<ele>114</ele>
						<time>2026-04-30T16:25:11Z</time>
					</trkpt>
					<trkpt lat="40.933720" lon="0.795770">
						<ele>114</ele>
						<time>2026-04-30T16:25:12Z</time>
					</trkpt>
					<trkpt lat="40.933670" lon="0.795710">
						<ele>114</ele>
						<time>2026-04-30T16:25:13Z</time>
					</trkpt>
					<trkpt lat="40.933620" lon="0.795610">
						<ele>115</ele>
						<time>2026-04-30T16:25:15Z</time>
					</trkpt>
					<trkpt lat="40.933580" lon="0.795430">
						<ele>115</ele>
						<time>2026-04-30T16:25:17Z</time>
					</trkpt>
					<trkpt lat="40.933400" lon="0.794730">
						<ele>117</ele>
						<time>2026-04-30T16:25:27Z</time>
					</trkpt>
					<trkpt lat="40.933140" lon="0.793660">
						<ele>120</ele>
						<time>2026-04-30T16:25:42Z</time>
					</trkpt>
					<trkpt lat="40.933030" lon="0.793320">
						<ele>122</ele>
						<time>2026-04-30T16:25:47Z</time>
					</trkpt>
					<trkpt lat="40.932780" lon="0.792730">
						<ele>124</ele>
						<time>2026-04-30T16:25:56Z</time>
					</trkpt>
					<trkpt lat="40.932680" lon="0.792440">
						<ele>125</ele>
						<time>2026-04-30T16:26:01Z</time>
					</trkpt>
					<trkpt lat="40.932610" lon="0.792070">
						<ele>126</ele>
						<time>2026-04-30T16:26:06Z</time>
					</trkpt>
					<trkpt lat="40.932280" lon="0.790260">
						<ele>128</ele>
						<time>2026-04-30T16:26:31Z</time>
					</trkpt>
					<trkpt lat="40.931810" lon="0.787710">
						<ele>134</ele>
						<time>2026-04-30T16:27:06Z</time>
					</trkpt>
					<trkpt lat="40.931730" lon="0.787300">
						<ele>136</ele>
						<time>2026-04-30T16:27:12Z</time>
					</trkpt>
					<trkpt lat="40.931700" lon="0.787040">
						<ele>136</ele>
						<time>2026-04-30T16:27:15Z</time>
					</trkpt>
					<trkpt lat="40.931670" lon="0.786780">
						<ele>137</ele>
						<time>2026-04-30T16:27:19Z</time>
					</trkpt>
					<trkpt lat="40.931630" lon="0.785880">
						<ele>138</ele>
						<time>2026-04-30T16:27:31Z</time>
					</trkpt>
					<trkpt lat="40.931590" lon="0.785580">
						<ele>138</ele>
						<time>2026-04-30T16:27:35Z</time>
					</trkpt>
					<trkpt lat="40.931510" lon="0.785040">
						<ele>138</ele>
						<time>2026-04-30T16:27:42Z</time>
					</trkpt>
					<trkpt lat="40.931300" lon="0.783840">
						<ele>136</ele>
						<time>2026-04-30T16:27:59Z</time>
					</trkpt>
					<trkpt lat="40.931210" lon="0.783440">
						<ele>135</ele>
						<time>2026-04-30T16:28:05Z</time>
					</trkpt>
					<trkpt lat="40.931180" lon="0.783330">
						<ele>134</ele>
						<time>2026-04-30T16:28:06Z</time>
					</trkpt>
					<trkpt lat="40.931140" lon="0.783230">
						<ele>134</ele>
						<time>2026-04-30T16:28:08Z</time>
					</trkpt>
					<trkpt lat="40.931050" lon="0.783040">
						<ele>133</ele>
						<time>2026-04-30T16:28:11Z</time>
					</trkpt>
					<trkpt lat="40.930600" lon="0.782090">
						<ele>131</ele>
						<time>2026-04-30T16:28:26Z</time>
					</trkpt>
					<trkpt lat="40.930540" lon="0.781990">
						<ele>131</ele>
						<time>2026-04-30T16:28:27Z</time>
					</trkpt>
					<trkpt lat="40.930490" lon="0.781900">
						<ele>131</ele>
						<time>2026-04-30T16:28:29Z</time>
					</trkpt>
					<trkpt lat="40.930410" lon="0.781810">
						<ele>130</ele>
						<time>2026-04-30T16:28:31Z</time>
					</trkpt>
					<trkpt lat="40.930310" lon="0.781730">
						<ele>130</ele>
						<time>2026-04-30T16:28:33Z</time>
					</trkpt>
					<trkpt lat="40.930140" lon="0.781630">
						<ele>129</ele>
						<time>2026-04-30T16:28:36Z</time>
					</trkpt>
					<trkpt lat="40.929730" lon="0.781420">
						<ele>130</ele>
						<time>2026-04-30T16:28:44Z</time>
					</trkpt>
					<trkpt lat="40.929650" lon="0.781360">
						<ele>130</ele>
						<time>2026-04-30T16:28:46Z</time>
					</trkpt>
					<trkpt lat="40.929590" lon="0.781320">
						<ele>130</ele>
						<time>2026-04-30T16:28:47Z</time>
					</trkpt>
					<trkpt lat="40.929550" lon="0.781260">
						<ele>130</ele>
						<time>2026-04-30T16:28:48Z</time>
					</trkpt>
					<trkpt lat="40.929510" lon="0.781150">
						<ele>131</ele>
						<time>2026-04-30T16:28:50Z</time>
					</trkpt>
					<trkpt lat="40.929500" lon="0.781090">
						<ele>131</ele>
						<time>2026-04-30T16:28:50Z</time>
					</trkpt>
					<trkpt lat="40.929510" lon="0.781030">
						<ele>132</ele>
						<time>2026-04-30T16:28:51Z</time>
					</trkpt>
					<trkpt lat="40.929610" lon="0.780610">
						<ele>134</ele>
						<time>2026-04-30T16:28:57Z</time>
					</trkpt>
					<trkpt lat="40.929620" lon="0.780430">
						<ele>135</ele>
						<time>2026-04-30T16:29:00Z</time>
					</trkpt>
					<trkpt lat="40.929590" lon="0.780300">
						<ele>135</ele>
						<time>2026-04-30T16:29:01Z</time>
					</trkpt>
					<trkpt lat="40.929470" lon="0.779960">
						<ele>136</ele>
						<time>2026-04-30T16:29:06Z</time>
					</trkpt>
					<trkpt lat="40.929470" lon="0.779850">
						<ele>136</ele>
						<time>2026-04-30T16:29:08Z</time>
					</trkpt>
					<trkpt lat="40.929490" lon="0.779770">
						<ele>137</ele>
						<time>2026-04-30T16:29:09Z</time>
					</trkpt>
					<trkpt lat="40.929530" lon="0.779690">
						<ele>137</ele>
						<time>2026-04-30T16:29:10Z</time>
					</trkpt>
					<trkpt lat="40.929880" lon="0.779030">
						<ele>141</ele>
						<time>2026-04-30T16:29:21Z</time>
					</trkpt>
					<trkpt lat="40.930150" lon="0.778570">
						<ele>143</ele>
						<time>2026-04-30T16:29:29Z</time>
					</trkpt>
					<trkpt lat="40.930220" lon="0.778420">
						<ele>143</ele>
						<time>2026-04-30T16:29:31Z</time>
					</trkpt>
					<trkpt lat="40.930240" lon="0.778340">
						<ele>143</ele>
						<time>2026-04-30T16:29:33Z</time>
					</trkpt>
					<trkpt lat="40.930260" lon="0.778240">
						<ele>144</ele>
						<time>2026-04-30T16:29:34Z</time>
					</trkpt>
					<trkpt lat="40.930270" lon="0.778160">
						<ele>144</ele>
						<time>2026-04-30T16:29:35Z</time>
					</trkpt>
					<trkpt lat="40.930260" lon="0.778100">
						<ele>144</ele>
						<time>2026-04-30T16:29:36Z</time>
					</trkpt>
					<trkpt lat="40.930240" lon="0.778030">
						<ele>144</ele>
						<time>2026-04-30T16:29:37Z</time>
					</trkpt>
					<trkpt lat="40.930180" lon="0.777940">
						<ele>144</ele>
						<time>2026-04-30T16:29:38Z</time>
					</trkpt>
					<trkpt lat="40.930180" lon="0.777940">
						<ele>144</ele>
						<time>2026-04-30T16:29:38Z</time>
					</trkpt>
					<trkpt lat="40.930100" lon="0.777900">
						<ele>144</ele>
						<time>2026-04-30T16:29:40Z</time>
					</trkpt>
					<trkpt lat="40.930040" lon="0.777910">
						<ele>143</ele>
						<time>2026-04-30T16:29:41Z</time>
					</trkpt>
					<trkpt lat="40.929980" lon="0.777930">
						<ele>143</ele>
						<time>2026-04-30T16:29:42Z</time>
					</trkpt>
					<trkpt lat="40.929830" lon="0.778010">
						<ele>142</ele>
						<time>2026-04-30T16:29:45Z</time>
					</trkpt>
					<trkpt lat="40.929750" lon="0.778030">
						<ele>142</ele>
						<time>2026-04-30T16:29:47Z</time>
					</trkpt>
					<trkpt lat="40.929640" lon="0.778020">
						<ele>141</ele>
						<time>2026-04-30T16:29:48Z</time>
					</trkpt>
					<trkpt lat="40.929360" lon="0.777950">
						<ele>141</ele>
						<time>2026-04-30T16:29:54Z</time>
					</trkpt>
					<trkpt lat="40.929180" lon="0.777870">
						<ele>141</ele>
						<time>2026-04-30T16:29:57Z</time>
					</trkpt>
					<trkpt lat="40.929000" lon="0.777770">
						<ele>140</ele>
						<time>2026-04-30T16:30:00Z</time>
					</trkpt>
					<trkpt lat="40.928740" lon="0.777610">
						<ele>138</ele>
						<time>2026-04-30T16:30:05Z</time>
					</trkpt>
					<trkpt lat="40.928660" lon="0.777550">
						<ele>137</ele>
						<time>2026-04-30T16:30:07Z</time>
					</trkpt>
					<trkpt lat="40.928600" lon="0.777470">
						<ele>137</ele>
						<time>2026-04-30T16:30:09Z</time>
					</trkpt>
					<trkpt lat="40.928530" lon="0.777370">
						<ele>136</ele>
						<time>2026-04-30T16:30:10Z</time>
					</trkpt>
					<trkpt lat="40.928440" lon="0.777170">
						<ele>135</ele>
						<time>2026-04-30T16:30:14Z</time>
					</trkpt>
					<trkpt lat="40.928410" lon="0.777080">
						<ele>134</ele>
						<time>2026-04-30T16:30:15Z</time>
					</trkpt>
					<trkpt lat="40.928390" lon="0.776940">
						<ele>134</ele>
						<time>2026-04-30T16:30:17Z</time>
					</trkpt>
					<trkpt lat="40.928270" lon="0.776320">
						<ele>133</ele>
						<time>2026-04-30T16:30:25Z</time>
					</trkpt>
					<trkpt lat="40.928220" lon="0.776050">
						<ele>133</ele>
						<time>2026-04-30T16:30:29Z</time>
					</trkpt>
					<trkpt lat="40.927980" lon="0.774830">
						<ele>130</ele>
						<time>2026-04-30T16:30:46Z</time>
					</trkpt>
					<trkpt lat="40.927940" lon="0.774640">
						<ele>130</ele>
						<time>2026-04-30T16:30:49Z</time>
					</trkpt>
					<trkpt lat="40.927290" lon="0.771350">
						<ele>126</ele>
						<time>2026-04-30T16:31:34Z</time>
					</trkpt>
					<trkpt lat="40.927220" lon="0.771050">
						<ele>127</ele>
						<time>2026-04-30T16:31:39Z</time>
					</trkpt>
					<trkpt lat="40.927160" lon="0.770880">
						<ele>128</ele>
						<time>2026-04-30T16:31:41Z</time>
					</trkpt>
					<trkpt lat="40.927090" lon="0.770720">
						<ele>128</ele>
						<time>2026-04-30T16:31:44Z</time>
					</trkpt>
					<trkpt lat="40.927010" lon="0.770600">
						<ele>128</ele>
						<time>2026-04-30T16:31:46Z</time>
					</trkpt>
					<trkpt lat="40.926440" lon="0.769880">
						<ele>129</ele>
						<time>2026-04-30T16:32:00Z</time>
					</trkpt>
					<trkpt lat="40.925690" lon="0.768950">
						<ele>129</ele>
						<time>2026-04-30T16:32:18Z</time>
					</trkpt>
					<trkpt lat="40.924750" lon="0.767790">
						<ele>124</ele>
						<time>2026-04-30T16:32:41Z</time>
					</trkpt>
					<trkpt lat="40.924670" lon="0.767710">
						<ele>123</ele>
						<time>2026-04-30T16:32:43Z</time>
					</trkpt>
					<trkpt lat="40.924610" lon="0.767650">
						<ele>122</ele>
						<time>2026-04-30T16:32:44Z</time>
					</trkpt>
					<trkpt lat="40.924550" lon="0.767620">
						<ele>122</ele>
						<time>2026-04-30T16:32:45Z</time>
					</trkpt>
					<trkpt lat="40.924450" lon="0.767590">
						<ele>121</ele>
						<time>2026-04-30T16:32:47Z</time>
					</trkpt>
					<trkpt lat="40.924270" lon="0.767600">
						<ele>120</ele>
						<time>2026-04-30T16:32:50Z</time>
					</trkpt>
					<trkpt lat="40.923440" lon="0.767760">
						<ele>114</ele>
						<time>2026-04-30T16:33:05Z</time>
					</trkpt>
					<trkpt lat="40.923360" lon="0.767770">
						<ele>114</ele>
						<time>2026-04-30T16:33:07Z</time>
					</trkpt>
					<trkpt lat="40.923280" lon="0.767770">
						<ele>113</ele>
						<time>2026-04-30T16:33:08Z</time>
					</trkpt>
					<trkpt lat="40.923250" lon="0.767750">
						<ele>113</ele>
						<time>2026-04-30T16:33:09Z</time>
					</trkpt>
					<trkpt lat="40.923190" lon="0.767700">
						<ele>112</ele>
						<time>2026-04-30T16:33:10Z</time>
					</trkpt>
					<trkpt lat="40.923150" lon="0.767650">
						<ele>111</ele>
						<time>2026-04-30T16:33:11Z</time>
					</trkpt>
					<trkpt lat="40.923090" lon="0.767490">
						<ele>110</ele>
						<time>2026-04-30T16:33:13Z</time>
					</trkpt>
					<trkpt lat="40.922950" lon="0.767100">
						<ele>108</ele>
						<time>2026-04-30T16:33:19Z</time>
					</trkpt>
					<trkpt lat="40.922870" lon="0.766790">
						<ele>107</ele>
						<time>2026-04-30T16:33:24Z</time>
					</trkpt>
					<trkpt lat="40.922790" lon="0.766420">
						<ele>106</ele>
						<time>2026-04-30T16:33:29Z</time>
					</trkpt>
					<trkpt lat="40.922770" lon="0.766250">
						<ele>106</ele>
						<time>2026-04-30T16:33:31Z</time>
					</trkpt>
					<trkpt lat="40.922750" lon="0.765980">
						<ele>106</ele>
						<time>2026-04-30T16:33:35Z</time>
					</trkpt>
					<trkpt lat="40.922760" lon="0.765830">
						<ele>106</ele>
						<time>2026-04-30T16:33:37Z</time>
					</trkpt>
					<trkpt lat="40.922830" lon="0.765620">
						<ele>105</ele>
						<time>2026-04-30T16:33:40Z</time>
					</trkpt>
					<trkpt lat="40.923160" lon="0.764890">
						<ele>104</ele>
						<time>2026-04-30T16:33:51Z</time>
					</trkpt>
					<trkpt lat="40.923370" lon="0.764430">
						<ele>106</ele>
						<time>2026-04-30T16:33:58Z</time>
					</trkpt>
					<trkpt lat="40.923540" lon="0.764090">
						<ele>107</ele>
						<time>2026-04-30T16:34:04Z</time>
					</trkpt>
					<trkpt lat="40.923600" lon="0.763990">
						<ele>108</ele>
						<time>2026-04-30T16:34:06Z</time>
					</trkpt>
					<trkpt lat="40.923690" lon="0.763870">
						<ele>110</ele>
						<time>2026-04-30T16:34:08Z</time>
					</trkpt>
					<trkpt lat="40.923760" lon="0.763820">
						<ele>110</ele>
						<time>2026-04-30T16:34:09Z</time>
					</trkpt>
					<trkpt lat="40.923830" lon="0.763770">
						<ele>110</ele>
						<time>2026-04-30T16:34:11Z</time>
					</trkpt>
					<trkpt lat="40.923940" lon="0.763730">
						<ele>110</ele>
						<time>2026-04-30T16:34:13Z</time>
					</trkpt>
					<trkpt lat="40.924090" lon="0.763710">
						<ele>110</ele>
						<time>2026-04-30T16:34:15Z</time>
					</trkpt>
					<trkpt lat="40.924480" lon="0.763710">
						<ele>110</ele>
						<time>2026-04-30T16:34:22Z</time>
					</trkpt>
					<trkpt lat="40.924540" lon="0.763700">
						<ele>110</ele>
						<time>2026-04-30T16:34:24Z</time>
					</trkpt>
					<trkpt lat="40.924650" lon="0.763670">
						<ele>110</ele>
						<time>2026-04-30T16:34:25Z</time>
					</trkpt>
					<trkpt lat="40.924740" lon="0.763610">
						<ele>111</ele>
						<time>2026-04-30T16:34:27Z</time>
					</trkpt>
					<trkpt lat="40.924810" lon="0.763510">
						<ele>112</ele>
						<time>2026-04-30T16:34:29Z</time>
					</trkpt>
					<trkpt lat="40.924840" lon="0.763440">
						<ele>113</ele>
						<time>2026-04-30T16:34:30Z</time>
					</trkpt>
					<trkpt lat="40.924870" lon="0.763310">
						<ele>114</ele>
						<time>2026-04-30T16:34:32Z</time>
					</trkpt>
					<trkpt lat="40.924880" lon="0.763250">
						<ele>115</ele>
						<time>2026-04-30T16:34:33Z</time>
					</trkpt>
					<trkpt lat="40.924870" lon="0.763140">
						<ele>116</ele>
						<time>2026-04-30T16:34:34Z</time>
					</trkpt>
					<trkpt lat="40.924860" lon="0.763070">
						<ele>116</ele>
						<time>2026-04-30T16:34:35Z</time>
					</trkpt>
					<trkpt lat="40.924840" lon="0.762980">
						<ele>117</ele>
						<time>2026-04-30T16:34:37Z</time>
					</trkpt>
					<trkpt lat="40.924810" lon="0.762940">
						<ele>118</ele>
						<time>2026-04-30T16:34:37Z</time>
					</trkpt>
					<trkpt lat="40.924770" lon="0.762880">
						<ele>119</ele>
						<time>2026-04-30T16:34:38Z</time>
					</trkpt>
					<trkpt lat="40.924660" lon="0.762810">
						<ele>120</ele>
						<time>2026-04-30T16:34:41Z</time>
					</trkpt>
					<trkpt lat="40.924550" lon="0.762760">
						<ele>121</ele>
						<time>2026-04-30T16:34:43Z</time>
					</trkpt>
					<trkpt lat="40.924470" lon="0.762740">
						<ele>122</ele>
						<time>2026-04-30T16:34:44Z</time>
					</trkpt>
					<trkpt lat="40.923590" lon="0.762610">
						<ele>126</ele>
						<time>2026-04-30T16:35:00Z</time>
					</trkpt>
					<trkpt lat="40.923490" lon="0.762580">
						<ele>126</ele>
						<time>2026-04-30T16:35:02Z</time>
					</trkpt>
					<trkpt lat="40.923280" lon="0.762490">
						<ele>127</ele>
						<time>2026-04-30T16:35:06Z</time>
					</trkpt>
					<trkpt lat="40.923110" lon="0.762370">
						<ele>127</ele>
						<time>2026-04-30T16:35:09Z</time>
					</trkpt>
					<trkpt lat="40.923060" lon="0.762330">
						<ele>126</ele>
						<time>2026-04-30T16:35:10Z</time>
					</trkpt>
					<trkpt lat="40.919780" lon="0.759490">
						<ele>115</ele>
						<time>2026-04-30T16:36:20Z</time>
					</trkpt>
					<trkpt lat="40.918830" lon="0.758640">
						<ele>114</ele>
						<time>2026-04-30T16:36:40Z</time>
					</trkpt>
					<trkpt lat="40.918690" lon="0.758510">
						<ele>113</ele>
						<time>2026-04-30T16:36:43Z</time>
					</trkpt>
					<trkpt lat="40.918570" lon="0.758400">
						<ele>113</ele>
						<time>2026-04-30T16:36:46Z</time>
					</trkpt>
					<trkpt lat="40.917290" lon="0.757250">
						<ele>108</ele>
						<time>2026-04-30T16:37:13Z</time>
					</trkpt>
					<trkpt lat="40.917200" lon="0.757170">
						<ele>107</ele>
						<time>2026-04-30T16:37:15Z</time>
					</trkpt>
					<trkpt lat="40.917120" lon="0.757120">
						<ele>107</ele>
						<time>2026-04-30T16:37:17Z</time>
					</trkpt>
					<trkpt lat="40.916680" lon="0.756910">
						<ele>104</ele>
						<time>2026-04-30T16:37:25Z</time>
					</trkpt>
					<trkpt lat="40.915450" lon="0.756320">
						<ele>100</ele>
						<time>2026-04-30T16:37:48Z</time>
					</trkpt>
					<trkpt lat="40.915240" lon="0.756220">
						<ele>99</ele>
						<time>2026-04-30T16:37:52Z</time>
					</trkpt>
					<trkpt lat="40.915160" lon="0.756170">
						<ele>99</ele>
						<time>2026-04-30T16:37:54Z</time>
					</trkpt>
					<trkpt lat="40.915080" lon="0.756110">
						<ele>99</ele>
						<time>2026-04-30T16:37:56Z</time>
					</trkpt>
					<trkpt lat="40.914990" lon="0.756010">
						<ele>98</ele>
						<time>2026-04-30T16:37:58Z</time>
					</trkpt>
					<trkpt lat="40.914960" lon="0.755960">
						<ele>98</ele>
						<time>2026-04-30T16:37:59Z</time>
					</trkpt>
					<trkpt lat="40.914700" lon="0.755380">
						<ele>95</ele>
						<time>2026-04-30T16:38:08Z</time>
					</trkpt>
					<trkpt lat="40.914590" lon="0.755130">
						<ele>94</ele>
						<time>2026-04-30T16:38:12Z</time>
					</trkpt>
					<trkpt lat="40.914470" lon="0.754890">
						<ele>93</ele>
						<time>2026-04-30T16:38:15Z</time>
					</trkpt>
					<trkpt lat="40.914390" lon="0.754840">
						<ele>93</ele>
						<time>2026-04-30T16:38:17Z</time>
					</trkpt>
					<trkpt lat="40.914310" lon="0.754830">
						<ele>92</ele>
						<time>2026-04-30T16:38:18Z</time>
					</trkpt>
					<trkpt lat="40.914250" lon="0.754850">
						<ele>92</ele>
						<time>2026-04-30T16:38:20Z</time>
					</trkpt>
					<trkpt lat="40.914090" lon="0.754940">
						<ele>91</ele>
						<time>2026-04-30T16:38:23Z</time>
					</trkpt>
					<trkpt lat="40.913830" lon="0.755090">
						<ele>91</ele>
						<time>2026-04-30T16:38:28Z</time>
					</trkpt>
					<trkpt lat="40.913780" lon="0.755110">
						<ele>90</ele>
						<time>2026-04-30T16:38:29Z</time>
					</trkpt>
					<trkpt lat="40.913700" lon="0.755110">
						<ele>90</ele>
						<time>2026-04-30T16:38:30Z</time>
					</trkpt>
					<trkpt lat="40.913660" lon="0.755090">
						<ele>90</ele>
						<time>2026-04-30T16:38:31Z</time>
					</trkpt>
					<trkpt lat="40.913610" lon="0.755030">
						<ele>89</ele>
						<time>2026-04-30T16:38:32Z</time>
					</trkpt>
					<trkpt lat="40.913540" lon="0.754760">
						<ele>88</ele>
						<time>2026-04-30T16:38:36Z</time>
					</trkpt>
					<trkpt lat="40.913480" lon="0.754620">
						<ele>88</ele>
						<time>2026-04-30T16:38:38Z</time>
					</trkpt>
					<trkpt lat="40.913250" lon="0.754240">
						<ele>88</ele>
						<time>2026-04-30T16:38:45Z</time>
					</trkpt>
					<trkpt lat="40.913130" lon="0.754020">
						<ele>88</ele>
						<time>2026-04-30T16:38:48Z</time>
					</trkpt>
					<trkpt lat="40.912690" lon="0.753090">
						<ele>91</ele>
						<time>2026-04-30T16:39:03Z</time>
					</trkpt>
					<trkpt lat="40.912660" lon="0.752980">
						<ele>92</ele>
						<time>2026-04-30T16:39:05Z</time>
					</trkpt>
					<trkpt lat="40.912660" lon="0.752920">
						<ele>92</ele>
						<time>2026-04-30T16:39:05Z</time>
					</trkpt>
					<trkpt lat="40.912660" lon="0.752780">
						<ele>93</ele>
						<time>2026-04-30T16:39:07Z</time>
					</trkpt>
					<trkpt lat="40.912680" lon="0.752650">
						<ele>94</ele>
						<time>2026-04-30T16:39:09Z</time>
					</trkpt>
					<trkpt lat="40.912840" lon="0.751690">
						<ele>100</ele>
						<time>2026-04-30T16:39:22Z</time>
					</trkpt>
					<trkpt lat="40.912850" lon="0.751470">
						<ele>101</ele>
						<time>2026-04-30T16:39:25Z</time>
					</trkpt>
					<trkpt lat="40.912850" lon="0.751370">
						<ele>101</ele>
						<time>2026-04-30T16:39:27Z</time>
					</trkpt>
					<trkpt lat="40.912830" lon="0.751220">
						<ele>102</ele>
						<time>2026-04-30T16:39:29Z</time>
					</trkpt>
					<trkpt lat="40.912800" lon="0.751120">
						<ele>102</ele>
						<time>2026-04-30T16:39:30Z</time>
					</trkpt>
					<trkpt lat="40.912660" lon="0.750620">
						<ele>101</ele>
						<time>2026-04-30T16:39:37Z</time>
					</trkpt>
					<trkpt lat="40.912590" lon="0.750390">
						<ele>100</ele>
						<time>2026-04-30T16:39:41Z</time>
					</trkpt>
					<trkpt lat="40.912540" lon="0.750260">
						<ele>99</ele>
						<time>2026-04-30T16:39:42Z</time>
					</trkpt>
					<trkpt lat="40.912490" lon="0.750120">
						<ele>99</ele>
						<time>2026-04-30T16:39:45Z</time>
					</trkpt>
					<trkpt lat="40.912460" lon="0.750060">
						<ele>98</ele>
						<time>2026-04-30T16:39:46Z</time>
					</trkpt>
					<trkpt lat="40.912360" lon="0.749940">
						<ele>98</ele>
						<time>2026-04-30T16:39:48Z</time>
					</trkpt>
					<trkpt lat="40.912170" lon="0.749730">
						<ele>97</ele>
						<time>2026-04-30T16:39:52Z</time>
					</trkpt>
					<trkpt lat="40.912060" lon="0.749650">
						<ele>96</ele>
						<time>2026-04-30T16:39:55Z</time>
					</trkpt>
					<trkpt lat="40.911980" lon="0.749600">
						<ele>96</ele>
						<time>2026-04-30T16:39:56Z</time>
					</trkpt>
					<trkpt lat="40.911880" lon="0.749590">
						<ele>96</ele>
						<time>2026-04-30T16:39:58Z</time>
					</trkpt>
					<trkpt lat="40.911440" lon="0.749590">
						<ele>94</ele>
						<time>2026-04-30T16:40:06Z</time>
					</trkpt>
					<trkpt lat="40.911310" lon="0.749580">
						<ele>94</ele>
						<time>2026-04-30T16:40:08Z</time>
					</trkpt>
					<trkpt lat="40.911250" lon="0.749560">
						<ele>94</ele>
						<time>2026-04-30T16:40:09Z</time>
					</trkpt>
					<trkpt lat="40.911180" lon="0.749510">
						<ele>94</ele>
						<time>2026-04-30T16:40:11Z</time>
					</trkpt>
					<trkpt lat="40.911160" lon="0.749490">
						<ele>94</ele>
						<time>2026-04-30T16:40:11Z</time>
					</trkpt>
					<trkpt lat="40.911120" lon="0.749370">
						<ele>94</ele>
						<time>2026-04-30T16:40:13Z</time>
					</trkpt>
					<trkpt lat="40.911100" lon="0.749260">
						<ele>93</ele>
						<time>2026-04-30T16:40:14Z</time>
					</trkpt>
					<trkpt lat="40.911090" lon="0.749120">
						<ele>93</ele>
						<time>2026-04-30T16:40:16Z</time>
					</trkpt>
					<trkpt lat="40.911090" lon="0.748950">
						<ele>94</ele>
						<time>2026-04-30T16:40:19Z</time>
					</trkpt>
					<trkpt lat="40.911110" lon="0.748680">
						<ele>95</ele>
						<time>2026-04-30T16:40:22Z</time>
					</trkpt>
					<trkpt lat="40.911120" lon="0.748550">
						<ele>95</ele>
						<time>2026-04-30T16:40:24Z</time>
					</trkpt>
					<trkpt lat="40.911190" lon="0.748230">
						<ele>96</ele>
						<time>2026-04-30T16:40:28Z</time>
					</trkpt>
					<trkpt lat="40.911230" lon="0.748010">
						<ele>96</ele>
						<time>2026-04-30T16:40:31Z</time>
					</trkpt>
					<trkpt lat="40.911270" lon="0.747500">
						<ele>97</ele>
						<time>2026-04-30T16:40:38Z</time>
					</trkpt>
					<trkpt lat="40.911270" lon="0.747240">
						<ele>97</ele>
						<time>2026-04-30T16:40:42Z</time>
					</trkpt>
					<trkpt lat="40.911250" lon="0.747140">
						<ele>98</ele>
						<time>2026-04-30T16:40:43Z</time>
					</trkpt>
					<trkpt lat="40.911230" lon="0.747100">
						<ele>98</ele>
						<time>2026-04-30T16:40:44Z</time>
					</trkpt>
					<trkpt lat="40.911200" lon="0.747070">
						<ele>98</ele>
						<time>2026-04-30T16:40:45Z</time>
					</trkpt>
					<trkpt lat="40.911080" lon="0.746990">
						<ele>98</ele>
						<time>2026-04-30T16:40:47Z</time>
					</trkpt>
					<trkpt lat="40.910980" lon="0.746940">
						<ele>98</ele>
						<time>2026-04-30T16:40:49Z</time>
					</trkpt>
					<trkpt lat="40.910900" lon="0.746890">
						<ele>99</ele>
						<time>2026-04-30T16:40:50Z</time>
					</trkpt>
					<trkpt lat="40.910720" lon="0.746750">
						<ele>99</ele>
						<time>2026-04-30T16:40:54Z</time>
					</trkpt>
					<trkpt lat="40.910010" lon="0.746130">
						<ele>99</ele>
						<time>2026-04-30T16:41:09Z</time>
					</trkpt>
					<trkpt lat="40.909860" lon="0.746000">
						<ele>99</ele>
						<time>2026-04-30T16:41:12Z</time>
					</trkpt>
					<trkpt lat="40.909640" lon="0.745800">
						<ele>99</ele>
						<time>2026-04-30T16:41:17Z</time>
					</trkpt>
					<trkpt lat="40.909460" lon="0.745590">
						<ele>98</ele>
						<time>2026-04-30T16:41:21Z</time>
					</trkpt>
					<trkpt lat="40.908380" lon="0.743780">
						<ele>98</ele>
						<time>2026-04-30T16:41:52Z</time>
					</trkpt>
					<trkpt lat="40.908020" lon="0.743200">
						<ele>98</ele>
						<time>2026-04-30T16:42:03Z</time>
					</trkpt>
					<trkpt lat="40.907550" lon="0.742400">
						<ele>98</ele>
						<time>2026-04-30T16:42:16Z</time>
					</trkpt>
					<trkpt lat="40.906720" lon="0.740980">
						<ele>94</ele>
						<time>2026-04-30T16:42:40Z</time>
					</trkpt>
					<trkpt lat="40.906650" lon="0.740880">
						<ele>94</ele>
						<time>2026-04-30T16:42:42Z</time>
					</trkpt>
					<trkpt lat="40.906500" lon="0.740720">
						<ele>93</ele>
						<time>2026-04-30T16:42:46Z</time>
					</trkpt>
					<trkpt lat="40.906250" lon="0.740580">
						<ele>92</ele>
						<time>2026-04-30T16:42:50Z</time>
					</trkpt>
					<trkpt lat="40.906040" lon="0.740500">
						<ele>91</ele>
						<time>2026-04-30T16:42:54Z</time>
					</trkpt>
					<trkpt lat="40.905280" lon="0.740230">
						<ele>90</ele>
						<time>2026-04-30T16:43:08Z</time>
					</trkpt>
					<trkpt lat="40.905150" lon="0.740050">
						<ele>90</ele>
						<time>2026-04-30T16:43:12Z</time>
					</trkpt>
					<trkpt lat="40.904890" lon="0.739650">
						<ele>91</ele>
						<time>2026-04-30T16:43:19Z</time>
					</trkpt>
					<trkpt lat="40.904830" lon="0.739560">
						<ele>91</ele>
						<time>2026-04-30T16:43:20Z</time>
					</trkpt>
					<trkpt lat="40.904370" lon="0.738860">
						<ele>92</ele>
						<time>2026-04-30T16:43:33Z</time>
					</trkpt>
					<trkpt lat="40.903770" lon="0.737780">
						<ele>95</ele>
						<time>2026-04-30T16:43:51Z</time>
					</trkpt>
					<trkpt lat="40.903250" lon="0.736920">
						<ele>98</ele>
						<time>2026-04-30T16:44:06Z</time>
					</trkpt>
					<trkpt lat="40.902210" lon="0.735640">
						<ele>101</ele>
						<time>2026-04-30T16:44:31Z</time>
					</trkpt>
					<trkpt lat="40.901390" lon="0.734340">
						<ele>102</ele>
						<time>2026-04-30T16:44:54Z</time>
					</trkpt>
					<trkpt lat="40.900850" lon="0.733490">
						<ele>102</ele>
						<time>2026-04-30T16:45:09Z</time>
					</trkpt>
					<trkpt lat="40.900000" lon="0.732460">
						<ele>103</ele>
						<time>2026-04-30T16:45:29Z</time>
					</trkpt>
					<trkpt lat="40.899700" lon="0.732270">
						<ele>103</ele>
						<time>2026-04-30T16:45:35Z</time>
					</trkpt>
					<trkpt lat="40.899250" lon="0.732010">
						<ele>102</ele>
						<time>2026-04-30T16:45:44Z</time>
					</trkpt>
					<trkpt lat="40.898850" lon="0.731770">
						<ele>102</ele>
						<time>2026-04-30T16:45:52Z</time>
					</trkpt>
					<trkpt lat="40.898490" lon="0.731530">
						<ele>101</ele>
						<time>2026-04-30T16:45:59Z</time>
					</trkpt>
					<trkpt lat="40.897540" lon="0.730570">
						<ele>101</ele>
						<time>2026-04-30T16:46:20Z</time>
					</trkpt>
					<trkpt lat="40.895590" lon="0.728650">
						<ele>105</ele>
						<time>2026-04-30T16:47:03Z</time>
					</trkpt>
					<trkpt lat="40.895420" lon="0.728500">
						<ele>106</ele>
						<time>2026-04-30T16:47:07Z</time>
					</trkpt>
					<trkpt lat="40.895370" lon="0.728470">
						<ele>106</ele>
						<time>2026-04-30T16:47:08Z</time>
					</trkpt>
					<trkpt lat="40.895340" lon="0.728500">
						<ele>106</ele>
						<time>2026-04-30T16:47:09Z</time>
					</trkpt>
					<trkpt lat="40.895160" lon="0.728940">
						<ele>104</ele>
						<time>2026-04-30T16:47:15Z</time>
					</trkpt>
					<trkpt lat="40.894830" lon="0.728640">
						<ele>104</ele>
						<time>2026-04-30T16:47:22Z</time>
					</trkpt>
					<trkpt lat="40.894180" lon="0.728010">
						<ele>103</ele>
						<time>2026-04-30T16:47:37Z</time>
					</trkpt>
					<trkpt lat="40.893480" lon="0.727340">
						<ele>105</ele>
						<time>2026-04-30T16:47:52Z</time>
					</trkpt>
					<trkpt lat="40.892970" lon="0.726800">
						<ele>108</ele>
						<time>2026-04-30T16:48:04Z</time>
					</trkpt>
					<trkpt lat="40.892460" lon="0.726190">
						<ele>109</ele>
						<time>2026-04-30T16:48:16Z</time>
					</trkpt>
					<trkpt lat="40.892090" lon="0.725710">
						<ele>108</ele>
						<time>2026-04-30T16:48:25Z</time>
					</trkpt>
					<trkpt lat="40.890770" lon="0.723890">
						<ele>113</ele>
						<time>2026-04-30T16:48:59Z</time>
					</trkpt>
					<trkpt lat="40.888590" lon="0.720890">
						<ele>121</ele>
						<time>2026-04-30T16:49:55Z</time>
					</trkpt>
					<trkpt lat="40.888140" lon="0.720290">
						<ele>122</ele>
						<time>2026-04-30T16:50:07Z</time>
					</trkpt>
					<trkpt lat="40.887950" lon="0.720120">
						<ele>121</ele>
						<time>2026-04-30T16:50:11Z</time>
					</trkpt>
					<trkpt lat="40.887820" lon="0.719990">
						<ele>121</ele>
						<time>2026-04-30T16:50:13Z</time>
					</trkpt>
					<trkpt lat="40.887450" lon="0.719680">
						<ele>121</ele>
						<time>2026-04-30T16:50:21Z</time>
					</trkpt>
					<trkpt lat="40.887120" lon="0.719470">
						<ele>122</ele>
						<time>2026-04-30T16:50:28Z</time>
					</trkpt>
					<trkpt lat="40.886750" lon="0.719270">
						<ele>123</ele>
						<time>2026-04-30T16:50:35Z</time>
					</trkpt>
					<trkpt lat="40.886340" lon="0.719130">
						<ele>123</ele>
						<time>2026-04-30T16:50:42Z</time>
					</trkpt>
					<trkpt lat="40.885870" lon="0.719020">
						<ele>124</ele>
						<time>2026-04-30T16:50:51Z</time>
					</trkpt>
					<trkpt lat="40.883600" lon="0.718660">
						<ele>127</ele>
						<time>2026-04-30T16:51:32Z</time>
					</trkpt>
					<trkpt lat="40.882100" lon="0.718320">
						<ele>133</ele>
						<time>2026-04-30T16:51:59Z</time>
					</trkpt>
					<trkpt lat="40.881980" lon="0.718250">
						<ele>133</ele>
						<time>2026-04-30T16:52:01Z</time>
					</trkpt>
					<trkpt lat="40.881910" lon="0.718140">
						<ele>134</ele>
						<time>2026-04-30T16:52:03Z</time>
					</trkpt>
					<trkpt lat="40.881870" lon="0.718080">
						<ele>135</ele>
						<time>2026-04-30T16:52:04Z</time>
					</trkpt>
					<trkpt lat="40.881830" lon="0.717830">
						<ele>137</ele>
						<time>2026-04-30T16:52:07Z</time>
					</trkpt>
					<trkpt lat="40.881810" lon="0.717630">
						<ele>138</ele>
						<time>2026-04-30T16:52:10Z</time>
					</trkpt>
					<trkpt lat="40.881840" lon="0.717240">
						<ele>141</ele>
						<time>2026-04-30T16:52:15Z</time>
					</trkpt>
					<trkpt lat="40.881850" lon="0.717120">
						<ele>142</ele>
						<time>2026-04-30T16:52:17Z</time>
					</trkpt>
					<trkpt lat="40.881840" lon="0.716970">
						<ele>143</ele>
						<time>2026-04-30T16:52:19Z</time>
					</trkpt>
					<trkpt lat="40.881780" lon="0.716730">
						<ele>144</ele>
						<time>2026-04-30T16:52:23Z</time>
					</trkpt>
					<trkpt lat="40.881740" lon="0.716640">
						<ele>145</ele>
						<time>2026-04-30T16:52:24Z</time>
					</trkpt>
					<trkpt lat="40.881690" lon="0.716540">
						<ele>145</ele>
						<time>2026-04-30T16:52:26Z</time>
					</trkpt>
					<trkpt lat="40.881610" lon="0.716430">
						<ele>146</ele>
						<time>2026-04-30T16:52:28Z</time>
					</trkpt>
					<trkpt lat="40.881460" lon="0.716310">
						<ele>145</ele>
						<time>2026-04-30T16:52:31Z</time>
					</trkpt>
					<trkpt lat="40.881380" lon="0.716280">
						<ele>145</ele>
						<time>2026-04-30T16:52:32Z</time>
					</trkpt>
					<trkpt lat="40.881270" lon="0.716250">
						<ele>145</ele>
						<time>2026-04-30T16:52:34Z</time>
					</trkpt>
					<trkpt lat="40.881060" lon="0.716210">
						<ele>144</ele>
						<time>2026-04-30T16:52:38Z</time>
					</trkpt>
					<trkpt lat="40.880130" lon="0.716150">
						<ele>141</ele>
						<time>2026-04-30T16:52:55Z</time>
					</trkpt>
					<trkpt lat="40.879790" lon="0.716130">
						<ele>140</ele>
						<time>2026-04-30T16:53:01Z</time>
					</trkpt>
					<trkpt lat="40.879200" lon="0.716090">
						<ele>139</ele>
						<time>2026-04-30T16:53:11Z</time>
					</trkpt>
					<trkpt lat="40.879150" lon="0.716040">
						<ele>139</ele>
						<time>2026-04-30T16:53:12Z</time>
					</trkpt>
					<trkpt lat="40.879020" lon="0.716010">
						<ele>138</ele>
						<time>2026-04-30T16:53:15Z</time>
					</trkpt>
					<trkpt lat="40.878950" lon="0.715920">
						<ele>138</ele>
						<time>2026-04-30T16:53:16Z</time>
					</trkpt>
					<trkpt lat="40.878920" lon="0.715880">
						<ele>138</ele>
						<time>2026-04-30T16:53:17Z</time>
					</trkpt>
					<trkpt lat="40.878910" lon="0.715830">
						<ele>138</ele>
						<time>2026-04-30T16:53:18Z</time>
					</trkpt>
					<trkpt lat="40.878890" lon="0.715780">
						<ele>138</ele>
						<time>2026-04-30T16:53:19Z</time>
					</trkpt>
					<trkpt lat="40.878890" lon="0.715710">
						<ele>138</ele>
						<time>2026-04-30T16:53:19Z</time>
					</trkpt>
					<trkpt lat="40.878890" lon="0.715380">
						<ele>139</ele>
						<time>2026-04-30T16:53:24Z</time>
					</trkpt>
					<trkpt lat="40.879160" lon="0.712600">
						<ele>154</ele>
						<time>2026-04-30T16:54:02Z</time>
					</trkpt>
					<trkpt lat="40.879180" lon="0.712370">
						<ele>154</ele>
						<time>2026-04-30T16:54:05Z</time>
					</trkpt>
					<trkpt lat="40.879240" lon="0.711670">
						<ele>156</ele>
						<time>2026-04-30T16:54:14Z</time>
					</trkpt>
					<trkpt lat="40.879250" lon="0.711570">
						<ele>156</ele>
						<time>2026-04-30T16:54:16Z</time>
					</trkpt>
					<trkpt lat="40.879280" lon="0.711510">
						<ele>157</ele>
						<time>2026-04-30T16:54:17Z</time>
					</trkpt>
					<trkpt lat="40.879330" lon="0.710970">
						<ele>158</ele>
						<time>2026-04-30T16:54:24Z</time>
					</trkpt>
					<trkpt lat="40.879320" lon="0.710820">
						<ele>159</ele>
						<time>2026-04-30T16:54:26Z</time>
					</trkpt>
					<trkpt lat="40.879350" lon="0.710470">
						<ele>159</ele>
						<time>2026-04-30T16:54:31Z</time>
					</trkpt>
					<trkpt lat="40.879330" lon="0.710380">
						<ele>159</ele>
						<time>2026-04-30T16:54:32Z</time>
					</trkpt>
					<trkpt lat="40.879280" lon="0.710280">
						<ele>158</ele>
						<time>2026-04-30T16:54:33Z</time>
					</trkpt>
					<trkpt lat="40.879230" lon="0.710250">
						<ele>158</ele>
						<time>2026-04-30T16:54:34Z</time>
					</trkpt>
					<trkpt lat="40.879200" lon="0.710210">
						<ele>157</ele>
						<time>2026-04-30T16:54:35Z</time>
					</trkpt>
					<trkpt lat="40.879160" lon="0.710190">
						<ele>157</ele>
						<time>2026-04-30T16:54:36Z</time>
					</trkpt>
					<trkpt lat="40.879120" lon="0.710190">
						<ele>157</ele>
						<time>2026-04-30T16:54:37Z</time>
					</trkpt>
					<trkpt lat="40.879080" lon="0.710210">
						<ele>156</ele>
						<time>2026-04-30T16:54:37Z</time>
					</trkpt>
					<trkpt lat="40.879040" lon="0.710240">
						<ele>156</ele>
						<time>2026-04-30T16:54:38Z</time>
					</trkpt>
					<trkpt lat="40.879020" lon="0.710290">
						<ele>156</ele>
						<time>2026-04-30T16:54:39Z</time>
					</trkpt>
					<trkpt lat="40.879010" lon="0.710340">
						<ele>156</ele>
						<time>2026-04-30T16:54:40Z</time>
					</trkpt>
					<trkpt lat="40.879010" lon="0.710390">
						<ele>156</ele>
						<time>2026-04-30T16:54:40Z</time>
					</trkpt>
					<trkpt lat="40.879030" lon="0.710430">
						<ele>156</ele>
						<time>2026-04-30T16:54:41Z</time>
					</trkpt>
					<trkpt lat="40.879050" lon="0.710470">
						<ele>156</ele>
						<time>2026-04-30T16:54:42Z</time>
					</trkpt>
					<trkpt lat="40.879070" lon="0.710710">
						<ele>156</ele>
						<time>2026-04-30T16:54:45Z</time>
					</trkpt>
					<trkpt lat="40.879010" lon="0.711630">
						<ele>153</ele>
						<time>2026-04-30T16:54:57Z</time>
					</trkpt>
					<trkpt lat="40.878950" lon="0.711640">
						<ele>153</ele>
						<time>2026-04-30T16:54:58Z</time>
					</trkpt>
					<trkpt lat="40.878860" lon="0.711660">
						<ele>152</ele>
						<time>2026-04-30T16:55:00Z</time>
					</trkpt>
					<trkpt lat="40.878790" lon="0.711710">
						<ele>151</ele>
						<time>2026-04-30T16:55:01Z</time>
					</trkpt>
					<trkpt lat="40.878730" lon="0.711770">
						<ele>150</ele>
						<time>2026-04-30T16:55:03Z</time>
					</trkpt>
					<trkpt lat="40.878690" lon="0.711810">
						<ele>150</ele>
						<time>2026-04-30T16:55:04Z</time>
					</trkpt>
					<trkpt lat="40.878550" lon="0.711910">
						<ele>148</ele>
						<time>2026-04-30T16:55:07Z</time>
					</trkpt>
					<trkpt lat="40.878470" lon="0.711960">
						<ele>147</ele>
						<time>2026-04-30T16:55:08Z</time>
					</trkpt>
					<trkpt lat="40.878390" lon="0.711990">
						<ele>146</ele>
						<time>2026-04-30T16:55:10Z</time>
					</trkpt>
					<trkpt lat="40.878190" lon="0.712060">
						<ele>144</ele>
						<time>2026-04-30T16:55:13Z</time>
					</trkpt>
					<trkpt lat="40.878120" lon="0.712070">
						<ele>144</ele>
						<time>2026-04-30T16:55:15Z</time>
					</trkpt>
					<trkpt lat="40.877860" lon="0.712150">
						<ele>141</ele>
						<time>2026-04-30T16:55:19Z</time>
					</trkpt>
					<trkpt lat="40.877480" lon="0.712280">
						<ele>137</ele>
						<time>2026-04-30T16:55:26Z</time>
					</trkpt>
					<trkpt lat="40.877300" lon="0.712340">
						<ele>140</ele>
						<time>2026-04-30T16:55:30Z</time>
					</trkpt>
					<trkpt lat="40.877240" lon="0.712340">
						<ele>140</ele>
						<time>2026-04-30T16:55:31Z</time>
					</trkpt>
					<trkpt lat="40.877170" lon="0.712380">
						<ele>141</ele>
						<time>2026-04-30T16:55:32Z</time>
					</trkpt>
					<trkpt lat="40.877160" lon="0.712370">
						<ele>141</ele>
						<time>2026-04-30T16:55:32Z</time>
					</trkpt>
					<trkpt lat="40.877120" lon="0.712370">
						<ele>142</ele>
						<time>2026-04-30T16:55:33Z</time>
					</trkpt>
					<trkpt lat="40.877100" lon="0.712400">
						<ele>142</ele>
						<time>2026-04-30T16:55:33Z</time>
					</trkpt>
					<trkpt lat="40.877050" lon="0.712400">
						<ele>143</ele>
						<time>2026-04-30T16:55:34Z</time>
					</trkpt>
					<trkpt lat="40.877010" lon="0.712390">
						<ele>143</ele>
						<time>2026-04-30T16:55:35Z</time>
					</trkpt>
					<trkpt lat="40.876950" lon="0.712330">
						<ele>144</ele>
						<time>2026-04-30T16:55:36Z</time>
					</trkpt>
					<trkpt lat="40.876900" lon="0.712260">
						<ele>145</ele>
						<time>2026-04-30T16:55:38Z</time>
					</trkpt>
					<trkpt lat="40.876800" lon="0.712060">
						<ele>147</ele>
						<time>2026-04-30T16:55:41Z</time>
					</trkpt>
					<trkpt lat="40.876680" lon="0.711790">
						<ele>149</ele>
						<time>2026-04-30T16:55:45Z</time>
					</trkpt>
					</trkseg>
				</trk>
			</gpx>